<?xml version="1.0" encoding="UTF-8" standalone="no" ?>
<gpx xmlns="http://www.topografix.com/GPX/1/1" xmlns:xsi="http://www.w3.org/2001/XMLSchema-instance" xsi:schemaLocation="http://www.topografix.com/GPX/1/1 http://www.topografix.com/GPX/1/1/gpx.xsd" version="1.1" creator="VisuGPX - https://www.visugpx.com">
  <metadata>
    <name>Aveyron</name>
    <desc><![CDATA[9 jours de vélo dans l'Aveyron (et un peu du Lot)]]></desc>
  </metadata>
  <trk>
    <name><![CDATA[j1]]></name>
    <desc><![CDATA[comment ...]]></desc>
    <extensions>
      <line xmlns="http://www.topografix.com/GPX/gpx_style/0/2">
        <color>0000FF</color>
        <width>4</width>
      </line>
    </extensions>
    <trkseg>
      <trkpt lat="44.34024" lon="2.96922">
        <ele>672</ele>
        <time>2021-08-27T07:32:08Z</time>
      </trkpt>
      <trkpt lat="44.34024" lon="2.96922">
        <ele>672</ele>
        <time>2021-08-27T07:32:09Z</time>
      </trkpt>
      <trkpt lat="44.34027" lon="2.96928">
        <ele>670</ele>
        <time>2021-08-27T07:32:23Z</time>
      </trkpt>
      <trkpt lat="44.34038" lon="2.96933">
        <ele>659</ele>
        <time>2021-08-27T07:32:27Z</time>
      </trkpt>
      <trkpt lat="44.34043" lon="2.96937">
        <ele>655</ele>
        <time>2021-08-27T07:32:29Z</time>
      </trkpt>
      <trkpt lat="44.34063" lon="2.96941">
        <ele>653</ele>
        <time>2021-08-27T07:32:37Z</time>
      </trkpt>
      <trkpt lat="44.34068" lon="2.96936">
        <ele>653</ele>
        <time>2021-08-27T07:32:39Z</time>
      </trkpt>
      <trkpt lat="44.34074" lon="2.96935">
        <ele>652</ele>
        <time>2021-08-27T07:32:40Z</time>
      </trkpt>
      <trkpt lat="44.34087" lon="2.96931">
        <ele>651</ele>
        <time>2021-08-27T07:32:43Z</time>
      </trkpt>
      <trkpt lat="44.34094" lon="2.96927">
        <ele>650</ele>
        <time>2021-08-27T07:32:45Z</time>
      </trkpt>
      <trkpt lat="44.34099" lon="2.96922">
        <ele>650</ele>
        <time>2021-08-27T07:32:48Z</time>
      </trkpt>
      <trkpt lat="44.34123" lon="2.96905">
        <ele>648</ele>
        <time>2021-08-27T07:32:54Z</time>
      </trkpt>
      <trkpt lat="44.34131" lon="2.96895">
        <ele>645</ele>
        <time>2021-08-27T07:32:59Z</time>
      </trkpt>
      <trkpt lat="44.34135" lon="2.96895">
        <ele>643</ele>
        <time>2021-08-27T07:33:54Z</time>
      </trkpt>
      <trkpt lat="44.34138" lon="2.9689">
        <ele>644</ele>
        <time>2021-08-27T07:34:15Z</time>
      </trkpt>
      <trkpt lat="44.34134" lon="2.96882">
        <ele>644</ele>
        <time>2021-08-27T07:34:18Z</time>
      </trkpt>
      <trkpt lat="44.34135" lon="2.96876">
        <ele>646</ele>
        <time>2021-08-27T07:34:20Z</time>
      </trkpt>
      <trkpt lat="44.34183" lon="2.96785">
        <ele>646</ele>
        <time>2021-08-27T07:34:48Z</time>
      </trkpt>
      <trkpt lat="44.34188" lon="2.96779">
        <ele>646</ele>
        <time>2021-08-27T07:34:50Z</time>
      </trkpt>
      <trkpt lat="44.34223" lon="2.96769">
        <ele>644</ele>
        <time>2021-08-27T07:35:02Z</time>
      </trkpt>
      <trkpt lat="44.34294" lon="2.9683">
        <ele>653</ele>
        <time>2021-08-27T07:35:33Z</time>
      </trkpt>
      <trkpt lat="44.34339" lon="2.9692">
        <ele>653</ele>
        <time>2021-08-27T07:36:04Z</time>
      </trkpt>
      <trkpt lat="44.34413" lon="2.96987">
        <ele>654</ele>
        <time>2021-08-27T07:36:36Z</time>
      </trkpt>
      <trkpt lat="44.34455" lon="2.97012">
        <ele>656</ele>
        <time>2021-08-27T07:36:52Z</time>
      </trkpt>
      <trkpt lat="44.34503" lon="2.96979">
        <ele>657</ele>
        <time>2021-08-27T07:37:08Z</time>
      </trkpt>
      <trkpt lat="44.3451" lon="2.96976">
        <ele>656</ele>
        <time>2021-08-27T07:37:10Z</time>
      </trkpt>
      <trkpt lat="44.34528" lon="2.96978">
        <ele>656</ele>
        <time>2021-08-27T07:37:14Z</time>
      </trkpt>
      <trkpt lat="44.34617" lon="2.97033">
        <ele>657</ele>
        <time>2021-08-27T07:37:36Z</time>
      </trkpt>
      <trkpt lat="44.34682" lon="2.97049">
        <ele>656</ele>
        <time>2021-08-27T07:37:50Z</time>
      </trkpt>
      <trkpt lat="44.34701" lon="2.97051">
        <ele>656</ele>
        <time>2021-08-27T07:37:54Z</time>
      </trkpt>
      <trkpt lat="44.3471" lon="2.97055">
        <ele>655</ele>
        <time>2021-08-27T07:37:56Z</time>
      </trkpt>
      <trkpt lat="44.34774" lon="2.97106">
        <ele>655</ele>
        <time>2021-08-27T07:38:11Z</time>
      </trkpt>
      <trkpt lat="44.34876" lon="2.97111">
        <ele>654</ele>
        <time>2021-08-27T07:38:36Z</time>
      </trkpt>
      <trkpt lat="44.34905" lon="2.97131">
        <ele>653</ele>
        <time>2021-08-27T07:38:41Z</time>
      </trkpt>
      <trkpt lat="44.34965" lon="2.9718">
        <ele>650</ele>
        <time>2021-08-27T07:38:51Z</time>
      </trkpt>
      <trkpt lat="44.34985" lon="2.97185">
        <ele>649</ele>
        <time>2021-08-27T07:38:54Z</time>
      </trkpt>
      <trkpt lat="44.35" lon="2.97183">
        <ele>649</ele>
        <time>2021-08-27T07:38:56Z</time>
      </trkpt>
      <trkpt lat="44.35057" lon="2.9716">
        <ele>647</ele>
        <time>2021-08-27T07:39:06Z</time>
      </trkpt>
      <trkpt lat="44.35069" lon="2.97163">
        <ele>647</ele>
        <time>2021-08-27T07:39:10Z</time>
      </trkpt>
      <trkpt lat="44.35075" lon="2.97167">
        <ele>646</ele>
        <time>2021-08-27T07:39:12Z</time>
      </trkpt>
      <trkpt lat="44.35082" lon="2.97169">
        <ele>646</ele>
        <time>2021-08-27T07:39:14Z</time>
      </trkpt>
      <trkpt lat="44.351" lon="2.97161">
        <ele>645</ele>
        <time>2021-08-27T07:39:18Z</time>
      </trkpt>
      <trkpt lat="44.35109" lon="2.9716">
        <ele>645</ele>
        <time>2021-08-27T07:39:20Z</time>
      </trkpt>
      <trkpt lat="44.35167" lon="2.97181">
        <ele>644</ele>
        <time>2021-08-27T07:39:33Z</time>
      </trkpt>
      <trkpt lat="44.35188" lon="2.97197">
        <ele>644</ele>
        <time>2021-08-27T07:39:38Z</time>
      </trkpt>
      <trkpt lat="44.3521" lon="2.97229">
        <ele>643</ele>
        <time>2021-08-27T07:39:44Z</time>
      </trkpt>
      <trkpt lat="44.35261" lon="2.97328">
        <ele>641</ele>
        <time>2021-08-27T07:39:57Z</time>
      </trkpt>
      <trkpt lat="44.35266" lon="2.97334">
        <ele>641</ele>
        <time>2021-08-27T07:39:58Z</time>
      </trkpt>
      <trkpt lat="44.35286" lon="2.97343">
        <ele>640</ele>
        <time>2021-08-27T07:40:01Z</time>
      </trkpt>
      <trkpt lat="44.35299" lon="2.97345">
        <ele>639</ele>
        <time>2021-08-27T07:40:03Z</time>
      </trkpt>
      <trkpt lat="44.35313" lon="2.97342">
        <ele>638</ele>
        <time>2021-08-27T07:40:05Z</time>
      </trkpt>
      <trkpt lat="44.35328" lon="2.97334">
        <ele>637</ele>
        <time>2021-08-27T07:40:07Z</time>
      </trkpt>
      <trkpt lat="44.3547" lon="2.97118">
        <ele>624</ele>
        <time>2021-08-27T07:40:31Z</time>
      </trkpt>
      <trkpt lat="44.35477" lon="2.97113">
        <ele>624</ele>
        <time>2021-08-27T07:40:32Z</time>
      </trkpt>
      <trkpt lat="44.35514" lon="2.97104">
        <ele>621</ele>
        <time>2021-08-27T07:40:38Z</time>
      </trkpt>
      <trkpt lat="44.35548" lon="2.9708">
        <ele>620</ele>
        <time>2021-08-27T07:40:45Z</time>
      </trkpt>
      <trkpt lat="44.35586" lon="2.97023">
        <ele>621</ele>
        <time>2021-08-27T07:40:59Z</time>
      </trkpt>
      <trkpt lat="44.35607" lon="2.97003">
        <ele>623</ele>
        <time>2021-08-27T07:41:07Z</time>
      </trkpt>
      <trkpt lat="44.35653" lon="2.96979">
        <ele>626</ele>
        <time>2021-08-27T07:41:23Z</time>
      </trkpt>
      <trkpt lat="44.35671" lon="2.96952">
        <ele>628</ele>
        <time>2021-08-27T07:41:33Z</time>
      </trkpt>
      <trkpt lat="44.35708" lon="2.96888">
        <ele>637</ele>
        <time>2021-08-27T07:42:00Z</time>
      </trkpt>
      <trkpt lat="44.35729" lon="2.96858">
        <ele>639</ele>
        <time>2021-08-27T07:42:15Z</time>
      </trkpt>
      <trkpt lat="44.35767" lon="2.96775">
        <ele>642</ele>
        <time>2021-08-27T07:42:47Z</time>
      </trkpt>
      <trkpt lat="44.35807" lon="2.96689">
        <ele>649</ele>
        <time>2021-08-27T07:43:20Z</time>
      </trkpt>
      <trkpt lat="44.35826" lon="2.96652">
        <ele>651</ele>
        <time>2021-08-27T07:43:35Z</time>
      </trkpt>
      <trkpt lat="44.35847" lon="2.96625">
        <ele>653</ele>
        <time>2021-08-27T07:43:48Z</time>
      </trkpt>
      <trkpt lat="44.35904" lon="2.96586">
        <ele>658</ele>
        <time>2021-08-27T07:44:16Z</time>
      </trkpt>
      <trkpt lat="44.3591" lon="2.96582">
        <ele>659</ele>
        <time>2021-08-27T07:44:19Z</time>
      </trkpt>
      <trkpt lat="44.35916" lon="2.96578">
        <ele>659</ele>
        <time>2021-08-27T07:44:22Z</time>
      </trkpt>
      <trkpt lat="44.3595" lon="2.96566">
        <ele>661</ele>
        <time>2021-08-27T07:44:37Z</time>
      </trkpt>
      <trkpt lat="44.35995" lon="2.96572">
        <ele>665</ele>
        <time>2021-08-27T07:44:56Z</time>
      </trkpt>
      <trkpt lat="44.36065" lon="2.96592">
        <ele>668</ele>
        <time>2021-08-27T07:45:26Z</time>
      </trkpt>
      <trkpt lat="44.36077" lon="2.96602">
        <ele>669</ele>
        <time>2021-08-27T07:45:32Z</time>
      </trkpt>
      <trkpt lat="44.36093" lon="2.9662">
        <ele>670</ele>
        <time>2021-08-27T07:45:41Z</time>
      </trkpt>
      <trkpt lat="44.36111" lon="2.96666">
        <ele>673</ele>
        <time>2021-08-27T07:45:58Z</time>
      </trkpt>
      <trkpt lat="44.36133" lon="2.96715">
        <ele>675</ele>
        <time>2021-08-27T07:46:16Z</time>
      </trkpt>
      <trkpt lat="44.36182" lon="2.96792">
        <ele>680</ele>
        <time>2021-08-27T07:46:47Z</time>
      </trkpt>
      <trkpt lat="44.36223" lon="2.96842">
        <ele>684</ele>
        <time>2021-08-27T07:47:11Z</time>
      </trkpt>
      <trkpt lat="44.36254" lon="2.96865">
        <ele>686</ele>
        <time>2021-08-27T07:47:25Z</time>
      </trkpt>
      <trkpt lat="44.36303" lon="2.96887">
        <ele>690</ele>
        <time>2021-08-27T07:47:49Z</time>
      </trkpt>
      <trkpt lat="44.36322" lon="2.96891">
        <ele>691</ele>
        <time>2021-08-27T07:47:58Z</time>
      </trkpt>
      <trkpt lat="44.36351" lon="2.96902">
        <ele>693</ele>
        <time>2021-08-27T07:48:13Z</time>
      </trkpt>
      <trkpt lat="44.36364" lon="2.96918">
        <ele>695</ele>
        <time>2021-08-27T07:48:21Z</time>
      </trkpt>
      <trkpt lat="44.36369" lon="2.96933">
        <ele>696</ele>
        <time>2021-08-27T07:48:27Z</time>
      </trkpt>
      <trkpt lat="44.36373" lon="2.9695">
        <ele>697</ele>
        <time>2021-08-27T07:48:33Z</time>
      </trkpt>
      <trkpt lat="44.36373" lon="2.96975">
        <ele>699</ele>
        <time>2021-08-27T07:48:42Z</time>
      </trkpt>
      <trkpt lat="44.36369" lon="2.97034">
        <ele>704</ele>
        <time>2021-08-27T07:49:03Z</time>
      </trkpt>
      <trkpt lat="44.36369" lon="2.97076">
        <ele>708</ele>
        <time>2021-08-27T07:49:17Z</time>
      </trkpt>
      <trkpt lat="44.36383" lon="2.97131">
        <ele>710</ele>
        <time>2021-08-27T07:49:38Z</time>
      </trkpt>
      <trkpt lat="44.3642" lon="2.97201">
        <ele>714</ele>
        <time>2021-08-27T07:50:08Z</time>
      </trkpt>
      <trkpt lat="44.36431" lon="2.97221">
        <ele>716</ele>
        <time>2021-08-27T07:50:17Z</time>
      </trkpt>
      <trkpt lat="44.3644" lon="2.97231">
        <ele>716</ele>
        <time>2021-08-27T07:50:23Z</time>
      </trkpt>
      <trkpt lat="44.36451" lon="2.97239">
        <ele>718</ele>
        <time>2021-08-27T07:50:29Z</time>
      </trkpt>
      <trkpt lat="44.36463" lon="2.97244">
        <ele>719</ele>
        <time>2021-08-27T07:50:35Z</time>
      </trkpt>
      <trkpt lat="44.36476" lon="2.97245">
        <ele>720</ele>
        <time>2021-08-27T07:50:41Z</time>
      </trkpt>
      <trkpt lat="44.36496" lon="2.97236">
        <ele>721</ele>
        <time>2021-08-27T07:50:50Z</time>
      </trkpt>
      <trkpt lat="44.36545" lon="2.97184">
        <ele>725</ele>
        <time>2021-08-27T07:51:20Z</time>
      </trkpt>
      <trkpt lat="44.36555" lon="2.97175">
        <ele>726</ele>
        <time>2021-08-27T07:51:26Z</time>
      </trkpt>
      <trkpt lat="44.3656" lon="2.97171">
        <ele>727</ele>
        <time>2021-08-27T07:51:29Z</time>
      </trkpt>
      <trkpt lat="44.36617" lon="2.97115">
        <ele>730</ele>
        <time>2021-08-27T07:51:59Z</time>
      </trkpt>
      <trkpt lat="44.36693" lon="2.9707">
        <ele>735</ele>
        <time>2021-08-27T07:52:29Z</time>
      </trkpt>
      <trkpt lat="44.36769" lon="2.97032">
        <ele>740</ele>
        <time>2021-08-27T07:53:01Z</time>
      </trkpt>
      <trkpt lat="44.3684" lon="2.96996">
        <ele>741</ele>
        <time>2021-08-27T07:53:27Z</time>
      </trkpt>
      <trkpt lat="44.36939" lon="2.96992">
        <ele>744</ele>
        <time>2021-08-27T07:53:59Z</time>
      </trkpt>
      <trkpt lat="44.37029" lon="2.97032">
        <ele>745</ele>
        <time>2021-08-27T07:54:29Z</time>
      </trkpt>
      <trkpt lat="44.37091" lon="2.97059">
        <ele>747</ele>
        <time>2021-08-27T07:54:51Z</time>
      </trkpt>
      <trkpt lat="44.37112" lon="2.97172">
        <ele>745</ele>
        <time>2021-08-27T07:55:17Z</time>
      </trkpt>
      <trkpt lat="44.37143" lon="2.9724">
        <ele>743</ele>
        <time>2021-08-27T07:55:33Z</time>
      </trkpt>
      <trkpt lat="44.37165" lon="2.97275">
        <ele>745</ele>
        <time>2021-08-27T07:55:43Z</time>
      </trkpt>
      <trkpt lat="44.3721" lon="2.97302">
        <ele>747</ele>
        <time>2021-08-27T07:56:01Z</time>
      </trkpt>
      <trkpt lat="44.37297" lon="2.97266">
        <ele>751</ele>
        <time>2021-08-27T07:56:33Z</time>
      </trkpt>
      <trkpt lat="44.37345" lon="2.97191">
        <ele>747</ele>
        <time>2021-08-27T07:57:03Z</time>
      </trkpt>
      <trkpt lat="44.37373" lon="2.97179">
        <ele>748</ele>
        <time>2021-08-27T07:57:18Z</time>
      </trkpt>
      <trkpt lat="44.37383" lon="2.97181">
        <ele>749</ele>
        <time>2021-08-27T07:57:23Z</time>
      </trkpt>
      <trkpt lat="44.37407" lon="2.97235">
        <ele>749</ele>
        <time>2021-08-27T07:57:35Z</time>
      </trkpt>
      <trkpt lat="44.37462" lon="2.97336">
        <ele>749</ele>
        <time>2021-08-27T07:57:50Z</time>
      </trkpt>
      <trkpt lat="44.37493" lon="2.9744">
        <ele>747</ele>
        <time>2021-08-27T07:58:05Z</time>
      </trkpt>
      <trkpt lat="44.37529" lon="2.97492">
        <ele>744</ele>
        <time>2021-08-27T07:58:16Z</time>
      </trkpt>
      <trkpt lat="44.37534" lon="2.97503">
        <ele>743</ele>
        <time>2021-08-27T07:58:18Z</time>
      </trkpt>
      <trkpt lat="44.37542" lon="2.97528">
        <ele>743</ele>
        <time>2021-08-27T07:58:22Z</time>
      </trkpt>
      <trkpt lat="44.3756" lon="2.9758">
        <ele>740</ele>
        <time>2021-08-27T07:58:30Z</time>
      </trkpt>
      <trkpt lat="44.37564" lon="2.97604">
        <ele>738</ele>
        <time>2021-08-27T07:58:33Z</time>
      </trkpt>
      <trkpt lat="44.3757" lon="2.97711">
        <ele>731</ele>
        <time>2021-08-27T07:58:44Z</time>
      </trkpt>
      <trkpt lat="44.37575" lon="2.97733">
        <ele>731</ele>
        <time>2021-08-27T07:58:46Z</time>
      </trkpt>
      <trkpt lat="44.37651" lon="2.97907">
        <ele>729</ele>
        <time>2021-08-27T07:59:06Z</time>
      </trkpt>
      <trkpt lat="44.377" lon="2.98069">
        <ele>740</ele>
        <time>2021-08-27T07:59:37Z</time>
      </trkpt>
      <trkpt lat="44.37731" lon="2.98155">
        <ele>747</ele>
        <time>2021-08-27T08:00:03Z</time>
      </trkpt>
      <trkpt lat="44.37746" lon="2.98185">
        <ele>749</ele>
        <time>2021-08-27T08:00:13Z</time>
      </trkpt>
      <trkpt lat="44.37767" lon="2.98201">
        <ele>750</ele>
        <time>2021-08-27T08:00:21Z</time>
      </trkpt>
      <trkpt lat="44.37911" lon="2.98271">
        <ele>748</ele>
        <time>2021-08-27T08:00:51Z</time>
      </trkpt>
      <trkpt lat="44.37942" lon="2.98285">
        <ele>748</ele>
        <time>2021-08-27T08:00:58Z</time>
      </trkpt>
      <trkpt lat="44.3795" lon="2.98293">
        <ele>749</ele>
        <time>2021-08-27T08:01:00Z</time>
      </trkpt>
      <trkpt lat="44.37998" lon="2.98412">
        <ele>753</ele>
        <time>2021-08-27T08:01:30Z</time>
      </trkpt>
      <trkpt lat="44.38017" lon="2.98461">
        <ele>753</ele>
        <time>2021-08-27T08:01:42Z</time>
      </trkpt>
      <trkpt lat="44.38021" lon="2.98478">
        <ele>753</ele>
        <time>2021-08-27T08:01:46Z</time>
      </trkpt>
      <trkpt lat="44.38021" lon="2.98497">
        <ele>753</ele>
        <time>2021-08-27T08:01:50Z</time>
      </trkpt>
      <trkpt lat="44.38007" lon="2.98527">
        <ele>753</ele>
        <time>2021-08-27T08:01:58Z</time>
      </trkpt>
      <trkpt lat="44.37998" lon="2.98543">
        <ele>753</ele>
        <time>2021-08-27T08:02:02Z</time>
      </trkpt>
      <trkpt lat="44.37985" lon="2.98578">
        <ele>754</ele>
        <time>2021-08-27T08:02:10Z</time>
      </trkpt>
      <trkpt lat="44.37983" lon="2.98588">
        <ele>754</ele>
        <time>2021-08-27T08:02:12Z</time>
      </trkpt>
      <trkpt lat="44.37981" lon="2.98608">
        <ele>755</ele>
        <time>2021-08-27T08:02:16Z</time>
      </trkpt>
      <trkpt lat="44.37984" lon="2.98629">
        <ele>755</ele>
        <time>2021-08-27T08:02:20Z</time>
      </trkpt>
      <trkpt lat="44.37987" lon="2.9864">
        <ele>755</ele>
        <time>2021-08-27T08:02:22Z</time>
      </trkpt>
      <trkpt lat="44.37993" lon="2.98649">
        <ele>755</ele>
        <time>2021-08-27T08:02:24Z</time>
      </trkpt>
      <trkpt lat="44.38" lon="2.98653">
        <ele>756</ele>
        <time>2021-08-27T08:02:26Z</time>
      </trkpt>
      <trkpt lat="44.38127" lon="2.98667">
        <ele>758</ele>
        <time>2021-08-27T08:02:58Z</time>
      </trkpt>
      <trkpt lat="44.38182" lon="2.98662">
        <ele>758</ele>
        <time>2021-08-27T08:03:11Z</time>
      </trkpt>
      <trkpt lat="44.382" lon="2.98663">
        <ele>758</ele>
        <time>2021-08-27T08:03:15Z</time>
      </trkpt>
      <trkpt lat="44.38215" lon="2.98671">
        <ele>759</ele>
        <time>2021-08-27T08:03:19Z</time>
      </trkpt>
      <trkpt lat="44.38227" lon="2.98684">
        <ele>759</ele>
        <time>2021-08-27T08:03:23Z</time>
      </trkpt>
      <trkpt lat="44.38236" lon="2.98711">
        <ele>759</ele>
        <time>2021-08-27T08:03:29Z</time>
      </trkpt>
      <trkpt lat="44.38234" lon="2.98819">
        <ele>762</ele>
        <time>2021-08-27T08:03:49Z</time>
      </trkpt>
      <trkpt lat="44.38239" lon="2.98841">
        <ele>763</ele>
        <time>2021-08-27T08:03:53Z</time>
      </trkpt>
      <trkpt lat="44.38249" lon="2.98858">
        <ele>762</ele>
        <time>2021-08-27T08:03:57Z</time>
      </trkpt>
      <trkpt lat="44.38254" lon="2.98871">
        <ele>762</ele>
        <time>2021-08-27T08:03:59Z</time>
      </trkpt>
      <trkpt lat="44.38256" lon="2.98886">
        <ele>762</ele>
        <time>2021-08-27T08:04:01Z</time>
      </trkpt>
      <trkpt lat="44.38249" lon="2.98929">
        <ele>763</ele>
        <time>2021-08-27T08:04:08Z</time>
      </trkpt>
      <trkpt lat="44.38248" lon="2.98965">
        <ele>763</ele>
        <time>2021-08-27T08:04:14Z</time>
      </trkpt>
      <trkpt lat="44.38253" lon="2.98998">
        <ele>764</ele>
        <time>2021-08-27T08:04:20Z</time>
      </trkpt>
      <trkpt lat="44.38261" lon="2.99019">
        <ele>763</ele>
        <time>2021-08-27T08:04:24Z</time>
      </trkpt>
      <trkpt lat="44.38277" lon="2.9904">
        <ele>762</ele>
        <time>2021-08-27T08:04:29Z</time>
      </trkpt>
      <trkpt lat="44.38296" lon="2.9906">
        <ele>761</ele>
        <time>2021-08-27T08:04:34Z</time>
      </trkpt>
      <trkpt lat="44.38302" lon="2.9907">
        <ele>761</ele>
        <time>2021-08-27T08:04:36Z</time>
      </trkpt>
      <trkpt lat="44.38305" lon="2.99083">
        <ele>761</ele>
        <time>2021-08-27T08:04:38Z</time>
      </trkpt>
      <trkpt lat="44.38306" lon="2.99094">
        <ele>761</ele>
        <time>2021-08-27T08:04:40Z</time>
      </trkpt>
      <trkpt lat="44.38288" lon="2.99195">
        <ele>763</ele>
        <time>2021-08-27T08:05:00Z</time>
      </trkpt>
      <trkpt lat="44.38285" lon="2.99239">
        <ele>763</ele>
        <time>2021-08-27T08:05:10Z</time>
      </trkpt>
      <trkpt lat="44.38292" lon="2.9933">
        <ele>768</ele>
        <time>2021-08-27T08:05:36Z</time>
      </trkpt>
      <trkpt lat="44.38289" lon="2.99426">
        <ele>773</ele>
        <time>2021-08-27T08:06:04Z</time>
      </trkpt>
      <trkpt lat="44.38273" lon="2.99469">
        <ele>776</ele>
        <time>2021-08-27T08:06:18Z</time>
      </trkpt>
      <trkpt lat="44.38271" lon="2.99482">
        <ele>776</ele>
        <time>2021-08-27T08:06:22Z</time>
      </trkpt>
      <trkpt lat="44.38271" lon="2.99496">
        <ele>777</ele>
        <time>2021-08-27T08:06:26Z</time>
      </trkpt>
      <trkpt lat="44.38272" lon="2.99502">
        <ele>777</ele>
        <time>2021-08-27T08:06:28Z</time>
      </trkpt>
      <trkpt lat="44.38279" lon="2.99523">
        <ele>777</ele>
        <time>2021-08-27T08:06:35Z</time>
      </trkpt>
      <trkpt lat="44.38286" lon="2.99534">
        <ele>778</ele>
        <time>2021-08-27T08:06:39Z</time>
      </trkpt>
      <trkpt lat="44.38299" lon="2.99547">
        <ele>778</ele>
        <time>2021-08-27T08:06:45Z</time>
      </trkpt>
      <trkpt lat="44.38329" lon="2.99564">
        <ele>780</ele>
        <time>2021-08-27T08:06:59Z</time>
      </trkpt>
      <trkpt lat="44.38362" lon="2.99594">
        <ele>782</ele>
        <time>2021-08-27T08:07:16Z</time>
      </trkpt>
      <trkpt lat="44.38389" lon="2.99631">
        <ele>783</ele>
        <time>2021-08-27T08:07:32Z</time>
      </trkpt>
      <trkpt lat="44.38433" lon="2.99675">
        <ele>786</ele>
        <time>2021-08-27T08:07:55Z</time>
      </trkpt>
      <trkpt lat="44.38441" lon="2.99692">
        <ele>787</ele>
        <time>2021-08-27T08:08:01Z</time>
      </trkpt>
      <trkpt lat="44.3845" lon="2.99724">
        <ele>786</ele>
        <time>2021-08-27T08:08:11Z</time>
      </trkpt>
      <trkpt lat="44.3846" lon="2.99768">
        <ele>782</ele>
        <time>2021-08-27T08:08:27Z</time>
      </trkpt>
      <trkpt lat="44.38494" lon="2.99847">
        <ele>778</ele>
        <time>2021-08-27T08:08:54Z</time>
      </trkpt>
      <trkpt lat="44.38502" lon="2.9986">
        <ele>776</ele>
        <time>2021-08-27T08:09:00Z</time>
      </trkpt>
      <trkpt lat="44.38518" lon="2.99873">
        <ele>775</ele>
        <time>2021-08-27T08:09:08Z</time>
      </trkpt>
      <trkpt lat="44.3854" lon="2.99875">
        <ele>777</ele>
        <time>2021-08-27T08:09:16Z</time>
      </trkpt>
      <trkpt lat="44.38557" lon="2.99871">
        <ele>780</ele>
        <time>2021-08-27T08:09:22Z</time>
      </trkpt>
      <trkpt lat="44.38615" lon="2.99844">
        <ele>791</ele>
        <time>2021-08-27T08:09:47Z</time>
      </trkpt>
      <trkpt lat="44.38625" lon="2.99841">
        <ele>792</ele>
        <time>2021-08-27T08:09:52Z</time>
      </trkpt>
      <trkpt lat="44.38631" lon="2.99838">
        <ele>793</ele>
        <time>2021-08-27T08:09:55Z</time>
      </trkpt>
      <trkpt lat="44.3865" lon="2.99829">
        <ele>794</ele>
        <time>2021-08-27T08:10:04Z</time>
      </trkpt>
      <trkpt lat="44.38661" lon="2.99825">
        <ele>794</ele>
        <time>2021-08-27T08:10:09Z</time>
      </trkpt>
      <trkpt lat="44.38727" lon="2.99808">
        <ele>800</ele>
        <time>2021-08-27T08:10:39Z</time>
      </trkpt>
      <trkpt lat="44.38804" lon="2.99797">
        <ele>805</ele>
        <time>2021-08-27T08:11:12Z</time>
      </trkpt>
      <trkpt lat="44.38874" lon="2.99802">
        <ele>808</ele>
        <time>2021-08-27T08:11:42Z</time>
      </trkpt>
      <trkpt lat="44.38893" lon="2.99807">
        <ele>809</ele>
        <time>2021-08-27T08:11:50Z</time>
      </trkpt>
      <trkpt lat="44.3894" lon="2.99831">
        <ele>810</ele>
        <time>2021-08-27T08:12:10Z</time>
      </trkpt>
      <trkpt lat="44.39005" lon="2.99818">
        <ele>812</ele>
        <time>2021-08-27T08:12:37Z</time>
      </trkpt>
      <trkpt lat="44.39009" lon="2.99811">
        <ele>812</ele>
        <time>2021-08-27T08:14:33Z</time>
      </trkpt>
      <trkpt lat="44.39032" lon="2.99794">
        <ele>810</ele>
        <time>2021-08-27T08:14:41Z</time>
      </trkpt>
      <trkpt lat="44.39043" lon="2.9978">
        <ele>808</ele>
        <time>2021-08-27T08:14:45Z</time>
      </trkpt>
      <trkpt lat="44.39055" lon="2.9977">
        <ele>806</ele>
        <time>2021-08-27T08:14:48Z</time>
      </trkpt>
      <trkpt lat="44.39101" lon="2.99764">
        <ele>800</ele>
        <time>2021-08-27T08:14:58Z</time>
      </trkpt>
      <trkpt lat="44.39107" lon="2.99768">
        <ele>798</ele>
        <time>2021-08-27T08:14:59Z</time>
      </trkpt>
      <trkpt lat="44.39112" lon="2.99775">
        <ele>798</ele>
        <time>2021-08-27T08:15:00Z</time>
      </trkpt>
      <trkpt lat="44.3911" lon="2.99784">
        <ele>799</ele>
        <time>2021-08-27T08:15:02Z</time>
      </trkpt>
      <trkpt lat="44.39092" lon="2.9979">
        <ele>796</ele>
        <time>2021-08-27T08:15:07Z</time>
      </trkpt>
      <trkpt lat="44.39081" lon="2.99798">
        <ele>795</ele>
        <time>2021-08-27T08:15:10Z</time>
      </trkpt>
      <trkpt lat="44.39071" lon="2.99813">
        <ele>794</ele>
        <time>2021-08-27T08:15:13Z</time>
      </trkpt>
      <trkpt lat="44.39067" lon="2.99823">
        <ele>794</ele>
        <time>2021-08-27T08:15:15Z</time>
      </trkpt>
      <trkpt lat="44.39065" lon="2.99832">
        <ele>794</ele>
        <time>2021-08-27T08:15:17Z</time>
      </trkpt>
      <trkpt lat="44.39062" lon="2.99842">
        <ele>794</ele>
        <time>2021-08-27T08:15:19Z</time>
      </trkpt>
      <trkpt lat="44.39055" lon="2.99855">
        <ele>794</ele>
        <time>2021-08-27T08:15:21Z</time>
      </trkpt>
      <trkpt lat="44.39048" lon="2.99881">
        <ele>794</ele>
        <time>2021-08-27T08:15:24Z</time>
      </trkpt>
      <trkpt lat="44.39046" lon="2.99897">
        <ele>794</ele>
        <time>2021-08-27T08:15:26Z</time>
      </trkpt>
      <trkpt lat="44.39046" lon="2.99903">
        <ele>794</ele>
        <time>2021-08-27T08:15:27Z</time>
      </trkpt>
      <trkpt lat="44.39056" lon="2.9993">
        <ele>794</ele>
        <time>2021-08-27T08:15:31Z</time>
      </trkpt>
      <trkpt lat="44.3906" lon="2.99943">
        <ele>794</ele>
        <time>2021-08-27T08:15:33Z</time>
      </trkpt>
      <trkpt lat="44.39067" lon="2.99963">
        <ele>796</ele>
        <time>2021-08-27T08:15:36Z</time>
      </trkpt>
      <trkpt lat="44.39077" lon="2.99988">
        <ele>796</ele>
        <time>2021-08-27T08:15:39Z</time>
      </trkpt>
      <trkpt lat="44.39085" lon="3.00002">
        <ele>796</ele>
        <time>2021-08-27T08:15:41Z</time>
      </trkpt>
      <trkpt lat="44.39089" lon="3.0001">
        <ele>796</ele>
        <time>2021-08-27T08:15:42Z</time>
      </trkpt>
      <trkpt lat="44.39098" lon="3.00027">
        <ele>796</ele>
        <time>2021-08-27T08:15:44Z</time>
      </trkpt>
      <trkpt lat="44.39103" lon="3.00043">
        <ele>795</ele>
        <time>2021-08-27T08:15:46Z</time>
      </trkpt>
      <trkpt lat="44.39106" lon="3.00055">
        <ele>795</ele>
        <time>2021-08-27T08:15:47Z</time>
      </trkpt>
      <trkpt lat="44.39103" lon="3.00075">
        <ele>794</ele>
        <time>2021-08-27T08:15:49Z</time>
      </trkpt>
      <trkpt lat="44.39096" lon="3.00095">
        <ele>795</ele>
        <time>2021-08-27T08:15:51Z</time>
      </trkpt>
      <trkpt lat="44.39084" lon="3.0011">
        <ele>795</ele>
        <time>2021-08-27T08:15:53Z</time>
      </trkpt>
      <trkpt lat="44.39059" lon="3.00118">
        <ele>794</ele>
        <time>2021-08-27T08:15:57Z</time>
      </trkpt>
      <trkpt lat="44.39022" lon="3.00154">
        <ele>798</ele>
        <time>2021-08-27T08:16:04Z</time>
      </trkpt>
      <trkpt lat="44.39019" lon="3.00159">
        <ele>798</ele>
        <time>2021-08-27T08:16:05Z</time>
      </trkpt>
      <trkpt lat="44.39016" lon="3.00188">
        <ele>797</ele>
        <time>2021-08-27T08:16:08Z</time>
      </trkpt>
      <trkpt lat="44.39017" lon="3.00206">
        <ele>796</ele>
        <time>2021-08-27T08:16:10Z</time>
      </trkpt>
      <trkpt lat="44.39023" lon="3.00219">
        <ele>795</ele>
        <time>2021-08-27T08:16:12Z</time>
      </trkpt>
      <trkpt lat="44.39027" lon="3.00224">
        <ele>794</ele>
        <time>2021-08-27T08:16:13Z</time>
      </trkpt>
      <trkpt lat="44.39039" lon="3.00226">
        <ele>797</ele>
        <time>2021-08-27T08:16:15Z</time>
      </trkpt>
      <trkpt lat="44.39051" lon="3.00227">
        <ele>798</ele>
        <time>2021-08-27T08:16:17Z</time>
      </trkpt>
      <trkpt lat="44.39067" lon="3.00233">
        <ele>798</ele>
        <time>2021-08-27T08:16:20Z</time>
      </trkpt>
      <trkpt lat="44.39077" lon="3.00244">
        <ele>798</ele>
        <time>2021-08-27T08:16:22Z</time>
      </trkpt>
      <trkpt lat="44.39082" lon="3.00248">
        <ele>798</ele>
        <time>2021-08-27T08:16:23Z</time>
      </trkpt>
      <trkpt lat="44.39093" lon="3.00251">
        <ele>797</ele>
        <time>2021-08-27T08:16:25Z</time>
      </trkpt>
      <trkpt lat="44.3915" lon="3.00246">
        <ele>790</ele>
        <time>2021-08-27T08:16:33Z</time>
      </trkpt>
      <trkpt lat="44.39242" lon="3.00219">
        <ele>777</ele>
        <time>2021-08-27T08:16:45Z</time>
      </trkpt>
      <trkpt lat="44.39438" lon="3.00206">
        <ele>759</ele>
        <time>2021-08-27T08:17:11Z</time>
      </trkpt>
      <trkpt lat="44.39489" lon="3.00231">
        <ele>755</ele>
        <time>2021-08-27T08:17:20Z</time>
      </trkpt>
      <trkpt lat="44.39499" lon="3.00238">
        <ele>754</ele>
        <time>2021-08-27T08:17:22Z</time>
      </trkpt>
      <trkpt lat="44.39597" lon="3.00348">
        <ele>749</ele>
        <time>2021-08-27T08:17:51Z</time>
      </trkpt>
      <trkpt lat="44.39631" lon="3.00371">
        <ele>751</ele>
        <time>2021-08-27T08:18:01Z</time>
      </trkpt>
      <trkpt lat="44.39675" lon="3.00385">
        <ele>755</ele>
        <time>2021-08-27T08:18:13Z</time>
      </trkpt>
      <trkpt lat="44.39697" lon="3.00384">
        <ele>755</ele>
        <time>2021-08-27T08:18:19Z</time>
      </trkpt>
      <trkpt lat="44.39712" lon="3.00381">
        <ele>756</ele>
        <time>2021-08-27T08:18:23Z</time>
      </trkpt>
      <trkpt lat="44.39726" lon="3.00383">
        <ele>756</ele>
        <time>2021-08-27T08:18:27Z</time>
      </trkpt>
      <trkpt lat="44.39733" lon="3.00387">
        <ele>757</ele>
        <time>2021-08-27T08:18:29Z</time>
      </trkpt>
      <trkpt lat="44.39755" lon="3.00412">
        <ele>757</ele>
        <time>2021-08-27T08:18:37Z</time>
      </trkpt>
      <trkpt lat="44.3976" lon="3.00419">
        <ele>757</ele>
        <time>2021-08-27T08:18:39Z</time>
      </trkpt>
      <trkpt lat="44.39777" lon="3.00442">
        <ele>757</ele>
        <time>2021-08-27T08:18:47Z</time>
      </trkpt>
      <trkpt lat="44.39854" lon="3.00483">
        <ele>759</ele>
        <time>2021-08-27T08:19:11Z</time>
      </trkpt>
      <trkpt lat="44.39885" lon="3.0052">
        <ele>758</ele>
        <time>2021-08-27T08:19:21Z</time>
      </trkpt>
      <trkpt lat="44.39907" lon="3.00554">
        <ele>756</ele>
        <time>2021-08-27T08:19:28Z</time>
      </trkpt>
      <trkpt lat="44.4" lon="3.00671">
        <ele>756</ele>
        <time>2021-08-27T08:19:56Z</time>
      </trkpt>
      <trkpt lat="44.40027" lon="3.00709">
        <ele>753</ele>
        <time>2021-08-27T08:20:03Z</time>
      </trkpt>
      <trkpt lat="44.40036" lon="3.0072">
        <ele>752</ele>
        <time>2021-08-27T08:20:05Z</time>
      </trkpt>
      <trkpt lat="44.40064" lon="3.00737">
        <ele>754</ele>
        <time>2021-08-27T08:20:11Z</time>
      </trkpt>
      <trkpt lat="44.40077" lon="3.00741">
        <ele>754</ele>
        <time>2021-08-27T08:20:15Z</time>
      </trkpt>
      <trkpt lat="44.40091" lon="3.00735">
        <ele>753</ele>
        <time>2021-08-27T08:20:19Z</time>
      </trkpt>
      <trkpt lat="44.4017" lon="3.00667">
        <ele>755</ele>
        <time>2021-08-27T08:20:41Z</time>
      </trkpt>
      <trkpt lat="44.40239" lon="3.00635">
        <ele>760</ele>
        <time>2021-08-27T08:21:01Z</time>
      </trkpt>
      <trkpt lat="44.40261" lon="3.00605">
        <ele>761</ele>
        <time>2021-08-27T08:21:09Z</time>
      </trkpt>
      <trkpt lat="44.40316" lon="3.00485">
        <ele>762</ele>
        <time>2021-08-27T08:21:35Z</time>
      </trkpt>
      <trkpt lat="44.40433" lon="3.00335">
        <ele>760</ele>
        <time>2021-08-27T08:22:06Z</time>
      </trkpt>
      <trkpt lat="44.40493" lon="3.00261">
        <ele>760</ele>
        <time>2021-08-27T08:22:22Z</time>
      </trkpt>
      <trkpt lat="44.40512" lon="3.00245">
        <ele>760</ele>
        <time>2021-08-27T08:22:28Z</time>
      </trkpt>
      <trkpt lat="44.40528" lon="3.00238">
        <ele>760</ele>
        <time>2021-08-27T08:22:32Z</time>
      </trkpt>
      <trkpt lat="44.40546" lon="3.00237">
        <ele>760</ele>
        <time>2021-08-27T08:22:36Z</time>
      </trkpt>
      <trkpt lat="44.40556" lon="3.00241">
        <ele>759</ele>
        <time>2021-08-27T08:22:38Z</time>
      </trkpt>
      <trkpt lat="44.40587" lon="3.00263">
        <ele>758</ele>
        <time>2021-08-27T08:22:44Z</time>
      </trkpt>
      <trkpt lat="44.40676" lon="3.00351">
        <ele>751</ele>
        <time>2021-08-27T08:23:02Z</time>
      </trkpt>
      <trkpt lat="44.40701" lon="3.00362">
        <ele>749</ele>
        <time>2021-08-27T08:23:09Z</time>
      </trkpt>
      <trkpt lat="44.4073" lon="3.00359">
        <ele>748</ele>
        <time>2021-08-27T08:23:15Z</time>
      </trkpt>
      <trkpt lat="44.40772" lon="3.0035">
        <ele>747</ele>
        <time>2021-08-27T08:23:25Z</time>
      </trkpt>
      <trkpt lat="44.40777" lon="3.00351">
        <ele>746</ele>
        <time>2021-08-27T08:27:47Z</time>
      </trkpt>
      <trkpt lat="44.40781" lon="3.00347">
        <ele>746</ele>
        <time>2021-08-27T08:28:14Z</time>
      </trkpt>
      <trkpt lat="44.40786" lon="3.00346">
        <ele>746</ele>
        <time>2021-08-27T08:28:17Z</time>
      </trkpt>
      <trkpt lat="44.40791" lon="3.00345">
        <ele>746</ele>
        <time>2021-08-27T08:28:19Z</time>
      </trkpt>
      <trkpt lat="44.40858" lon="3.00344">
        <ele>743</ele>
        <time>2021-08-27T08:28:38Z</time>
      </trkpt>
      <trkpt lat="44.40872" lon="3.00348">
        <ele>742</ele>
        <time>2021-08-27T08:28:41Z</time>
      </trkpt>
      <trkpt lat="44.40897" lon="3.00359">
        <ele>740</ele>
        <time>2021-08-27T08:28:46Z</time>
      </trkpt>
      <trkpt lat="44.40908" lon="3.00359">
        <ele>740</ele>
        <time>2021-08-27T08:28:48Z</time>
      </trkpt>
      <trkpt lat="44.41082" lon="3.00288">
        <ele>737</ele>
        <time>2021-08-27T08:29:19Z</time>
      </trkpt>
      <trkpt lat="44.41135" lon="3.00258">
        <ele>736</ele>
        <time>2021-08-27T08:29:28Z</time>
      </trkpt>
      <trkpt lat="44.41235" lon="3.0023">
        <ele>734</ele>
        <time>2021-08-27T08:29:45Z</time>
      </trkpt>
      <trkpt lat="44.41246" lon="3.0023">
        <ele>733</ele>
        <time>2021-08-27T08:29:47Z</time>
      </trkpt>
      <trkpt lat="44.41311" lon="3.00267">
        <ele>730</ele>
        <time>2021-08-27T08:29:58Z</time>
      </trkpt>
      <trkpt lat="44.4133" lon="3.00281">
        <ele>730</ele>
        <time>2021-08-27T08:30:02Z</time>
      </trkpt>
      <trkpt lat="44.41408" lon="3.00363">
        <ele>728</ele>
        <time>2021-08-27T08:30:22Z</time>
      </trkpt>
      <trkpt lat="44.41424" lon="3.00372">
        <ele>726</ele>
        <time>2021-08-27T08:30:25Z</time>
      </trkpt>
      <trkpt lat="44.41441" lon="3.00376">
        <ele>726</ele>
        <time>2021-08-27T08:30:28Z</time>
      </trkpt>
      <trkpt lat="44.41608" lon="3.00337">
        <ele>716</ele>
        <time>2021-08-27T08:30:54Z</time>
      </trkpt>
      <trkpt lat="44.41623" lon="3.00331">
        <ele>715</ele>
        <time>2021-08-27T08:30:56Z</time>
      </trkpt>
      <trkpt lat="44.41637" lon="3.0032">
        <ele>715</ele>
        <time>2021-08-27T08:30:58Z</time>
      </trkpt>
      <trkpt lat="44.41691" lon="3.00228">
        <ele>712</ele>
        <time>2021-08-27T08:31:10Z</time>
      </trkpt>
      <trkpt lat="44.41717" lon="3.00153">
        <ele>710</ele>
        <time>2021-08-27T08:31:18Z</time>
      </trkpt>
      <trkpt lat="44.41745" lon="2.9997">
        <ele>701</ele>
        <time>2021-08-27T08:31:34Z</time>
      </trkpt>
      <trkpt lat="44.41749" lon="2.99916">
        <ele>698</ele>
        <time>2021-08-27T08:31:41Z</time>
      </trkpt>
      <trkpt lat="44.41752" lon="2.99909">
        <ele>697</ele>
        <time>2021-08-27T08:31:43Z</time>
      </trkpt>
      <trkpt lat="44.41756" lon="2.99912">
        <ele>696</ele>
        <time>2021-08-27T08:31:47Z</time>
      </trkpt>
      <trkpt lat="44.41756" lon="2.9992">
        <ele>696</ele>
        <time>2021-08-27T08:31:49Z</time>
      </trkpt>
      <trkpt lat="44.41754" lon="2.9993">
        <ele>695</ele>
        <time>2021-08-27T08:31:51Z</time>
      </trkpt>
      <trkpt lat="44.41751" lon="2.9995">
        <ele>694</ele>
        <time>2021-08-27T08:31:54Z</time>
      </trkpt>
      <trkpt lat="44.41751" lon="2.99999">
        <ele>694</ele>
        <time>2021-08-27T08:32:00Z</time>
      </trkpt>
      <trkpt lat="44.41753" lon="3.00146">
        <ele>689</ele>
        <time>2021-08-27T08:32:14Z</time>
      </trkpt>
      <trkpt lat="44.4175" lon="3.00209">
        <ele>687</ele>
        <time>2021-08-27T08:32:19Z</time>
      </trkpt>
      <trkpt lat="44.41741" lon="3.00243">
        <ele>687</ele>
        <time>2021-08-27T08:32:22Z</time>
      </trkpt>
      <trkpt lat="44.41717" lon="3.00295">
        <ele>685</ele>
        <time>2021-08-27T08:32:27Z</time>
      </trkpt>
      <trkpt lat="44.41687" lon="3.00444">
        <ele>678</ele>
        <time>2021-08-27T08:32:39Z</time>
      </trkpt>
      <trkpt lat="44.41682" lon="3.00505">
        <ele>674</ele>
        <time>2021-08-27T08:32:44Z</time>
      </trkpt>
      <trkpt lat="44.41683" lon="3.00541">
        <ele>671</ele>
        <time>2021-08-27T08:32:47Z</time>
      </trkpt>
      <trkpt lat="44.41693" lon="3.00586">
        <ele>667</ele>
        <time>2021-08-27T08:32:51Z</time>
      </trkpt>
      <trkpt lat="44.4178" lon="3.00815">
        <ele>648</ele>
        <time>2021-08-27T08:33:13Z</time>
      </trkpt>
      <trkpt lat="44.41845" lon="3.01094">
        <ele>634</ele>
        <time>2021-08-27T08:33:37Z</time>
      </trkpt>
      <trkpt lat="44.41886" lon="3.01195">
        <ele>628</ele>
        <time>2021-08-27T08:33:48Z</time>
      </trkpt>
      <trkpt lat="44.41896" lon="3.01235">
        <ele>628</ele>
        <time>2021-08-27T08:33:53Z</time>
      </trkpt>
      <trkpt lat="44.41897" lon="3.01251">
        <ele>627</ele>
        <time>2021-08-27T08:33:55Z</time>
      </trkpt>
      <trkpt lat="44.41904" lon="3.0128">
        <ele>625</ele>
        <time>2021-08-27T08:34:00Z</time>
      </trkpt>
      <trkpt lat="44.41911" lon="3.01299">
        <ele>623</ele>
        <time>2021-08-27T08:34:04Z</time>
      </trkpt>
      <trkpt lat="44.41932" lon="3.01372">
        <ele>621</ele>
        <time>2021-08-27T08:34:20Z</time>
      </trkpt>
      <trkpt lat="44.41935" lon="3.01417">
        <ele>615</ele>
        <time>2021-08-27T08:34:30Z</time>
      </trkpt>
      <trkpt lat="44.41941" lon="3.01434">
        <ele>614</ele>
        <time>2021-08-27T08:34:33Z</time>
      </trkpt>
      <trkpt lat="44.41947" lon="3.01468">
        <ele>614</ele>
        <time>2021-08-27T08:34:39Z</time>
      </trkpt>
      <trkpt lat="44.41967" lon="3.01524">
        <ele>617</ele>
        <time>2021-08-27T08:34:49Z</time>
      </trkpt>
      <trkpt lat="44.41984" lon="3.01559">
        <ele>616</ele>
        <time>2021-08-27T08:34:56Z</time>
      </trkpt>
      <trkpt lat="44.4201" lon="3.0159">
        <ele>619</ele>
        <time>2021-08-27T08:35:06Z</time>
      </trkpt>
      <trkpt lat="44.42016" lon="3.01593">
        <ele>621</ele>
        <time>2021-08-27T08:35:09Z</time>
      </trkpt>
      <trkpt lat="44.42025" lon="3.01595">
        <ele>623</ele>
        <time>2021-08-27T08:35:13Z</time>
      </trkpt>
      <trkpt lat="44.42141" lon="3.01579">
        <ele>630</ele>
        <time>2021-08-27T08:35:44Z</time>
      </trkpt>
      <trkpt lat="44.42246" lon="3.01563">
        <ele>630</ele>
        <time>2021-08-27T08:36:16Z</time>
      </trkpt>
      <trkpt lat="44.4225" lon="3.01566">
        <ele>631</ele>
        <time>2021-08-27T08:36:18Z</time>
      </trkpt>
      <trkpt lat="44.42255" lon="3.01567">
        <ele>633</ele>
        <time>2021-08-27T08:36:48Z</time>
      </trkpt>
      <trkpt lat="44.42267" lon="3.01565">
        <ele>634</ele>
        <time>2021-08-27T08:36:53Z</time>
      </trkpt>
      <trkpt lat="44.42282" lon="3.01559">
        <ele>636</ele>
        <time>2021-08-27T08:38:00Z</time>
      </trkpt>
      <trkpt lat="44.42298" lon="3.01561">
        <ele>637</ele>
        <time>2021-08-27T08:38:11Z</time>
      </trkpt>
      <trkpt lat="44.42375" lon="3.01566">
        <ele>638</ele>
        <time>2021-08-27T08:38:41Z</time>
      </trkpt>
      <trkpt lat="44.42393" lon="3.01567">
        <ele>639</ele>
        <time>2021-08-27T08:38:47Z</time>
      </trkpt>
      <trkpt lat="44.42398" lon="3.01568">
        <ele>640</ele>
        <time>2021-08-27T08:38:49Z</time>
      </trkpt>
      <trkpt lat="44.42452" lon="3.01577">
        <ele>644</ele>
        <time>2021-08-27T08:39:09Z</time>
      </trkpt>
      <trkpt lat="44.42456" lon="3.01579">
        <ele>644</ele>
        <time>2021-08-27T08:39:11Z</time>
      </trkpt>
      <trkpt lat="44.42488" lon="3.01585">
        <ele>644</ele>
        <time>2021-08-27T08:39:23Z</time>
      </trkpt>
      <trkpt lat="44.42493" lon="3.01587">
        <ele>645</ele>
        <time>2021-08-27T08:39:25Z</time>
      </trkpt>
      <trkpt lat="44.42512" lon="3.01594">
        <ele>646</ele>
        <time>2021-08-27T08:39:31Z</time>
      </trkpt>
      <trkpt lat="44.42591" lon="3.0162">
        <ele>647</ele>
        <time>2021-08-27T08:40:00Z</time>
      </trkpt>
      <trkpt lat="44.42621" lon="3.0163">
        <ele>650</ele>
        <time>2021-08-27T08:40:12Z</time>
      </trkpt>
      <trkpt lat="44.42698" lon="3.01661">
        <ele>650</ele>
        <time>2021-08-27T08:40:42Z</time>
      </trkpt>
      <trkpt lat="44.42776" lon="3.01684">
        <ele>656</ele>
        <time>2021-08-27T08:41:14Z</time>
      </trkpt>
      <trkpt lat="44.4285" lon="3.01712">
        <ele>660</ele>
        <time>2021-08-27T08:41:45Z</time>
      </trkpt>
      <trkpt lat="44.42906" lon="3.01727">
        <ele>663</ele>
        <time>2021-08-27T08:42:09Z</time>
      </trkpt>
      <trkpt lat="44.42958" lon="3.01718">
        <ele>665</ele>
        <time>2021-08-27T08:42:29Z</time>
      </trkpt>
      <trkpt lat="44.43029" lon="3.01666">
        <ele>671</ele>
        <time>2021-08-27T08:43:01Z</time>
      </trkpt>
      <trkpt lat="44.43095" lon="3.01613">
        <ele>675</ele>
        <time>2021-08-27T08:43:32Z</time>
      </trkpt>
      <trkpt lat="44.43127" lon="3.01595">
        <ele>678</ele>
        <time>2021-08-27T08:43:46Z</time>
      </trkpt>
      <trkpt lat="44.43146" lon="3.01591">
        <ele>679</ele>
        <time>2021-08-27T08:43:54Z</time>
      </trkpt>
      <trkpt lat="44.43166" lon="3.01593">
        <ele>680</ele>
        <time>2021-08-27T08:44:02Z</time>
      </trkpt>
      <trkpt lat="44.43185" lon="3.01602">
        <ele>681</ele>
        <time>2021-08-27T08:44:10Z</time>
      </trkpt>
      <trkpt lat="44.43204" lon="3.01625">
        <ele>682</ele>
        <time>2021-08-27T08:44:22Z</time>
      </trkpt>
      <trkpt lat="44.43233" lon="3.0167">
        <ele>682</ele>
        <time>2021-08-27T08:44:41Z</time>
      </trkpt>
      <trkpt lat="44.4324" lon="3.01678">
        <ele>682</ele>
        <time>2021-08-27T08:44:45Z</time>
      </trkpt>
      <trkpt lat="44.43257" lon="3.0169">
        <ele>683</ele>
        <time>2021-08-27T08:44:53Z</time>
      </trkpt>
      <trkpt lat="44.43273" lon="3.01696">
        <ele>685</ele>
        <time>2021-08-27T08:45:01Z</time>
      </trkpt>
      <trkpt lat="44.43293" lon="3.01692">
        <ele>688</ele>
        <time>2021-08-27T08:45:13Z</time>
      </trkpt>
      <trkpt lat="44.43304" lon="3.01686">
        <ele>689</ele>
        <time>2021-08-27T08:45:19Z</time>
      </trkpt>
      <trkpt lat="44.4332" lon="3.01674">
        <ele>691</ele>
        <time>2021-08-27T08:45:27Z</time>
      </trkpt>
      <trkpt lat="44.43331" lon="3.01655">
        <ele>693</ele>
        <time>2021-08-27T08:45:35Z</time>
      </trkpt>
      <trkpt lat="44.4336" lon="3.01571">
        <ele>700</ele>
        <time>2021-08-27T08:46:05Z</time>
      </trkpt>
      <trkpt lat="44.43367" lon="3.01554">
        <ele>701</ele>
        <time>2021-08-27T08:46:11Z</time>
      </trkpt>
      <trkpt lat="44.43375" lon="3.01542">
        <ele>702</ele>
        <time>2021-08-27T08:46:16Z</time>
      </trkpt>
      <trkpt lat="44.43437" lon="3.01493">
        <ele>706</ele>
        <time>2021-08-27T08:46:47Z</time>
      </trkpt>
      <trkpt lat="44.4346" lon="3.01467">
        <ele>707</ele>
        <time>2021-08-27T08:47:00Z</time>
      </trkpt>
      <trkpt lat="44.43491" lon="3.01415">
        <ele>711</ele>
        <time>2021-08-27T08:47:18Z</time>
      </trkpt>
      <trkpt lat="44.43512" lon="3.01371">
        <ele>713</ele>
        <time>2021-08-27T08:47:32Z</time>
      </trkpt>
      <trkpt lat="44.43516" lon="3.01364">
        <ele>714</ele>
        <time>2021-08-27T08:47:34Z</time>
      </trkpt>
      <trkpt lat="44.43539" lon="3.01304">
        <ele>713</ele>
        <time>2021-08-27T08:47:46Z</time>
      </trkpt>
      <trkpt lat="44.43545" lon="3.01235">
        <ele>713</ele>
        <time>2021-08-27T08:47:57Z</time>
      </trkpt>
      <trkpt lat="44.43546" lon="3.01214">
        <ele>712</ele>
        <time>2021-08-27T08:48:00Z</time>
      </trkpt>
      <trkpt lat="44.43548" lon="3.01193">
        <ele>712</ele>
        <time>2021-08-27T08:48:03Z</time>
      </trkpt>
      <trkpt lat="44.43623" lon="3.01015">
        <ele>709</ele>
        <time>2021-08-27T08:48:30Z</time>
      </trkpt>
      <trkpt lat="44.43742" lon="3.00837">
        <ele>703</ele>
        <time>2021-08-27T08:49:01Z</time>
      </trkpt>
      <trkpt lat="44.43774" lon="3.00791">
        <ele>702</ele>
        <time>2021-08-27T08:49:09Z</time>
      </trkpt>
      <trkpt lat="44.43794" lon="3.0076">
        <ele>701</ele>
        <time>2021-08-27T08:49:14Z</time>
      </trkpt>
      <trkpt lat="44.43816" lon="3.00736">
        <ele>700</ele>
        <time>2021-08-27T08:49:19Z</time>
      </trkpt>
      <trkpt lat="44.43906" lon="3.0069">
        <ele>699</ele>
        <time>2021-08-27T08:49:35Z</time>
      </trkpt>
      <trkpt lat="44.43915" lon="3.00679">
        <ele>699</ele>
        <time>2021-08-27T08:49:37Z</time>
      </trkpt>
      <trkpt lat="44.43923" lon="3.00667">
        <ele>699</ele>
        <time>2021-08-27T08:49:39Z</time>
      </trkpt>
      <trkpt lat="44.43929" lon="3.00652">
        <ele>699</ele>
        <time>2021-08-27T08:49:41Z</time>
      </trkpt>
      <trkpt lat="44.4394" lon="3.00545">
        <ele>699</ele>
        <time>2021-08-27T08:49:55Z</time>
      </trkpt>
      <trkpt lat="44.43953" lon="3.00482">
        <ele>699</ele>
        <time>2021-08-27T08:50:03Z</time>
      </trkpt>
      <trkpt lat="44.43961" lon="3.00468">
        <ele>699</ele>
        <time>2021-08-27T08:50:05Z</time>
      </trkpt>
      <trkpt lat="44.43971" lon="3.00457">
        <ele>699</ele>
        <time>2021-08-27T08:50:07Z</time>
      </trkpt>
      <trkpt lat="44.43999" lon="3.00447">
        <ele>700</ele>
        <time>2021-08-27T08:50:11Z</time>
      </trkpt>
      <trkpt lat="44.44023" lon="3.00449">
        <ele>699</ele>
        <time>2021-08-27T08:50:15Z</time>
      </trkpt>
      <trkpt lat="44.44035" lon="3.00452">
        <ele>699</ele>
        <time>2021-08-27T08:50:17Z</time>
      </trkpt>
      <trkpt lat="44.44078" lon="3.00478">
        <ele>698</ele>
        <time>2021-08-27T08:50:25Z</time>
      </trkpt>
      <trkpt lat="44.44087" lon="3.00488">
        <ele>697</ele>
        <time>2021-08-27T08:50:27Z</time>
      </trkpt>
      <trkpt lat="44.44114" lon="3.00535">
        <ele>696</ele>
        <time>2021-08-27T08:50:34Z</time>
      </trkpt>
      <trkpt lat="44.44125" lon="3.00544">
        <ele>696</ele>
        <time>2021-08-27T08:50:36Z</time>
      </trkpt>
      <trkpt lat="44.44137" lon="3.0055">
        <ele>696</ele>
        <time>2021-08-27T08:50:38Z</time>
      </trkpt>
      <trkpt lat="44.44156" lon="3.00552">
        <ele>695</ele>
        <time>2021-08-27T08:50:41Z</time>
      </trkpt>
      <trkpt lat="44.44173" lon="3.00547">
        <ele>694</ele>
        <time>2021-08-27T08:50:44Z</time>
      </trkpt>
      <trkpt lat="44.44191" lon="3.00538">
        <ele>694</ele>
        <time>2021-08-27T08:50:47Z</time>
      </trkpt>
      <trkpt lat="44.442" lon="3.00529">
        <ele>693</ele>
        <time>2021-08-27T08:50:49Z</time>
      </trkpt>
      <trkpt lat="44.44211" lon="3.00509">
        <ele>691</ele>
        <time>2021-08-27T08:50:52Z</time>
      </trkpt>
      <trkpt lat="44.44224" lon="3.00452">
        <ele>687</ele>
        <time>2021-08-27T08:50:59Z</time>
      </trkpt>
      <trkpt lat="44.44227" lon="3.00447">
        <ele>687</ele>
        <time>2021-08-27T08:51:00Z</time>
      </trkpt>
      <trkpt lat="44.44232" lon="3.00443">
        <ele>686</ele>
        <time>2021-08-27T08:51:01Z</time>
      </trkpt>
      <trkpt lat="44.44254" lon="3.00439">
        <ele>686</ele>
        <time>2021-08-27T08:51:05Z</time>
      </trkpt>
      <trkpt lat="44.44304" lon="3.00408">
        <ele>684</ele>
        <time>2021-08-27T08:51:13Z</time>
      </trkpt>
      <trkpt lat="44.44484" lon="3.00284">
        <ele>678</ele>
        <time>2021-08-27T08:51:43Z</time>
      </trkpt>
      <trkpt lat="44.44508" lon="3.00264">
        <ele>678</ele>
        <time>2021-08-27T08:51:47Z</time>
      </trkpt>
      <trkpt lat="44.44518" lon="3.00252">
        <ele>678</ele>
        <time>2021-08-27T08:51:49Z</time>
      </trkpt>
      <trkpt lat="44.44525" lon="3.00236">
        <ele>678</ele>
        <time>2021-08-27T08:51:51Z</time>
      </trkpt>
      <trkpt lat="44.44552" lon="3.00103">
        <ele>673</ele>
        <time>2021-08-27T08:52:04Z</time>
      </trkpt>
      <trkpt lat="44.44553" lon="3.00082">
        <ele>672</ele>
        <time>2021-08-27T08:52:06Z</time>
      </trkpt>
      <trkpt lat="44.44551" lon="3.00061">
        <ele>671</ele>
        <time>2021-08-27T08:52:08Z</time>
      </trkpt>
      <trkpt lat="44.44542" lon="3.00029">
        <ele>669</ele>
        <time>2021-08-27T08:52:11Z</time>
      </trkpt>
      <trkpt lat="44.44517" lon="2.99968">
        <ele>665</ele>
        <time>2021-08-27T08:52:17Z</time>
      </trkpt>
      <trkpt lat="44.44475" lon="2.99802">
        <ele>653</ele>
        <time>2021-08-27T08:52:33Z</time>
      </trkpt>
      <trkpt lat="44.44475" lon="2.99791">
        <ele>652</ele>
        <time>2021-08-27T08:52:34Z</time>
      </trkpt>
      <trkpt lat="44.44485" lon="2.99745">
        <ele>651</ele>
        <time>2021-08-27T08:52:38Z</time>
      </trkpt>
      <trkpt lat="44.44548" lon="2.99543">
        <ele>647</ele>
        <time>2021-08-27T08:52:57Z</time>
      </trkpt>
      <trkpt lat="44.44552" lon="2.99536">
        <ele>647</ele>
        <time>2021-08-27T08:52:58Z</time>
      </trkpt>
      <trkpt lat="44.44558" lon="2.99531">
        <ele>645</ele>
        <time>2021-08-27T08:52:59Z</time>
      </trkpt>
      <trkpt lat="44.44565" lon="2.99527">
        <ele>644</ele>
        <time>2021-08-27T08:53:00Z</time>
      </trkpt>
      <trkpt lat="44.44581" lon="2.99524">
        <ele>644</ele>
        <time>2021-08-27T08:53:02Z</time>
      </trkpt>
      <trkpt lat="44.44647" lon="2.99544">
        <ele>640</ele>
        <time>2021-08-27T08:53:10Z</time>
      </trkpt>
      <trkpt lat="44.44692" lon="2.9954">
        <ele>638</ele>
        <time>2021-08-27T08:53:16Z</time>
      </trkpt>
      <trkpt lat="44.44704" lon="2.99535">
        <ele>636</ele>
        <time>2021-08-27T08:53:18Z</time>
      </trkpt>
      <trkpt lat="44.4471" lon="2.99529">
        <ele>636</ele>
        <time>2021-08-27T08:53:19Z</time>
      </trkpt>
      <trkpt lat="44.44715" lon="2.9952">
        <ele>635</ele>
        <time>2021-08-27T08:53:20Z</time>
      </trkpt>
      <trkpt lat="44.44719" lon="2.9951">
        <ele>635</ele>
        <time>2021-08-27T08:53:21Z</time>
      </trkpt>
      <trkpt lat="44.44719" lon="2.995">
        <ele>635</ele>
        <time>2021-08-27T08:53:22Z</time>
      </trkpt>
      <trkpt lat="44.44675" lon="2.99325">
        <ele>625</ele>
        <time>2021-08-27T08:53:40Z</time>
      </trkpt>
      <trkpt lat="44.44654" lon="2.99279">
        <ele>622</ele>
        <time>2021-08-27T08:53:45Z</time>
      </trkpt>
      <trkpt lat="44.44653" lon="2.9927">
        <ele>622</ele>
        <time>2021-08-27T08:53:46Z</time>
      </trkpt>
      <trkpt lat="44.44654" lon="2.99259">
        <ele>621</ele>
        <time>2021-08-27T08:53:47Z</time>
      </trkpt>
      <trkpt lat="44.44658" lon="2.99246">
        <ele>622</ele>
        <time>2021-08-27T08:53:48Z</time>
      </trkpt>
      <trkpt lat="44.44678" lon="2.99219">
        <ele>621</ele>
        <time>2021-08-27T08:53:51Z</time>
      </trkpt>
      <trkpt lat="44.44748" lon="2.99171">
        <ele>616</ele>
        <time>2021-08-27T08:54:00Z</time>
      </trkpt>
      <trkpt lat="44.4482" lon="2.99094">
        <ele>604</ele>
        <time>2021-08-27T08:54:11Z</time>
      </trkpt>
      <trkpt lat="44.44827" lon="2.9909">
        <ele>603</ele>
        <time>2021-08-27T08:54:12Z</time>
      </trkpt>
      <trkpt lat="44.44845" lon="2.99085">
        <ele>601</ele>
        <time>2021-08-27T08:54:15Z</time>
      </trkpt>
      <trkpt lat="44.44875" lon="2.99063">
        <ele>601</ele>
        <time>2021-08-27T08:54:19Z</time>
      </trkpt>
      <trkpt lat="44.44912" lon="2.99048">
        <ele>601</ele>
        <time>2021-08-27T08:54:24Z</time>
      </trkpt>
      <trkpt lat="44.44919" lon="2.99026">
        <ele>600</ele>
        <time>2021-08-27T08:54:27Z</time>
      </trkpt>
      <trkpt lat="44.44874" lon="2.99007">
        <ele>601</ele>
        <time>2021-08-27T08:54:34Z</time>
      </trkpt>
      <trkpt lat="44.44839" lon="2.98991">
        <ele>596</ele>
        <time>2021-08-27T08:54:39Z</time>
      </trkpt>
      <trkpt lat="44.44825" lon="2.98985">
        <ele>597</ele>
        <time>2021-08-27T08:54:41Z</time>
      </trkpt>
      <trkpt lat="44.44785" lon="2.99">
        <ele>597</ele>
        <time>2021-08-27T08:54:46Z</time>
      </trkpt>
      <trkpt lat="44.44772" lon="2.99006">
        <ele>597</ele>
        <time>2021-08-27T08:54:48Z</time>
      </trkpt>
      <trkpt lat="44.44757" lon="2.99003">
        <ele>597</ele>
        <time>2021-08-27T08:54:50Z</time>
      </trkpt>
      <trkpt lat="44.44735" lon="2.9899">
        <ele>595</ele>
        <time>2021-08-27T08:54:53Z</time>
      </trkpt>
      <trkpt lat="44.4464" lon="2.9894">
        <ele>592</ele>
        <time>2021-08-27T08:55:06Z</time>
      </trkpt>
      <trkpt lat="44.44635" lon="2.98936">
        <ele>591</ele>
        <time>2021-08-27T08:55:07Z</time>
      </trkpt>
      <trkpt lat="44.44632" lon="2.98928">
        <ele>591</ele>
        <time>2021-08-27T08:55:08Z</time>
      </trkpt>
      <trkpt lat="44.44629" lon="2.98921">
        <ele>591</ele>
        <time>2021-08-27T08:55:09Z</time>
      </trkpt>
      <trkpt lat="44.44627" lon="2.9889">
        <ele>589</ele>
        <time>2021-08-27T08:55:12Z</time>
      </trkpt>
      <trkpt lat="44.44639" lon="2.98835">
        <ele>585</ele>
        <time>2021-08-27T08:55:17Z</time>
      </trkpt>
      <trkpt lat="44.44643" lon="2.98826">
        <ele>584</ele>
        <time>2021-08-27T08:55:18Z</time>
      </trkpt>
      <trkpt lat="44.44662" lon="2.98796">
        <ele>580</ele>
        <time>2021-08-27T08:55:22Z</time>
      </trkpt>
      <trkpt lat="44.44673" lon="2.98785">
        <ele>579</ele>
        <time>2021-08-27T08:55:24Z</time>
      </trkpt>
      <trkpt lat="44.44701" lon="2.98769">
        <ele>575</ele>
        <time>2021-08-27T08:55:29Z</time>
      </trkpt>
      <trkpt lat="44.44719" lon="2.98758">
        <ele>573</ele>
        <time>2021-08-27T08:55:35Z</time>
      </trkpt>
      <trkpt lat="44.44744" lon="2.98733">
        <ele>565</ele>
        <time>2021-08-27T08:55:47Z</time>
      </trkpt>
      <trkpt lat="44.44747" lon="2.98723">
        <ele>567</ele>
        <time>2021-08-27T08:55:50Z</time>
      </trkpt>
      <trkpt lat="44.44758" lon="2.98706">
        <ele>567</ele>
        <time>2021-08-27T08:55:56Z</time>
      </trkpt>
      <trkpt lat="44.44767" lon="2.98683">
        <ele>567</ele>
        <time>2021-08-27T08:56:03Z</time>
      </trkpt>
      <trkpt lat="44.44769" lon="2.98675">
        <ele>567</ele>
        <time>2021-08-27T08:56:05Z</time>
      </trkpt>
      <trkpt lat="44.44769" lon="2.98667">
        <ele>566</ele>
        <time>2021-08-27T08:56:07Z</time>
      </trkpt>
      <trkpt lat="44.44745" lon="2.98623">
        <ele>562</ele>
        <time>2021-08-27T08:56:16Z</time>
      </trkpt>
      <trkpt lat="44.44733" lon="2.98607">
        <ele>560</ele>
        <time>2021-08-27T08:56:19Z</time>
      </trkpt>
      <trkpt lat="44.44724" lon="2.98589">
        <ele>560</ele>
        <time>2021-08-27T08:56:22Z</time>
      </trkpt>
      <trkpt lat="44.44721" lon="2.9858">
        <ele>559</ele>
        <time>2021-08-27T08:56:23Z</time>
      </trkpt>
      <trkpt lat="44.44719" lon="2.98572">
        <ele>559</ele>
        <time>2021-08-27T08:56:24Z</time>
      </trkpt>
      <trkpt lat="44.4472" lon="2.98563">
        <ele>558</ele>
        <time>2021-08-27T08:56:25Z</time>
      </trkpt>
      <trkpt lat="44.44722" lon="2.98555">
        <ele>558</ele>
        <time>2021-08-27T08:56:26Z</time>
      </trkpt>
      <trkpt lat="44.44735" lon="2.98531">
        <ele>557</ele>
        <time>2021-08-27T08:56:29Z</time>
      </trkpt>
      <trkpt lat="44.44752" lon="2.98518">
        <ele>555</ele>
        <time>2021-08-27T08:56:32Z</time>
      </trkpt>
      <trkpt lat="44.44764" lon="2.98515">
        <ele>554</ele>
        <time>2021-08-27T08:56:34Z</time>
      </trkpt>
      <trkpt lat="44.44793" lon="2.98513">
        <ele>554</ele>
        <time>2021-08-27T08:56:39Z</time>
      </trkpt>
      <trkpt lat="44.44807" lon="2.985">
        <ele>554</ele>
        <time>2021-08-27T08:56:42Z</time>
      </trkpt>
      <trkpt lat="44.44816" lon="2.98475">
        <ele>554</ele>
        <time>2021-08-27T08:56:45Z</time>
      </trkpt>
      <trkpt lat="44.44816" lon="2.98466">
        <ele>554</ele>
        <time>2021-08-27T08:56:46Z</time>
      </trkpt>
      <trkpt lat="44.44813" lon="2.98459">
        <ele>553</ele>
        <time>2021-08-27T08:56:47Z</time>
      </trkpt>
      <trkpt lat="44.4481" lon="2.98452">
        <ele>553</ele>
        <time>2021-08-27T08:56:48Z</time>
      </trkpt>
      <trkpt lat="44.44779" lon="2.98424">
        <ele>550</ele>
        <time>2021-08-27T08:56:53Z</time>
      </trkpt>
      <trkpt lat="44.44765" lon="2.98415">
        <ele>548</ele>
        <time>2021-08-27T08:56:55Z</time>
      </trkpt>
      <trkpt lat="44.44741" lon="2.98398">
        <ele>545</ele>
        <time>2021-08-27T08:56:59Z</time>
      </trkpt>
      <trkpt lat="44.44736" lon="2.98392">
        <ele>545</ele>
        <time>2021-08-27T08:57:00Z</time>
      </trkpt>
      <trkpt lat="44.44734" lon="2.98383">
        <ele>544</ele>
        <time>2021-08-27T08:57:01Z</time>
      </trkpt>
      <trkpt lat="44.44735" lon="2.98359">
        <ele>543</ele>
        <time>2021-08-27T08:57:03Z</time>
      </trkpt>
      <trkpt lat="44.44738" lon="2.98348">
        <ele>543</ele>
        <time>2021-08-27T08:57:04Z</time>
      </trkpt>
      <trkpt lat="44.44746" lon="2.98326">
        <ele>539</ele>
        <time>2021-08-27T08:57:06Z</time>
      </trkpt>
      <trkpt lat="44.44799" lon="2.98141">
        <ele>534</ele>
        <time>2021-08-27T08:57:23Z</time>
      </trkpt>
      <trkpt lat="44.44823" lon="2.98095">
        <ele>533</ele>
        <time>2021-08-27T08:57:28Z</time>
      </trkpt>
      <trkpt lat="44.44833" lon="2.98061">
        <ele>533</ele>
        <time>2021-08-27T08:57:31Z</time>
      </trkpt>
      <trkpt lat="44.44853" lon="2.97878">
        <ele>524</ele>
        <time>2021-08-27T08:57:50Z</time>
      </trkpt>
      <trkpt lat="44.44862" lon="2.97848">
        <ele>524</ele>
        <time>2021-08-27T08:57:53Z</time>
      </trkpt>
      <trkpt lat="44.44876" lon="2.97824">
        <ele>523</ele>
        <time>2021-08-27T08:57:56Z</time>
      </trkpt>
      <trkpt lat="44.44914" lon="2.97787">
        <ele>517</ele>
        <time>2021-08-27T08:58:05Z</time>
      </trkpt>
      <trkpt lat="44.44928" lon="2.97778">
        <ele>515</ele>
        <time>2021-08-27T08:58:08Z</time>
      </trkpt>
      <trkpt lat="44.45068" lon="2.97765">
        <ele>515</ele>
        <time>2021-08-27T08:58:26Z</time>
      </trkpt>
      <trkpt lat="44.4509" lon="2.97755">
        <ele>514</ele>
        <time>2021-08-27T08:58:29Z</time>
      </trkpt>
      <trkpt lat="44.45125" lon="2.97752">
        <ele>513</ele>
        <time>2021-08-27T08:58:33Z</time>
      </trkpt>
      <trkpt lat="44.45256" lon="2.9778">
        <ele>513</ele>
        <time>2021-08-27T08:58:48Z</time>
      </trkpt>
      <trkpt lat="44.45271" lon="2.97789">
        <ele>512</ele>
        <time>2021-08-27T08:58:50Z</time>
      </trkpt>
      <trkpt lat="44.45277" lon="2.97794">
        <ele>511</ele>
        <time>2021-08-27T08:58:51Z</time>
      </trkpt>
      <trkpt lat="44.45293" lon="2.97821">
        <ele>509</ele>
        <time>2021-08-27T08:58:54Z</time>
      </trkpt>
      <trkpt lat="44.45303" lon="2.97851">
        <ele>506</ele>
        <time>2021-08-27T08:58:57Z</time>
      </trkpt>
      <trkpt lat="44.45313" lon="2.97869">
        <ele>505</ele>
        <time>2021-08-27T08:58:59Z</time>
      </trkpt>
      <trkpt lat="44.45336" lon="2.97889">
        <ele>504</ele>
        <time>2021-08-27T08:59:03Z</time>
      </trkpt>
      <trkpt lat="44.45343" lon="2.97896">
        <ele>504</ele>
        <time>2021-08-27T08:59:04Z</time>
      </trkpt>
      <trkpt lat="44.45357" lon="2.97948">
        <ele>501</ele>
        <time>2021-08-27T08:59:09Z</time>
      </trkpt>
      <trkpt lat="44.4536" lon="2.97957">
        <ele>501</ele>
        <time>2021-08-27T08:59:10Z</time>
      </trkpt>
      <trkpt lat="44.4537" lon="2.97966">
        <ele>501</ele>
        <time>2021-08-27T08:59:12Z</time>
      </trkpt>
      <trkpt lat="44.45376" lon="2.97963">
        <ele>502</ele>
        <time>2021-08-27T08:59:13Z</time>
      </trkpt>
      <trkpt lat="44.45383" lon="2.97957">
        <ele>503</ele>
        <time>2021-08-27T08:59:14Z</time>
      </trkpt>
      <trkpt lat="44.454" lon="2.97836">
        <ele>497</ele>
        <time>2021-08-27T08:59:25Z</time>
      </trkpt>
      <trkpt lat="44.45404" lon="2.97827">
        <ele>497</ele>
        <time>2021-08-27T08:59:26Z</time>
      </trkpt>
      <trkpt lat="44.45409" lon="2.97819">
        <ele>496</ele>
        <time>2021-08-27T08:59:27Z</time>
      </trkpt>
      <trkpt lat="44.45416" lon="2.97815">
        <ele>496</ele>
        <time>2021-08-27T08:59:28Z</time>
      </trkpt>
      <trkpt lat="44.45434" lon="2.97816">
        <ele>494</ele>
        <time>2021-08-27T08:59:30Z</time>
      </trkpt>
      <trkpt lat="44.45442" lon="2.97819">
        <ele>493</ele>
        <time>2021-08-27T08:59:31Z</time>
      </trkpt>
      <trkpt lat="44.45468" lon="2.9784">
        <ele>493</ele>
        <time>2021-08-27T08:59:34Z</time>
      </trkpt>
      <trkpt lat="44.45483" lon="2.97861">
        <ele>491</ele>
        <time>2021-08-27T08:59:36Z</time>
      </trkpt>
      <trkpt lat="44.45491" lon="2.97869">
        <ele>491</ele>
        <time>2021-08-27T08:59:37Z</time>
      </trkpt>
      <trkpt lat="44.45499" lon="2.97877">
        <ele>489</ele>
        <time>2021-08-27T08:59:38Z</time>
      </trkpt>
      <trkpt lat="44.45517" lon="2.97881">
        <ele>486</ele>
        <time>2021-08-27T08:59:40Z</time>
      </trkpt>
      <trkpt lat="44.45572" lon="2.97866">
        <ele>478</ele>
        <time>2021-08-27T08:59:47Z</time>
      </trkpt>
      <trkpt lat="44.45593" lon="2.97848">
        <ele>475</ele>
        <time>2021-08-27T08:59:50Z</time>
      </trkpt>
      <trkpt lat="44.45615" lon="2.9783">
        <ele>472</ele>
        <time>2021-08-27T08:59:53Z</time>
      </trkpt>
      <trkpt lat="44.45631" lon="2.97821">
        <ele>472</ele>
        <time>2021-08-27T08:59:55Z</time>
      </trkpt>
      <trkpt lat="44.4567" lon="2.9783">
        <ele>470</ele>
        <time>2021-08-27T09:00:00Z</time>
      </trkpt>
      <trkpt lat="44.45685" lon="2.97843">
        <ele>468</ele>
        <time>2021-08-27T09:00:02Z</time>
      </trkpt>
      <trkpt lat="44.45701" lon="2.97865">
        <ele>465</ele>
        <time>2021-08-27T09:00:05Z</time>
      </trkpt>
      <trkpt lat="44.45715" lon="2.97875">
        <ele>464</ele>
        <time>2021-08-27T09:00:07Z</time>
      </trkpt>
      <trkpt lat="44.45788" lon="2.97879">
        <ele>462</ele>
        <time>2021-08-27T09:00:15Z</time>
      </trkpt>
      <trkpt lat="44.45796" lon="2.97883">
        <ele>462</ele>
        <time>2021-08-27T09:00:16Z</time>
      </trkpt>
      <trkpt lat="44.45803" lon="2.9789">
        <ele>462</ele>
        <time>2021-08-27T09:00:17Z</time>
      </trkpt>
      <trkpt lat="44.4582" lon="2.97932">
        <ele>459</ele>
        <time>2021-08-27T09:00:21Z</time>
      </trkpt>
      <trkpt lat="44.45824" lon="2.97942">
        <ele>458</ele>
        <time>2021-08-27T09:00:22Z</time>
      </trkpt>
      <trkpt lat="44.45832" lon="2.9795">
        <ele>458</ele>
        <time>2021-08-27T09:00:23Z</time>
      </trkpt>
      <trkpt lat="44.4584" lon="2.97955">
        <ele>458</ele>
        <time>2021-08-27T09:00:24Z</time>
      </trkpt>
      <trkpt lat="44.45852" lon="2.97956">
        <ele>456</ele>
        <time>2021-08-27T09:00:26Z</time>
      </trkpt>
      <trkpt lat="44.45862" lon="2.97951">
        <ele>455</ele>
        <time>2021-08-27T09:00:28Z</time>
      </trkpt>
      <trkpt lat="44.45873" lon="2.9794">
        <ele>455</ele>
        <time>2021-08-27T09:00:30Z</time>
      </trkpt>
      <trkpt lat="44.45877" lon="2.97927">
        <ele>454</ele>
        <time>2021-08-27T09:00:32Z</time>
      </trkpt>
      <trkpt lat="44.4589" lon="2.97888">
        <ele>450</ele>
        <time>2021-08-27T09:00:38Z</time>
      </trkpt>
      <trkpt lat="44.45893" lon="2.97882">
        <ele>449</ele>
        <time>2021-08-27T09:00:39Z</time>
      </trkpt>
      <trkpt lat="44.45966" lon="2.97809">
        <ele>440</ele>
        <time>2021-08-27T09:01:01Z</time>
      </trkpt>
      <trkpt lat="44.45992" lon="2.97792">
        <ele>438</ele>
        <time>2021-08-27T09:01:09Z</time>
      </trkpt>
      <trkpt lat="44.46001" lon="2.97785">
        <ele>438</ele>
        <time>2021-08-27T09:01:13Z</time>
      </trkpt>
      <trkpt lat="44.4601" lon="2.97778">
        <ele>437</ele>
        <time>2021-08-27T09:01:17Z</time>
      </trkpt>
      <trkpt lat="44.4602" lon="2.97771">
        <ele>436</ele>
        <time>2021-08-27T09:01:21Z</time>
      </trkpt>
      <trkpt lat="44.46042" lon="2.97754">
        <ele>433</ele>
        <time>2021-08-27T09:01:27Z</time>
      </trkpt>
      <trkpt lat="44.46056" lon="2.9774">
        <ele>431</ele>
        <time>2021-08-27T09:01:31Z</time>
      </trkpt>
      <trkpt lat="44.461" lon="2.97708">
        <ele>427</ele>
        <time>2021-08-27T09:01:42Z</time>
      </trkpt>
      <trkpt lat="44.46108" lon="2.977">
        <ele>427</ele>
        <time>2021-08-27T09:01:44Z</time>
      </trkpt>
      <trkpt lat="44.46189" lon="2.97641">
        <ele>428</ele>
        <time>2021-08-27T09:02:04Z</time>
      </trkpt>
      <trkpt lat="44.46197" lon="2.97631">
        <ele>428</ele>
        <time>2021-08-27T09:02:06Z</time>
      </trkpt>
      <trkpt lat="44.46325" lon="2.97528">
        <ele>421</ele>
        <time>2021-08-27T09:02:38Z</time>
      </trkpt>
      <trkpt lat="44.46333" lon="2.97524">
        <ele>422</ele>
        <time>2021-08-27T09:02:40Z</time>
      </trkpt>
      <trkpt lat="44.4634" lon="2.97519">
        <ele>422</ele>
        <time>2021-08-27T09:02:42Z</time>
      </trkpt>
      <trkpt lat="44.46351" lon="2.97508">
        <ele>422</ele>
        <time>2021-08-27T09:02:46Z</time>
      </trkpt>
      <trkpt lat="44.4636" lon="2.97503">
        <ele>423</ele>
        <time>2021-08-27T09:03:59Z</time>
      </trkpt>
      <trkpt lat="44.46365" lon="2.97502">
        <ele>423</ele>
        <time>2021-08-27T09:04:01Z</time>
      </trkpt>
      <trkpt lat="44.4637" lon="2.97501">
        <ele>423</ele>
        <time>2021-08-27T09:04:03Z</time>
      </trkpt>
      <trkpt lat="44.46375" lon="2.97495">
        <ele>423</ele>
        <time>2021-08-27T09:04:06Z</time>
      </trkpt>
      <trkpt lat="44.46379" lon="2.97488">
        <ele>423</ele>
        <time>2021-08-27T09:04:08Z</time>
      </trkpt>
      <trkpt lat="44.46385" lon="2.9747">
        <ele>423</ele>
        <time>2021-08-27T09:04:12Z</time>
      </trkpt>
      <trkpt lat="44.46389" lon="2.97461">
        <ele>422</ele>
        <time>2021-08-27T09:04:14Z</time>
      </trkpt>
      <trkpt lat="44.46405" lon="2.97453">
        <ele>421</ele>
        <time>2021-08-27T09:04:20Z</time>
      </trkpt>
      <trkpt lat="44.46452" lon="2.97448">
        <ele>421</ele>
        <time>2021-08-27T09:04:55Z</time>
      </trkpt>
      <trkpt lat="44.46458" lon="2.97445">
        <ele>422</ele>
        <time>2021-08-27T09:04:58Z</time>
      </trkpt>
      <trkpt lat="44.46468" lon="2.97442">
        <ele>420</ele>
        <time>2021-08-27T09:05:02Z</time>
      </trkpt>
      <trkpt lat="44.46473" lon="2.97443">
        <ele>419</ele>
        <time>2021-08-27T09:05:04Z</time>
      </trkpt>
      <trkpt lat="44.46478" lon="2.9744">
        <ele>419</ele>
        <time>2021-08-27T09:05:06Z</time>
      </trkpt>
      <trkpt lat="44.46493" lon="2.97416">
        <ele>410</ele>
        <time>2021-08-27T09:05:17Z</time>
      </trkpt>
      <trkpt lat="44.46504" lon="2.97408">
        <ele>408</ele>
        <time>2021-08-27T09:05:21Z</time>
      </trkpt>
      <trkpt lat="44.46514" lon="2.97397">
        <ele>405</ele>
        <time>2021-08-27T09:05:26Z</time>
      </trkpt>
      <trkpt lat="44.46521" lon="2.97391">
        <ele>402</ele>
        <time>2021-08-27T09:05:29Z</time>
      </trkpt>
      <trkpt lat="44.46524" lon="2.97386">
        <ele>401</ele>
        <time>2021-08-27T09:05:31Z</time>
      </trkpt>
      <trkpt lat="44.46529" lon="2.9738">
        <ele>398</ele>
        <time>2021-08-27T09:05:34Z</time>
      </trkpt>
      <trkpt lat="44.46537" lon="2.97377">
        <ele>396</ele>
        <time>2021-08-27T09:05:37Z</time>
      </trkpt>
      <trkpt lat="44.46546" lon="2.97375">
        <ele>394</ele>
        <time>2021-08-27T09:05:39Z</time>
      </trkpt>
      <trkpt lat="44.4655" lon="2.97369">
        <ele>395</ele>
        <time>2021-08-27T09:05:44Z</time>
      </trkpt>
      <trkpt lat="44.46555" lon="2.97367">
        <ele>397</ele>
        <time>2021-08-27T09:05:49Z</time>
      </trkpt>
      <trkpt lat="44.46561" lon="2.97365">
        <ele>398</ele>
        <time>2021-08-27T09:05:53Z</time>
      </trkpt>
      <trkpt lat="44.46563" lon="2.97372">
        <ele>400</ele>
        <time>2021-08-27T09:06:24Z</time>
      </trkpt>
      <trkpt lat="44.46566" lon="2.97386">
        <ele>404</ele>
        <time>2021-08-27T09:06:34Z</time>
      </trkpt>
      <trkpt lat="44.46584" lon="2.97403">
        <ele>406</ele>
        <time>2021-08-27T09:06:48Z</time>
      </trkpt>
      <trkpt lat="44.46588" lon="2.97406">
        <ele>406</ele>
        <time>2021-08-27T09:06:51Z</time>
      </trkpt>
      <trkpt lat="44.46593" lon="2.97403">
        <ele>406</ele>
        <time>2021-08-27T09:06:54Z</time>
      </trkpt>
      <trkpt lat="44.46601" lon="2.97392">
        <ele>407</ele>
        <time>2021-08-27T09:07:00Z</time>
      </trkpt>
      <trkpt lat="44.46628" lon="2.9738">
        <ele>407</ele>
        <time>2021-08-27T09:07:22Z</time>
      </trkpt>
      <trkpt lat="44.46638" lon="2.97373">
        <ele>410</ele>
        <time>2021-08-27T09:07:34Z</time>
      </trkpt>
      <trkpt lat="44.46642" lon="2.97372">
        <ele>412</ele>
        <time>2021-08-27T09:07:37Z</time>
      </trkpt>
      <trkpt lat="44.46652" lon="2.97366">
        <ele>412</ele>
        <time>2021-08-27T09:07:48Z</time>
      </trkpt>
      <trkpt lat="44.46656" lon="2.97362">
        <ele>411</ele>
        <time>2021-08-27T09:08:00Z</time>
      </trkpt>
      <trkpt lat="44.46687" lon="2.97332">
        <ele>408</ele>
        <time>2021-08-27T09:08:17Z</time>
      </trkpt>
      <trkpt lat="44.46699" lon="2.97327">
        <ele>408</ele>
        <time>2021-08-27T09:08:24Z</time>
      </trkpt>
      <trkpt lat="44.46703" lon="2.97324">
        <ele>409</ele>
        <time>2021-08-27T09:08:28Z</time>
      </trkpt>
      <trkpt lat="44.4671" lon="2.9732">
        <ele>410</ele>
        <time>2021-08-27T09:08:35Z</time>
      </trkpt>
      <trkpt lat="44.4671" lon="2.97317">
        <ele>418</ele>
        <time>2021-08-27T09:23:44Z</time>
      </trkpt>
      <trkpt lat="44.46708" lon="2.97318">
        <ele>418</ele>
        <time>2021-08-27T09:24:06Z</time>
      </trkpt>
      <trkpt lat="44.46704" lon="2.97325">
        <ele>418</ele>
        <time>2021-08-27T09:24:17Z</time>
      </trkpt>
      <trkpt lat="44.46694" lon="2.97336">
        <ele>426</ele>
        <time>2021-08-27T09:24:23Z</time>
      </trkpt>
      <trkpt lat="44.46689" lon="2.9734">
        <ele>426</ele>
        <time>2021-08-27T09:24:25Z</time>
      </trkpt>
      <trkpt lat="44.46667" lon="2.97357">
        <ele>430</ele>
        <time>2021-08-27T09:24:36Z</time>
      </trkpt>
      <trkpt lat="44.46663" lon="2.97337">
        <ele>427</ele>
        <time>2021-08-27T09:24:49Z</time>
      </trkpt>
      <trkpt lat="44.46667" lon="2.97334">
        <ele>427</ele>
        <time>2021-08-27T09:24:52Z</time>
      </trkpt>
      <trkpt lat="44.46656" lon="2.97322">
        <ele>425</ele>
        <time>2021-08-27T09:24:59Z</time>
      </trkpt>
      <trkpt lat="44.46643" lon="2.97317">
        <ele>422</ele>
        <time>2021-08-27T09:25:03Z</time>
      </trkpt>
      <trkpt lat="44.46639" lon="2.9731">
        <ele>419</ele>
        <time>2021-08-27T09:25:05Z</time>
      </trkpt>
      <trkpt lat="44.46636" lon="2.97292">
        <ele>417</ele>
        <time>2021-08-27T09:25:09Z</time>
      </trkpt>
      <trkpt lat="44.46636" lon="2.97285">
        <ele>416</ele>
        <time>2021-08-27T09:25:12Z</time>
      </trkpt>
      <trkpt lat="44.46636" lon="2.97277">
        <ele>415</ele>
        <time>2021-08-27T09:25:15Z</time>
      </trkpt>
      <trkpt lat="44.46633" lon="2.97269">
        <ele>415</ele>
        <time>2021-08-27T09:25:17Z</time>
      </trkpt>
      <trkpt lat="44.46631" lon="2.9726">
        <ele>414</ele>
        <time>2021-08-27T09:25:19Z</time>
      </trkpt>
      <trkpt lat="44.4663" lon="2.97228">
        <ele>407</ele>
        <time>2021-08-27T09:25:28Z</time>
      </trkpt>
      <trkpt lat="44.46632" lon="2.97221">
        <ele>407</ele>
        <time>2021-08-27T09:25:31Z</time>
      </trkpt>
      <trkpt lat="44.46636" lon="2.97215">
        <ele>408</ele>
        <time>2021-08-27T09:25:35Z</time>
      </trkpt>
      <trkpt lat="44.46642" lon="2.97211">
        <ele>411</ele>
        <time>2021-08-27T09:25:38Z</time>
      </trkpt>
      <trkpt lat="44.46646" lon="2.97208">
        <ele>413</ele>
        <time>2021-08-27T09:25:40Z</time>
      </trkpt>
      <trkpt lat="44.4665" lon="2.97204">
        <ele>414</ele>
        <time>2021-08-27T09:25:42Z</time>
      </trkpt>
      <trkpt lat="44.46682" lon="2.97171">
        <ele>423</ele>
        <time>2021-08-27T09:26:02Z</time>
      </trkpt>
      <trkpt lat="44.4669" lon="2.97159">
        <ele>423</ele>
        <time>2021-08-27T09:26:06Z</time>
      </trkpt>
      <trkpt lat="44.46695" lon="2.97156">
        <ele>422</ele>
        <time>2021-08-27T09:26:08Z</time>
      </trkpt>
      <trkpt lat="44.46693" lon="2.97149">
        <ele>422</ele>
        <time>2021-08-27T09:26:13Z</time>
      </trkpt>
      <trkpt lat="44.4667" lon="2.97119">
        <ele>418</ele>
        <time>2021-08-27T09:26:30Z</time>
      </trkpt>
      <trkpt lat="44.46663" lon="2.97107">
        <ele>414</ele>
        <time>2021-08-27T09:26:34Z</time>
      </trkpt>
      <trkpt lat="44.46657" lon="2.97101">
        <ele>409</ele>
        <time>2021-08-27T09:26:37Z</time>
      </trkpt>
      <trkpt lat="44.46653" lon="2.97094">
        <ele>408</ele>
        <time>2021-08-27T09:26:40Z</time>
      </trkpt>
      <trkpt lat="44.46643" lon="2.97087">
        <ele>407</ele>
        <time>2021-08-27T09:26:46Z</time>
      </trkpt>
      <trkpt lat="44.46635" lon="2.97083">
        <ele>405</ele>
        <time>2021-08-27T09:26:50Z</time>
      </trkpt>
      <trkpt lat="44.46628" lon="2.97076">
        <ele>404</ele>
        <time>2021-08-27T09:26:53Z</time>
      </trkpt>
      <trkpt lat="44.46616" lon="2.97066">
        <ele>400</ele>
        <time>2021-08-27T09:26:58Z</time>
      </trkpt>
      <trkpt lat="44.46612" lon="2.97059">
        <ele>399</ele>
        <time>2021-08-27T09:27:00Z</time>
      </trkpt>
      <trkpt lat="44.46608" lon="2.97054">
        <ele>398</ele>
        <time>2021-08-27T09:27:02Z</time>
      </trkpt>
      <trkpt lat="44.46592" lon="2.9704">
        <ele>396</ele>
        <time>2021-08-27T09:27:08Z</time>
      </trkpt>
      <trkpt lat="44.46581" lon="2.97033">
        <ele>395</ele>
        <time>2021-08-27T09:27:12Z</time>
      </trkpt>
      <trkpt lat="44.46524" lon="2.96966">
        <ele>394</ele>
        <time>2021-08-27T09:27:35Z</time>
      </trkpt>
      <trkpt lat="44.46519" lon="2.96961">
        <ele>392</ele>
        <time>2021-08-27T09:27:37Z</time>
      </trkpt>
      <trkpt lat="44.46515" lon="2.96958">
        <ele>392</ele>
        <time>2021-08-27T09:27:39Z</time>
      </trkpt>
      <trkpt lat="44.46511" lon="2.96953">
        <ele>396</ele>
        <time>2021-08-27T09:27:42Z</time>
      </trkpt>
      <trkpt lat="44.46516" lon="2.96951">
        <ele>400</ele>
        <time>2021-08-27T09:29:08Z</time>
      </trkpt>
      <trkpt lat="44.46518" lon="2.96944">
        <ele>405</ele>
        <time>2021-08-27T09:29:18Z</time>
      </trkpt>
      <trkpt lat="44.46512" lon="2.96931">
        <ele>406</ele>
        <time>2021-08-27T09:29:23Z</time>
      </trkpt>
      <trkpt lat="44.46508" lon="2.96928">
        <ele>406</ele>
        <time>2021-08-27T09:29:25Z</time>
      </trkpt>
      <trkpt lat="44.46504" lon="2.96921">
        <ele>407</ele>
        <time>2021-08-27T09:29:28Z</time>
      </trkpt>
      <trkpt lat="44.46479" lon="2.96829">
        <ele>410</ele>
        <time>2021-08-27T09:29:58Z</time>
      </trkpt>
      <trkpt lat="44.46472" lon="2.96819">
        <ele>410</ele>
        <time>2021-08-27T09:30:02Z</time>
      </trkpt>
      <trkpt lat="44.46452" lon="2.9676">
        <ele>411</ele>
        <time>2021-08-27T09:30:22Z</time>
      </trkpt>
      <trkpt lat="44.4645" lon="2.96731">
        <ele>408</ele>
        <time>2021-08-27T09:30:30Z</time>
      </trkpt>
      <trkpt lat="44.46449" lon="2.96723">
        <ele>408</ele>
        <time>2021-08-27T09:30:32Z</time>
      </trkpt>
      <trkpt lat="44.46418" lon="2.96661">
        <ele>414</ele>
        <time>2021-08-27T09:30:52Z</time>
      </trkpt>
      <trkpt lat="44.46416" lon="2.96654">
        <ele>415</ele>
        <time>2021-08-27T09:30:54Z</time>
      </trkpt>
      <trkpt lat="44.46415" lon="2.96631">
        <ele>417</ele>
        <time>2021-08-27T09:31:01Z</time>
      </trkpt>
      <trkpt lat="44.46416" lon="2.96624">
        <ele>418</ele>
        <time>2021-08-27T09:31:04Z</time>
      </trkpt>
      <trkpt lat="44.46417" lon="2.96617">
        <ele>420</ele>
        <time>2021-08-27T09:31:28Z</time>
      </trkpt>
      <trkpt lat="44.46442" lon="2.96603">
        <ele>425</ele>
        <time>2021-08-27T09:31:39Z</time>
      </trkpt>
      <trkpt lat="44.46453" lon="2.96602">
        <ele>426</ele>
        <time>2021-08-27T09:31:44Z</time>
      </trkpt>
      <trkpt lat="44.46457" lon="2.96597">
        <ele>426</ele>
        <time>2021-08-27T09:31:48Z</time>
      </trkpt>
      <trkpt lat="44.46462" lon="2.96598">
        <ele>424</ele>
        <time>2021-08-27T09:32:47Z</time>
      </trkpt>
      <trkpt lat="44.46461" lon="2.9659">
        <ele>423</ele>
        <time>2021-08-27T09:33:29Z</time>
      </trkpt>
      <trkpt lat="44.46466" lon="2.96584">
        <ele>423</ele>
        <time>2021-08-27T09:33:31Z</time>
      </trkpt>
      <trkpt lat="44.46474" lon="2.96569">
        <ele>424</ele>
        <time>2021-08-27T09:33:35Z</time>
      </trkpt>
      <trkpt lat="44.46481" lon="2.96551">
        <ele>427</ele>
        <time>2021-08-27T09:33:39Z</time>
      </trkpt>
      <trkpt lat="44.46486" lon="2.96524">
        <ele>428</ele>
        <time>2021-08-27T09:33:45Z</time>
      </trkpt>
      <trkpt lat="44.46482" lon="2.9635">
        <ele>428</ele>
        <time>2021-08-27T09:34:17Z</time>
      </trkpt>
      <trkpt lat="44.46477" lon="2.96156">
        <ele>435</ele>
        <time>2021-08-27T09:34:47Z</time>
      </trkpt>
      <trkpt lat="44.46469" lon="2.9598">
        <ele>435</ele>
        <time>2021-08-27T09:35:14Z</time>
      </trkpt>
      <trkpt lat="44.46454" lon="2.95852">
        <ele>436</ele>
        <time>2021-08-27T09:35:42Z</time>
      </trkpt>
      <trkpt lat="44.4646" lon="2.95719">
        <ele>430</ele>
        <time>2021-08-27T09:36:12Z</time>
      </trkpt>
      <trkpt lat="44.46463" lon="2.95554">
        <ele>435</ele>
        <time>2021-08-27T09:36:43Z</time>
      </trkpt>
      <trkpt lat="44.4647" lon="2.9546">
        <ele>433</ele>
        <time>2021-08-27T09:36:53Z</time>
      </trkpt>
      <trkpt lat="44.46481" lon="2.95416">
        <ele>433</ele>
        <time>2021-08-27T09:36:57Z</time>
      </trkpt>
      <trkpt lat="44.46509" lon="2.95356">
        <ele>434</ele>
        <time>2021-08-27T09:37:03Z</time>
      </trkpt>
      <trkpt lat="44.46567" lon="2.95246">
        <ele>433</ele>
        <time>2021-08-27T09:37:17Z</time>
      </trkpt>
      <trkpt lat="44.4661" lon="2.95081">
        <ele>432</ele>
        <time>2021-08-27T09:37:41Z</time>
      </trkpt>
      <trkpt lat="44.46614" lon="2.95061">
        <ele>432</ele>
        <time>2021-08-27T09:37:44Z</time>
      </trkpt>
      <trkpt lat="44.46615" lon="2.95026">
        <ele>433</ele>
        <time>2021-08-27T09:37:50Z</time>
      </trkpt>
      <trkpt lat="44.46614" lon="2.94955">
        <ele>433</ele>
        <time>2021-08-27T09:38:02Z</time>
      </trkpt>
      <trkpt lat="44.46616" lon="2.94931">
        <ele>434</ele>
        <time>2021-08-27T09:38:06Z</time>
      </trkpt>
      <trkpt lat="44.46617" lon="2.94921">
        <ele>434</ele>
        <time>2021-08-27T09:38:08Z</time>
      </trkpt>
      <trkpt lat="44.46618" lon="2.94912">
        <ele>435</ele>
        <time>2021-08-27T09:38:10Z</time>
      </trkpt>
      <trkpt lat="44.46614" lon="2.94905">
        <ele>435</ele>
        <time>2021-08-27T09:38:12Z</time>
      </trkpt>
      <trkpt lat="44.46597" lon="2.94897">
        <ele>437</ele>
        <time>2021-08-27T09:38:19Z</time>
      </trkpt>
      <trkpt lat="44.46592" lon="2.94893">
        <ele>438</ele>
        <time>2021-08-27T09:38:22Z</time>
      </trkpt>
      <trkpt lat="44.46587" lon="2.94889">
        <ele>439</ele>
        <time>2021-08-27T09:38:25Z</time>
      </trkpt>
      <trkpt lat="44.46587" lon="2.94882">
        <ele>439</ele>
        <time>2021-08-27T09:38:30Z</time>
      </trkpt>
      <trkpt lat="44.46592" lon="2.94874">
        <ele>439</ele>
        <time>2021-08-27T09:40:29Z</time>
      </trkpt>
      <trkpt lat="44.466" lon="2.94858">
        <ele>438</ele>
        <time>2021-08-27T09:40:32Z</time>
      </trkpt>
      <trkpt lat="44.46657" lon="2.94786">
        <ele>433</ele>
        <time>2021-08-27T09:40:44Z</time>
      </trkpt>
      <trkpt lat="44.4666" lon="2.9478">
        <ele>432</ele>
        <time>2021-08-27T09:40:45Z</time>
      </trkpt>
      <trkpt lat="44.4666" lon="2.94768">
        <ele>431</ele>
        <time>2021-08-27T09:40:47Z</time>
      </trkpt>
      <trkpt lat="44.46651" lon="2.94766">
        <ele>431</ele>
        <time>2021-08-27T09:40:49Z</time>
      </trkpt>
      <trkpt lat="44.46544" lon="2.94844">
        <ele>415</ele>
        <time>2021-08-27T09:41:10Z</time>
      </trkpt>
      <trkpt lat="44.46543" lon="2.94842">
        <ele>416</ele>
        <time>2021-08-27T09:41:38Z</time>
      </trkpt>
      <trkpt lat="44.46538" lon="2.94846">
        <ele>416</ele>
        <time>2021-08-27T09:41:41Z</time>
      </trkpt>
      <trkpt lat="44.46533" lon="2.94847">
        <ele>416</ele>
        <time>2021-08-27T09:41:43Z</time>
      </trkpt>
      <trkpt lat="44.46479" lon="2.9486">
        <ele>418</ele>
        <time>2021-08-27T09:42:08Z</time>
      </trkpt>
      <trkpt lat="44.46467" lon="2.94861">
        <ele>417</ele>
        <time>2021-08-27T09:42:12Z</time>
      </trkpt>
      <trkpt lat="44.46461" lon="2.94863">
        <ele>416</ele>
        <time>2021-08-27T09:42:14Z</time>
      </trkpt>
      <trkpt lat="44.46455" lon="2.94862">
        <ele>416</ele>
        <time>2021-08-27T09:42:16Z</time>
      </trkpt>
      <trkpt lat="44.46449" lon="2.94862">
        <ele>416</ele>
        <time>2021-08-27T09:42:18Z</time>
      </trkpt>
      <trkpt lat="44.46438" lon="2.94863">
        <ele>416</ele>
        <time>2021-08-27T09:42:22Z</time>
      </trkpt>
      <trkpt lat="44.46427" lon="2.94857">
        <ele>416</ele>
        <time>2021-08-27T09:42:26Z</time>
      </trkpt>
      <trkpt lat="44.46391" lon="2.9482">
        <ele>417</ele>
        <time>2021-08-27T09:42:43Z</time>
      </trkpt>
      <trkpt lat="44.4639" lon="2.94812">
        <ele>418</ele>
        <time>2021-08-27T09:42:48Z</time>
      </trkpt>
      <trkpt lat="44.46394" lon="2.94798">
        <ele>418</ele>
        <time>2021-08-27T09:42:53Z</time>
      </trkpt>
      <trkpt lat="44.46398" lon="2.94794">
        <ele>418</ele>
        <time>2021-08-27T09:42:57Z</time>
      </trkpt>
      <trkpt lat="44.46398" lon="2.94787">
        <ele>418</ele>
        <time>2021-08-27T09:43:16Z</time>
      </trkpt>
      <trkpt lat="44.464" lon="2.94772">
        <ele>417</ele>
        <time>2021-08-27T09:43:22Z</time>
      </trkpt>
      <trkpt lat="44.46413" lon="2.9474">
        <ele>413</ele>
        <time>2021-08-27T09:43:37Z</time>
      </trkpt>
      <trkpt lat="44.46422" lon="2.94706">
        <ele>401</ele>
        <time>2021-08-27T09:43:51Z</time>
      </trkpt>
      <trkpt lat="44.46425" lon="2.94701">
        <ele>400</ele>
        <time>2021-08-27T09:43:53Z</time>
      </trkpt>
      <trkpt lat="44.46428" lon="2.94693">
        <ele>401</ele>
        <time>2021-08-27T09:43:56Z</time>
      </trkpt>
      <trkpt lat="44.46429" lon="2.94686">
        <ele>400</ele>
        <time>2021-08-27T09:44:00Z</time>
      </trkpt>
      <trkpt lat="44.46428" lon="2.94673">
        <ele>398</ele>
        <time>2021-08-27T09:44:09Z</time>
      </trkpt>
      <trkpt lat="44.4643" lon="2.94629">
        <ele>392</ele>
        <time>2021-08-27T09:44:30Z</time>
      </trkpt>
      <trkpt lat="44.46432" lon="2.94622">
        <ele>393</ele>
        <time>2021-08-27T09:44:35Z</time>
      </trkpt>
      <trkpt lat="44.4643" lon="2.94615">
        <ele>393</ele>
        <time>2021-08-27T09:44:54Z</time>
      </trkpt>
      <trkpt lat="44.46426" lon="2.94613">
        <ele>395</ele>
        <time>2021-08-27T09:44:57Z</time>
      </trkpt>
      <trkpt lat="44.4642" lon="2.94613">
        <ele>397</ele>
        <time>2021-08-27T09:45:01Z</time>
      </trkpt>
      <trkpt lat="44.46416" lon="2.94619">
        <ele>399</ele>
        <time>2021-08-27T09:45:05Z</time>
      </trkpt>
      <trkpt lat="44.46404" lon="2.94621">
        <ele>400</ele>
        <time>2021-08-27T09:45:30Z</time>
      </trkpt>
      <trkpt lat="44.46388" lon="2.94611">
        <ele>398</ele>
        <time>2021-08-27T09:45:58Z</time>
      </trkpt>
      <trkpt lat="44.46388" lon="2.94604">
        <ele>405</ele>
        <time>2021-08-27T09:46:55Z</time>
      </trkpt>
      <trkpt lat="44.46389" lon="2.94597">
        <ele>405</ele>
        <time>2021-08-27T09:47:05Z</time>
      </trkpt>
      <trkpt lat="44.46392" lon="2.94591">
        <ele>407</ele>
        <time>2021-08-27T09:47:12Z</time>
      </trkpt>
      <trkpt lat="44.46395" lon="2.94585">
        <ele>408</ele>
        <time>2021-08-27T09:47:18Z</time>
      </trkpt>
      <trkpt lat="44.46395" lon="2.94578">
        <ele>410</ele>
        <time>2021-08-27T09:47:24Z</time>
      </trkpt>
      <trkpt lat="44.46395" lon="2.94572">
        <ele>411</ele>
        <time>2021-08-27T09:47:30Z</time>
      </trkpt>
      <trkpt lat="44.46394" lon="2.94565">
        <ele>413</ele>
        <time>2021-08-27T09:47:36Z</time>
      </trkpt>
      <trkpt lat="44.46389" lon="2.94561">
        <ele>413</ele>
        <time>2021-08-27T09:47:42Z</time>
      </trkpt>
      <trkpt lat="44.46386" lon="2.94557">
        <ele>414</ele>
        <time>2021-08-27T09:47:48Z</time>
      </trkpt>
      <trkpt lat="44.46389" lon="2.94545">
        <ele>415</ele>
        <time>2021-08-27T09:49:20Z</time>
      </trkpt>
      <trkpt lat="44.46399" lon="2.94511">
        <ele>415</ele>
        <time>2021-08-27T09:49:43Z</time>
      </trkpt>
      <trkpt lat="44.46403" lon="2.94507">
        <ele>416</ele>
        <time>2021-08-27T09:49:49Z</time>
      </trkpt>
      <trkpt lat="44.46407" lon="2.94503">
        <ele>416</ele>
        <time>2021-08-27T09:49:55Z</time>
      </trkpt>
      <trkpt lat="44.46421" lon="2.94511">
        <ele>418</ele>
        <time>2021-08-27T09:50:12Z</time>
      </trkpt>
      <trkpt lat="44.46426" lon="2.94512">
        <ele>417</ele>
        <time>2021-08-27T09:50:18Z</time>
      </trkpt>
      <trkpt lat="44.4643" lon="2.94517">
        <ele>416</ele>
        <time>2021-08-27T09:50:23Z</time>
      </trkpt>
      <trkpt lat="44.46433" lon="2.94521">
        <ele>415</ele>
        <time>2021-08-27T09:50:27Z</time>
      </trkpt>
      <trkpt lat="44.46437" lon="2.94526">
        <ele>414</ele>
        <time>2021-08-27T09:50:32Z</time>
      </trkpt>
      <trkpt lat="44.46439" lon="2.94533">
        <ele>414</ele>
        <time>2021-08-27T09:50:36Z</time>
      </trkpt>
      <trkpt lat="44.46445" lon="2.94543">
        <ele>410</ele>
        <time>2021-08-27T09:50:49Z</time>
      </trkpt>
      <trkpt lat="44.4645" lon="2.94545">
        <ele>410</ele>
        <time>2021-08-27T09:50:55Z</time>
      </trkpt>
      <trkpt lat="44.46455" lon="2.94547">
        <ele>410</ele>
        <time>2021-08-27T09:51:05Z</time>
      </trkpt>
      <trkpt lat="44.4646" lon="2.94548">
        <ele>410</ele>
        <time>2021-08-27T09:51:16Z</time>
      </trkpt>
      <trkpt lat="44.46461" lon="2.94555">
        <ele>413</ele>
        <time>2021-08-27T09:51:48Z</time>
      </trkpt>
      <trkpt lat="44.46461" lon="2.94571">
        <ele>416</ele>
        <time>2021-08-27T09:52:09Z</time>
      </trkpt>
      <trkpt lat="44.46462" lon="2.9458">
        <ele>417</ele>
        <time>2021-08-27T09:52:15Z</time>
      </trkpt>
      <trkpt lat="44.46467" lon="2.94586">
        <ele>418</ele>
        <time>2021-08-27T09:52:18Z</time>
      </trkpt>
      <trkpt lat="44.4647" lon="2.94592">
        <ele>421</ele>
        <time>2021-08-27T09:52:23Z</time>
      </trkpt>
      <trkpt lat="44.46475" lon="2.94605">
        <ele>423</ele>
        <time>2021-08-27T09:52:34Z</time>
      </trkpt>
      <trkpt lat="44.46477" lon="2.94611">
        <ele>423</ele>
        <time>2021-08-27T09:52:40Z</time>
      </trkpt>
      <trkpt lat="44.46482" lon="2.94613">
        <ele>422</ele>
        <time>2021-08-27T09:52:46Z</time>
      </trkpt>
      <trkpt lat="44.4649" lon="2.94631">
        <ele>422</ele>
        <time>2021-08-27T09:53:07Z</time>
      </trkpt>
      <trkpt lat="44.46501" lon="2.94632">
        <ele>423</ele>
        <time>2021-08-27T09:53:20Z</time>
      </trkpt>
      <trkpt lat="44.46497" lon="2.94631">
        <ele>422</ele>
        <time>2021-08-27T09:58:52Z</time>
      </trkpt>
      <trkpt lat="44.46493" lon="2.94626">
        <ele>422</ele>
        <time>2021-08-27T09:58:57Z</time>
      </trkpt>
      <trkpt lat="44.46483" lon="2.94622">
        <ele>417</ele>
        <time>2021-08-27T09:59:07Z</time>
      </trkpt>
      <trkpt lat="44.46478" lon="2.94622">
        <ele>418</ele>
        <time>2021-08-27T09:59:12Z</time>
      </trkpt>
      <trkpt lat="44.46473" lon="2.94621">
        <ele>418</ele>
        <time>2021-08-27T09:59:19Z</time>
      </trkpt>
      <trkpt lat="44.46468" lon="2.94624">
        <ele>418</ele>
        <time>2021-08-27T09:59:24Z</time>
      </trkpt>
      <trkpt lat="44.46454" lon="2.94624">
        <ele>418</ele>
        <time>2021-08-27T09:59:42Z</time>
      </trkpt>
      <trkpt lat="44.46451" lon="2.9462">
        <ele>418</ele>
        <time>2021-08-27T10:00:02Z</time>
      </trkpt>
      <trkpt lat="44.46446" lon="2.94619">
        <ele>418</ele>
        <time>2021-08-27T10:00:08Z</time>
      </trkpt>
      <trkpt lat="44.4644" lon="2.9462">
        <ele>417</ele>
        <time>2021-08-27T10:00:13Z</time>
      </trkpt>
      <trkpt lat="44.46435" lon="2.94621">
        <ele>415</ele>
        <time>2021-08-27T10:00:22Z</time>
      </trkpt>
      <trkpt lat="44.46431" lon="2.94619">
        <ele>413</ele>
        <time>2021-08-27T10:01:52Z</time>
      </trkpt>
      <trkpt lat="44.46431" lon="2.94592">
        <ele>413</ele>
        <time>2021-08-27T10:02:35Z</time>
      </trkpt>
      <trkpt lat="44.46427" lon="2.94598">
        <ele>412</ele>
        <time>2021-08-27T10:03:19Z</time>
      </trkpt>
      <trkpt lat="44.46427" lon="2.94614">
        <ele>413</ele>
        <time>2021-08-27T10:03:26Z</time>
      </trkpt>
      <trkpt lat="44.46426" lon="2.94622">
        <ele>413</ele>
        <time>2021-08-27T10:03:30Z</time>
      </trkpt>
      <trkpt lat="44.46426" lon="2.94629">
        <ele>414</ele>
        <time>2021-08-27T10:03:33Z</time>
      </trkpt>
      <trkpt lat="44.4643" lon="2.94643">
        <ele>413</ele>
        <time>2021-08-27T10:03:39Z</time>
      </trkpt>
      <trkpt lat="44.4643" lon="2.94659">
        <ele>411</ele>
        <time>2021-08-27T10:03:44Z</time>
      </trkpt>
      <trkpt lat="44.46433" lon="2.94665">
        <ele>410</ele>
        <time>2021-08-27T10:03:47Z</time>
      </trkpt>
      <trkpt lat="44.46434" lon="2.94672">
        <ele>410</ele>
        <time>2021-08-27T10:03:51Z</time>
      </trkpt>
      <trkpt lat="44.46437" lon="2.94678">
        <ele>409</ele>
        <time>2021-08-27T10:03:53Z</time>
      </trkpt>
      <trkpt lat="44.46441" lon="2.94686">
        <ele>406</ele>
        <time>2021-08-27T10:03:55Z</time>
      </trkpt>
      <trkpt lat="44.46442" lon="2.94694">
        <ele>403</ele>
        <time>2021-08-27T10:03:57Z</time>
      </trkpt>
      <trkpt lat="44.46439" lon="2.947">
        <ele>403</ele>
        <time>2021-08-27T10:03:59Z</time>
      </trkpt>
      <trkpt lat="44.46424" lon="2.94733">
        <ele>400</ele>
        <time>2021-08-27T10:04:11Z</time>
      </trkpt>
      <trkpt lat="44.46417" lon="2.94743">
        <ele>400</ele>
        <time>2021-08-27T10:04:15Z</time>
      </trkpt>
      <trkpt lat="44.46413" lon="2.9475">
        <ele>398</ele>
        <time>2021-08-27T10:04:18Z</time>
      </trkpt>
      <trkpt lat="44.4641" lon="2.94759">
        <ele>397</ele>
        <time>2021-08-27T10:04:21Z</time>
      </trkpt>
      <trkpt lat="44.46404" lon="2.94772">
        <ele>396</ele>
        <time>2021-08-27T10:04:25Z</time>
      </trkpt>
      <trkpt lat="44.46401" lon="2.9478">
        <ele>398</ele>
        <time>2021-08-27T10:04:27Z</time>
      </trkpt>
      <trkpt lat="44.46396" lon="2.94795">
        <ele>402</ele>
        <time>2021-08-27T10:04:31Z</time>
      </trkpt>
      <trkpt lat="44.46393" lon="2.94802">
        <ele>404</ele>
        <time>2021-08-27T10:04:33Z</time>
      </trkpt>
      <trkpt lat="44.46392" lon="2.9481">
        <ele>405</ele>
        <time>2021-08-27T10:04:35Z</time>
      </trkpt>
      <trkpt lat="44.46405" lon="2.94838">
        <ele>408</ele>
        <time>2021-08-27T10:04:43Z</time>
      </trkpt>
      <trkpt lat="44.46423" lon="2.94855">
        <ele>411</ele>
        <time>2021-08-27T10:04:49Z</time>
      </trkpt>
      <trkpt lat="44.46436" lon="2.94862">
        <ele>412</ele>
        <time>2021-08-27T10:04:53Z</time>
      </trkpt>
      <trkpt lat="44.46458" lon="2.94863">
        <ele>414</ele>
        <time>2021-08-27T10:04:59Z</time>
      </trkpt>
      <trkpt lat="44.46545" lon="2.94844">
        <ele>417</ele>
        <time>2021-08-27T10:05:27Z</time>
      </trkpt>
      <trkpt lat="44.4655" lon="2.94842">
        <ele>417</ele>
        <time>2021-08-27T10:05:29Z</time>
      </trkpt>
      <trkpt lat="44.46554" lon="2.94838">
        <ele>418</ele>
        <time>2021-08-27T10:05:31Z</time>
      </trkpt>
      <trkpt lat="44.46559" lon="2.94833">
        <ele>418</ele>
        <time>2021-08-27T10:05:34Z</time>
      </trkpt>
      <trkpt lat="44.46564" lon="2.94829">
        <ele>419</ele>
        <time>2021-08-27T10:05:37Z</time>
      </trkpt>
      <trkpt lat="44.46569" lon="2.94826">
        <ele>419</ele>
        <time>2021-08-27T10:05:40Z</time>
      </trkpt>
      <trkpt lat="44.46598" lon="2.94802">
        <ele>426</ele>
        <time>2021-08-27T10:05:58Z</time>
      </trkpt>
      <trkpt lat="44.46607" lon="2.94793">
        <ele>428</ele>
        <time>2021-08-27T10:06:04Z</time>
      </trkpt>
      <trkpt lat="44.46649" lon="2.94766">
        <ele>433</ele>
        <time>2021-08-27T10:06:28Z</time>
      </trkpt>
      <trkpt lat="44.46655" lon="2.94767">
        <ele>433</ele>
        <time>2021-08-27T10:06:31Z</time>
      </trkpt>
      <trkpt lat="44.46659" lon="2.94773">
        <ele>434</ele>
        <time>2021-08-27T10:06:34Z</time>
      </trkpt>
      <trkpt lat="44.46659" lon="2.9478">
        <ele>434</ele>
        <time>2021-08-27T10:06:36Z</time>
      </trkpt>
      <trkpt lat="44.46655" lon="2.94784">
        <ele>434</ele>
        <time>2021-08-27T10:06:38Z</time>
      </trkpt>
      <trkpt lat="44.46615" lon="2.94832">
        <ele>435</ele>
        <time>2021-08-27T10:07:08Z</time>
      </trkpt>
      <trkpt lat="44.46602" lon="2.94855">
        <ele>435</ele>
        <time>2021-08-27T10:07:20Z</time>
      </trkpt>
      <trkpt lat="44.46597" lon="2.94857">
        <ele>437</ele>
        <time>2021-08-27T10:07:23Z</time>
      </trkpt>
      <trkpt lat="44.46593" lon="2.94862">
        <ele>438</ele>
        <time>2021-08-27T10:07:26Z</time>
      </trkpt>
      <trkpt lat="44.4659" lon="2.94868">
        <ele>440</ele>
        <time>2021-08-27T10:07:29Z</time>
      </trkpt>
      <trkpt lat="44.46588" lon="2.94874">
        <ele>441</ele>
        <time>2021-08-27T10:07:32Z</time>
      </trkpt>
      <trkpt lat="44.46587" lon="2.94881">
        <ele>442</ele>
        <time>2021-08-27T10:07:35Z</time>
      </trkpt>
      <trkpt lat="44.46589" lon="2.94889">
        <ele>444</ele>
        <time>2021-08-27T10:07:38Z</time>
      </trkpt>
      <trkpt lat="44.46592" lon="2.94896">
        <ele>444</ele>
        <time>2021-08-27T10:07:41Z</time>
      </trkpt>
      <trkpt lat="44.46596" lon="2.94901">
        <ele>445</ele>
        <time>2021-08-27T10:07:44Z</time>
      </trkpt>
      <trkpt lat="44.46605" lon="2.94909">
        <ele>447</ele>
        <time>2021-08-27T10:07:51Z</time>
      </trkpt>
      <trkpt lat="44.46611" lon="2.9491">
        <ele>447</ele>
        <time>2021-08-27T10:08:36Z</time>
      </trkpt>
      <trkpt lat="44.46616" lon="2.94906">
        <ele>448</ele>
        <time>2021-08-27T10:08:39Z</time>
      </trkpt>
      <trkpt lat="44.46619" lon="2.949">
        <ele>448</ele>
        <time>2021-08-27T10:08:41Z</time>
      </trkpt>
      <trkpt lat="44.46622" lon="2.94886">
        <ele>448</ele>
        <time>2021-08-27T10:08:45Z</time>
      </trkpt>
      <trkpt lat="44.46683" lon="2.94777">
        <ele>445</ele>
        <time>2021-08-27T10:09:06Z</time>
      </trkpt>
      <trkpt lat="44.46705" lon="2.94747">
        <ele>444</ele>
        <time>2021-08-27T10:09:11Z</time>
      </trkpt>
      <trkpt lat="44.46882" lon="2.946">
        <ele>443</ele>
        <time>2021-08-27T10:09:41Z</time>
      </trkpt>
      <trkpt lat="44.46903" lon="2.9459">
        <ele>443</ele>
        <time>2021-08-27T10:09:44Z</time>
      </trkpt>
      <trkpt lat="44.47131" lon="2.94514">
        <ele>441</ele>
        <time>2021-08-27T10:10:15Z</time>
      </trkpt>
      <trkpt lat="44.47248" lon="2.9447">
        <ele>435</ele>
        <time>2021-08-27T10:10:31Z</time>
      </trkpt>
      <trkpt lat="44.47388" lon="2.9439">
        <ele>427</ele>
        <time>2021-08-27T10:10:50Z</time>
      </trkpt>
      <trkpt lat="44.47569" lon="2.94351">
        <ele>423</ele>
        <time>2021-08-27T10:11:16Z</time>
      </trkpt>
      <trkpt lat="44.47759" lon="2.94332">
        <ele>427</ele>
        <time>2021-08-27T10:11:46Z</time>
      </trkpt>
      <trkpt lat="44.47788" lon="2.94326">
        <ele>429</ele>
        <time>2021-08-27T10:11:51Z</time>
      </trkpt>
      <trkpt lat="44.47879" lon="2.94283">
        <ele>430</ele>
        <time>2021-08-27T10:12:06Z</time>
      </trkpt>
      <trkpt lat="44.47939" lon="2.9423">
        <ele>431</ele>
        <time>2021-08-27T10:12:18Z</time>
      </trkpt>
      <trkpt lat="44.48021" lon="2.94125">
        <ele>430</ele>
        <time>2021-08-27T10:12:36Z</time>
      </trkpt>
      <trkpt lat="44.48095" lon="2.93982">
        <ele>424</ele>
        <time>2021-08-27T10:12:57Z</time>
      </trkpt>
      <trkpt lat="44.48098" lon="2.93975">
        <ele>423</ele>
        <time>2021-08-27T10:12:58Z</time>
      </trkpt>
      <trkpt lat="44.48102" lon="2.93954">
        <ele>423</ele>
        <time>2021-08-27T10:13:01Z</time>
      </trkpt>
      <trkpt lat="44.48107" lon="2.93933">
        <ele>422</ele>
        <time>2021-08-27T10:13:04Z</time>
      </trkpt>
      <trkpt lat="44.48111" lon="2.93732">
        <ele>419</ele>
        <time>2021-08-27T10:13:26Z</time>
      </trkpt>
      <trkpt lat="44.481" lon="2.93527">
        <ele>412</ele>
        <time>2021-08-27T10:13:52Z</time>
      </trkpt>
      <trkpt lat="44.48081" lon="2.93469">
        <ele>411</ele>
        <time>2021-08-27T10:14:00Z</time>
      </trkpt>
      <trkpt lat="44.48067" lon="2.93443">
        <ele>412</ele>
        <time>2021-08-27T10:14:04Z</time>
      </trkpt>
      <trkpt lat="44.47993" lon="2.93336">
        <ele>419</ele>
        <time>2021-08-27T10:14:22Z</time>
      </trkpt>
      <trkpt lat="44.47973" lon="2.93315">
        <ele>418</ele>
        <time>2021-08-27T10:14:26Z</time>
      </trkpt>
      <trkpt lat="44.47869" lon="2.9326">
        <ele>412</ele>
        <time>2021-08-27T10:14:46Z</time>
      </trkpt>
      <trkpt lat="44.47722" lon="2.93247">
        <ele>415</ele>
        <time>2021-08-27T10:15:18Z</time>
      </trkpt>
      <trkpt lat="44.47632" lon="2.93244">
        <ele>420</ele>
        <time>2021-08-27T10:15:48Z</time>
      </trkpt>
      <trkpt lat="44.47598" lon="2.9325">
        <ele>422</ele>
        <time>2021-08-27T10:16:00Z</time>
      </trkpt>
      <trkpt lat="44.47553" lon="2.93255">
        <ele>428</ele>
        <time>2021-08-27T10:16:16Z</time>
      </trkpt>
      <trkpt lat="44.47512" lon="2.93261">
        <ele>428</ele>
        <time>2021-08-27T10:16:32Z</time>
      </trkpt>
      <trkpt lat="44.47487" lon="2.93255">
        <ele>432</ele>
        <time>2021-08-27T10:16:42Z</time>
      </trkpt>
      <trkpt lat="44.47453" lon="2.93232">
        <ele>435</ele>
        <time>2021-08-27T10:16:56Z</time>
      </trkpt>
      <trkpt lat="44.47441" lon="2.93219">
        <ele>436</ele>
        <time>2021-08-27T10:17:02Z</time>
      </trkpt>
      <trkpt lat="44.47432" lon="2.93201">
        <ele>436</ele>
        <time>2021-08-27T10:17:08Z</time>
      </trkpt>
      <trkpt lat="44.47426" lon="2.93189">
        <ele>437</ele>
        <time>2021-08-27T10:17:12Z</time>
      </trkpt>
      <trkpt lat="44.4742" lon="2.9315">
        <ele>442</ele>
        <time>2021-08-27T10:17:24Z</time>
      </trkpt>
      <trkpt lat="44.47423" lon="2.93129">
        <ele>443</ele>
        <time>2021-08-27T10:17:30Z</time>
      </trkpt>
      <trkpt lat="44.4743" lon="2.931">
        <ele>445</ele>
        <time>2021-08-27T10:17:38Z</time>
      </trkpt>
      <trkpt lat="44.47442" lon="2.93077">
        <ele>447</ele>
        <time>2021-08-27T10:17:46Z</time>
      </trkpt>
      <trkpt lat="44.47498" lon="2.93006">
        <ele>451</ele>
        <time>2021-08-27T10:18:16Z</time>
      </trkpt>
      <trkpt lat="44.47559" lon="2.92931">
        <ele>457</ele>
        <time>2021-08-27T10:18:48Z</time>
      </trkpt>
      <trkpt lat="44.47597" lon="2.9289">
        <ele>460</ele>
        <time>2021-08-27T10:19:06Z</time>
      </trkpt>
      <trkpt lat="44.47601" lon="2.92885">
        <ele>460</ele>
        <time>2021-08-27T10:19:08Z</time>
      </trkpt>
      <trkpt lat="44.47606" lon="2.92881">
        <ele>461</ele>
        <time>2021-08-27T10:19:10Z</time>
      </trkpt>
      <trkpt lat="44.47654" lon="2.92842">
        <ele>462</ele>
        <time>2021-08-27T10:19:30Z</time>
      </trkpt>
      <trkpt lat="44.47658" lon="2.92838">
        <ele>462</ele>
        <time>2021-08-27T10:19:32Z</time>
      </trkpt>
      <trkpt lat="44.47668" lon="2.92829">
        <ele>463</ele>
        <time>2021-08-27T10:19:36Z</time>
      </trkpt>
      <trkpt lat="44.47747" lon="2.92833">
        <ele>471</ele>
        <time>2021-08-27T10:20:06Z</time>
      </trkpt>
      <trkpt lat="44.47835" lon="2.92871">
        <ele>480</ele>
        <time>2021-08-27T10:20:38Z</time>
      </trkpt>
      <trkpt lat="44.47854" lon="2.92883">
        <ele>483</ele>
        <time>2021-08-27T10:20:44Z</time>
      </trkpt>
      <trkpt lat="44.47867" lon="2.92887">
        <ele>484</ele>
        <time>2021-08-27T10:20:49Z</time>
      </trkpt>
      <trkpt lat="44.47882" lon="2.92883">
        <ele>485</ele>
        <time>2021-08-27T10:20:52Z</time>
      </trkpt>
      <trkpt lat="44.4793" lon="2.92862">
        <ele>488</ele>
        <time>2021-08-27T10:21:04Z</time>
      </trkpt>
      <trkpt lat="44.4797" lon="2.92866">
        <ele>487</ele>
        <time>2021-08-27T10:21:13Z</time>
      </trkpt>
      <trkpt lat="44.48101" lon="2.92899">
        <ele>499</ele>
        <time>2021-08-27T10:21:43Z</time>
      </trkpt>
      <trkpt lat="44.48223" lon="2.92936">
        <ele>496</ele>
        <time>2021-08-27T10:22:11Z</time>
      </trkpt>
      <trkpt lat="44.48281" lon="2.92955">
        <ele>491</ele>
        <time>2021-08-27T10:22:23Z</time>
      </trkpt>
      <trkpt lat="44.48303" lon="2.92976">
        <ele>492</ele>
        <time>2021-08-27T10:22:29Z</time>
      </trkpt>
      <trkpt lat="44.48367" lon="2.93055">
        <ele>490</ele>
        <time>2021-08-27T10:22:48Z</time>
      </trkpt>
      <trkpt lat="44.48477" lon="2.93123">
        <ele>495</ele>
        <time>2021-08-27T10:23:20Z</time>
      </trkpt>
      <trkpt lat="44.48514" lon="2.9314">
        <ele>501</ele>
        <time>2021-08-27T10:23:32Z</time>
      </trkpt>
      <trkpt lat="44.48582" lon="2.93155">
        <ele>510</ele>
        <time>2021-08-27T10:23:52Z</time>
      </trkpt>
      <trkpt lat="44.48667" lon="2.93227">
        <ele>527</ele>
        <time>2021-08-27T10:24:22Z</time>
      </trkpt>
      <trkpt lat="44.48717" lon="2.93268">
        <ele>525</ele>
        <time>2021-08-27T10:24:38Z</time>
      </trkpt>
      <trkpt lat="44.4875" lon="2.93293">
        <ele>523</ele>
        <time>2021-08-27T10:24:48Z</time>
      </trkpt>
      <trkpt lat="44.48843" lon="2.93317">
        <ele>520</ele>
        <time>2021-08-27T10:25:18Z</time>
      </trkpt>
      <trkpt lat="44.48936" lon="2.93284">
        <ele>522</ele>
        <time>2021-08-27T10:25:50Z</time>
      </trkpt>
      <trkpt lat="44.49003" lon="2.93203">
        <ele>526</ele>
        <time>2021-08-27T10:26:20Z</time>
      </trkpt>
      <trkpt lat="44.49057" lon="2.93145">
        <ele>524</ele>
        <time>2021-08-27T10:26:42Z</time>
      </trkpt>
      <trkpt lat="44.49122" lon="2.93047">
        <ele>525</ele>
        <time>2021-08-27T10:27:05Z</time>
      </trkpt>
      <trkpt lat="44.492" lon="2.92856">
        <ele>522</ele>
        <time>2021-08-27T10:27:36Z</time>
      </trkpt>
      <trkpt lat="44.49238" lon="2.92779">
        <ele>525</ele>
        <time>2021-08-27T10:27:49Z</time>
      </trkpt>
      <trkpt lat="44.49257" lon="2.92719">
        <ele>529</ele>
        <time>2021-08-27T10:28:03Z</time>
      </trkpt>
      <trkpt lat="44.49286" lon="2.9267">
        <ele>532</ele>
        <time>2021-08-27T10:28:19Z</time>
      </trkpt>
      <trkpt lat="44.49291" lon="2.92665">
        <ele>533</ele>
        <time>2021-08-27T10:28:21Z</time>
      </trkpt>
      <trkpt lat="44.49309" lon="2.92634">
        <ele>534</ele>
        <time>2021-08-27T10:28:31Z</time>
      </trkpt>
      <trkpt lat="44.49331" lon="2.92562">
        <ele>538</ele>
        <time>2021-08-27T10:28:51Z</time>
      </trkpt>
      <trkpt lat="44.49347" lon="2.92541">
        <ele>539</ele>
        <time>2021-08-27T10:28:59Z</time>
      </trkpt>
      <trkpt lat="44.49429" lon="2.92468">
        <ele>543</ele>
        <time>2021-08-27T10:29:31Z</time>
      </trkpt>
      <trkpt lat="44.49459" lon="2.92441">
        <ele>544</ele>
        <time>2021-08-27T10:29:41Z</time>
      </trkpt>
      <trkpt lat="44.49473" lon="2.92432">
        <ele>544</ele>
        <time>2021-08-27T10:29:45Z</time>
      </trkpt>
      <trkpt lat="44.49488" lon="2.92426">
        <ele>545</ele>
        <time>2021-08-27T10:29:49Z</time>
      </trkpt>
      <trkpt lat="44.49521" lon="2.92427">
        <ele>546</ele>
        <time>2021-08-27T10:29:57Z</time>
      </trkpt>
      <trkpt lat="44.49599" lon="2.92466">
        <ele>550</ele>
        <time>2021-08-27T10:30:14Z</time>
      </trkpt>
      <trkpt lat="44.49624" lon="2.92496">
        <ele>549</ele>
        <time>2021-08-27T10:30:20Z</time>
      </trkpt>
      <trkpt lat="44.49657" lon="2.92555">
        <ele>548</ele>
        <time>2021-08-27T10:30:30Z</time>
      </trkpt>
      <trkpt lat="44.49683" lon="2.9258">
        <ele>549</ele>
        <time>2021-08-27T10:30:37Z</time>
      </trkpt>
      <trkpt lat="44.49688" lon="2.92582">
        <ele>549</ele>
        <time>2021-08-27T10:30:38Z</time>
      </trkpt>
      <trkpt lat="44.49698" lon="2.92589">
        <ele>550</ele>
        <time>2021-08-27T10:30:40Z</time>
      </trkpt>
      <trkpt lat="44.49708" lon="2.92595">
        <ele>551</ele>
        <time>2021-08-27T10:30:42Z</time>
      </trkpt>
      <trkpt lat="44.49727" lon="2.92624">
        <ele>550</ele>
        <time>2021-08-27T10:30:47Z</time>
      </trkpt>
      <trkpt lat="44.49739" lon="2.92647">
        <ele>549</ele>
        <time>2021-08-27T10:30:51Z</time>
      </trkpt>
      <trkpt lat="44.49785" lon="2.92769">
        <ele>556</ele>
        <time>2021-08-27T10:31:08Z</time>
      </trkpt>
      <trkpt lat="44.49801" lon="2.9279">
        <ele>559</ele>
        <time>2021-08-27T10:31:12Z</time>
      </trkpt>
      <trkpt lat="44.49824" lon="2.92806">
        <ele>562</ele>
        <time>2021-08-27T10:31:16Z</time>
      </trkpt>
      <trkpt lat="44.49865" lon="2.92826">
        <ele>566</ele>
        <time>2021-08-27T10:31:23Z</time>
      </trkpt>
      <trkpt lat="44.49881" lon="2.92844">
        <ele>565</ele>
        <time>2021-08-27T10:31:26Z</time>
      </trkpt>
      <trkpt lat="44.49889" lon="2.92861">
        <ele>564</ele>
        <time>2021-08-27T10:31:28Z</time>
      </trkpt>
      <trkpt lat="44.49897" lon="2.92889">
        <ele>563</ele>
        <time>2021-08-27T10:31:31Z</time>
      </trkpt>
      <trkpt lat="44.49913" lon="2.93023">
        <ele>561</ele>
        <time>2021-08-27T10:31:45Z</time>
      </trkpt>
      <trkpt lat="44.49941" lon="2.93096">
        <ele>560</ele>
        <time>2021-08-27T10:31:55Z</time>
      </trkpt>
      <trkpt lat="44.49941" lon="2.93113">
        <ele>560</ele>
        <time>2021-08-27T10:31:57Z</time>
      </trkpt>
      <trkpt lat="44.49941" lon="2.9312">
        <ele>560</ele>
        <time>2021-08-27T10:31:58Z</time>
      </trkpt>
      <trkpt lat="44.49945" lon="2.93145">
        <ele>559</ele>
        <time>2021-08-27T10:32:02Z</time>
      </trkpt>
      <trkpt lat="44.49946" lon="2.93161">
        <ele>559</ele>
        <time>2021-08-27T10:32:04Z</time>
      </trkpt>
      <trkpt lat="44.4995" lon="2.9318">
        <ele>559</ele>
        <time>2021-08-27T10:32:06Z</time>
      </trkpt>
      <trkpt lat="44.49961" lon="2.93208">
        <ele>559</ele>
        <time>2021-08-27T10:32:09Z</time>
      </trkpt>
      <trkpt lat="44.50032" lon="2.93317">
        <ele>562</ele>
        <time>2021-08-27T10:32:26Z</time>
      </trkpt>
      <trkpt lat="44.50044" lon="2.93333">
        <ele>560</ele>
        <time>2021-08-27T10:32:29Z</time>
      </trkpt>
      <trkpt lat="44.50061" lon="2.93341">
        <ele>558</ele>
        <time>2021-08-27T10:32:33Z</time>
      </trkpt>
      <trkpt lat="44.50075" lon="2.93342">
        <ele>556</ele>
        <time>2021-08-27T10:32:37Z</time>
      </trkpt>
      <trkpt lat="44.50088" lon="2.93337">
        <ele>556</ele>
        <time>2021-08-27T10:32:41Z</time>
      </trkpt>
      <trkpt lat="44.50096" lon="2.93326">
        <ele>557</ele>
        <time>2021-08-27T10:32:45Z</time>
      </trkpt>
      <trkpt lat="44.50098" lon="2.9332">
        <ele>557</ele>
        <time>2021-08-27T10:32:47Z</time>
      </trkpt>
      <trkpt lat="44.501" lon="2.93298">
        <ele>556</ele>
        <time>2021-08-27T10:32:54Z</time>
      </trkpt>
      <trkpt lat="44.501" lon="2.93289">
        <ele>556</ele>
        <time>2021-08-27T10:32:57Z</time>
      </trkpt>
      <trkpt lat="44.50103" lon="2.93274">
        <ele>557</ele>
        <time>2021-08-27T10:33:02Z</time>
      </trkpt>
      <trkpt lat="44.50116" lon="2.93222">
        <ele>559</ele>
        <time>2021-08-27T10:33:22Z</time>
      </trkpt>
      <trkpt lat="44.50115" lon="2.93216">
        <ele>558</ele>
        <time>2021-08-27T10:33:24Z</time>
      </trkpt>
      <trkpt lat="44.50114" lon="2.93207">
        <ele>558</ele>
        <time>2021-08-27T10:33:27Z</time>
      </trkpt>
      <trkpt lat="44.50106" lon="2.93188">
        <ele>560</ele>
        <time>2021-08-27T10:33:36Z</time>
      </trkpt>
      <trkpt lat="44.50093" lon="2.93176">
        <ele>558</ele>
        <time>2021-08-27T10:33:45Z</time>
      </trkpt>
      <trkpt lat="44.50079" lon="2.93161">
        <ele>557</ele>
        <time>2021-08-27T10:33:54Z</time>
      </trkpt>
      <trkpt lat="44.5007" lon="2.93137">
        <ele>557</ele>
        <time>2021-08-27T10:34:02Z</time>
      </trkpt>
      <trkpt lat="44.50066" lon="2.93116">
        <ele>558</ele>
        <time>2021-08-27T10:34:09Z</time>
      </trkpt>
      <trkpt lat="44.50064" lon="2.93073">
        <ele>560</ele>
        <time>2021-08-27T10:34:24Z</time>
      </trkpt>
      <trkpt lat="44.50063" lon="2.93024">
        <ele>562</ele>
        <time>2021-08-27T10:34:39Z</time>
      </trkpt>
      <trkpt lat="44.50062" lon="2.93018">
        <ele>563</ele>
        <time>2021-08-27T10:34:41Z</time>
      </trkpt>
      <trkpt lat="44.50061" lon="2.93009">
        <ele>563</ele>
        <time>2021-08-27T10:34:44Z</time>
      </trkpt>
      <trkpt lat="44.50061" lon="2.93">
        <ele>564</ele>
        <time>2021-08-27T10:34:47Z</time>
      </trkpt>
      <trkpt lat="44.50063" lon="2.92983">
        <ele>566</ele>
        <time>2021-08-27T10:34:53Z</time>
      </trkpt>
      <trkpt lat="44.50064" lon="2.92975">
        <ele>567</ele>
        <time>2021-08-27T10:34:56Z</time>
      </trkpt>
      <trkpt lat="44.50062" lon="2.92935">
        <ele>568</ele>
        <time>2021-08-27T10:35:09Z</time>
      </trkpt>
      <trkpt lat="44.50063" lon="2.92914">
        <ele>566</ele>
        <time>2021-08-27T10:35:18Z</time>
      </trkpt>
      <trkpt lat="44.50075" lon="2.92856">
        <ele>569</ele>
        <time>2021-08-27T10:35:39Z</time>
      </trkpt>
      <trkpt lat="44.50075" lon="2.92849">
        <ele>570</ele>
        <time>2021-08-27T10:35:41Z</time>
      </trkpt>
      <trkpt lat="44.50076" lon="2.9284">
        <ele>570</ele>
        <time>2021-08-27T10:35:44Z</time>
      </trkpt>
      <trkpt lat="44.5007" lon="2.92806">
        <ele>573</ele>
        <time>2021-08-27T10:35:55Z</time>
      </trkpt>
      <trkpt lat="44.50051" lon="2.9272">
        <ele>577</ele>
        <time>2021-08-27T10:36:27Z</time>
      </trkpt>
      <trkpt lat="44.5005" lon="2.92706">
        <ele>580</ele>
        <time>2021-08-27T10:36:32Z</time>
      </trkpt>
      <trkpt lat="44.50056" lon="2.92667">
        <ele>585</ele>
        <time>2021-08-27T10:36:46Z</time>
      </trkpt>
      <trkpt lat="44.50059" lon="2.92649">
        <ele>586</ele>
        <time>2021-08-27T10:36:52Z</time>
      </trkpt>
      <trkpt lat="44.50066" lon="2.9256">
        <ele>591</ele>
        <time>2021-08-27T10:37:22Z</time>
      </trkpt>
      <trkpt lat="44.50064" lon="2.92491">
        <ele>592</ele>
        <time>2021-08-27T10:37:45Z</time>
      </trkpt>
      <trkpt lat="44.50064" lon="2.92475">
        <ele>592</ele>
        <time>2021-08-27T10:37:50Z</time>
      </trkpt>
      <trkpt lat="44.50061" lon="2.92456">
        <ele>593</ele>
        <time>2021-08-27T10:37:56Z</time>
      </trkpt>
      <trkpt lat="44.50039" lon="2.92365">
        <ele>598</ele>
        <time>2021-08-27T10:38:28Z</time>
      </trkpt>
      <trkpt lat="44.50031" lon="2.92333">
        <ele>601</ele>
        <time>2021-08-27T10:38:40Z</time>
      </trkpt>
      <trkpt lat="44.49994" lon="2.92271">
        <ele>611</ele>
        <time>2021-08-27T10:39:09Z</time>
      </trkpt>
      <trkpt lat="44.4999" lon="2.92256">
        <ele>612</ele>
        <time>2021-08-27T10:39:14Z</time>
      </trkpt>
      <trkpt lat="44.49988" lon="2.92244">
        <ele>613</ele>
        <time>2021-08-27T10:39:18Z</time>
      </trkpt>
      <trkpt lat="44.4999" lon="2.92235">
        <ele>613</ele>
        <time>2021-08-27T10:39:21Z</time>
      </trkpt>
      <trkpt lat="44.49992" lon="2.92227">
        <ele>614</ele>
        <time>2021-08-27T10:39:24Z</time>
      </trkpt>
      <trkpt lat="44.49996" lon="2.92221">
        <ele>614</ele>
        <time>2021-08-27T10:39:27Z</time>
      </trkpt>
      <trkpt lat="44.50013" lon="2.92208">
        <ele>615</ele>
        <time>2021-08-27T10:39:36Z</time>
      </trkpt>
      <trkpt lat="44.50031" lon="2.92206">
        <ele>616</ele>
        <time>2021-08-27T10:39:44Z</time>
      </trkpt>
      <trkpt lat="44.50097" lon="2.92223">
        <ele>623</ele>
        <time>2021-08-27T10:40:14Z</time>
      </trkpt>
      <trkpt lat="44.50171" lon="2.92237">
        <ele>627</ele>
        <time>2021-08-27T10:40:44Z</time>
      </trkpt>
      <trkpt lat="44.50203" lon="2.92248">
        <ele>629</ele>
        <time>2021-08-27T10:40:56Z</time>
      </trkpt>
      <trkpt lat="44.50278" lon="2.92293">
        <ele>634</ele>
        <time>2021-08-27T10:41:28Z</time>
      </trkpt>
      <trkpt lat="44.50283" lon="2.92296">
        <ele>635</ele>
        <time>2021-08-27T10:41:30Z</time>
      </trkpt>
      <trkpt lat="44.50294" lon="2.92302">
        <ele>636</ele>
        <time>2021-08-27T10:41:34Z</time>
      </trkpt>
      <trkpt lat="44.50303" lon="2.9231">
        <ele>637</ele>
        <time>2021-08-27T10:41:38Z</time>
      </trkpt>
      <trkpt lat="44.50356" lon="2.92328">
        <ele>641</ele>
        <time>2021-08-27T10:42:00Z</time>
      </trkpt>
      <trkpt lat="44.50433" lon="2.9233">
        <ele>648</ele>
        <time>2021-08-27T10:42:31Z</time>
      </trkpt>
      <trkpt lat="44.50469" lon="2.92346">
        <ele>649</ele>
        <time>2021-08-27T10:42:45Z</time>
      </trkpt>
      <trkpt lat="44.50525" lon="2.92385">
        <ele>652</ele>
        <time>2021-08-27T10:43:07Z</time>
      </trkpt>
      <trkpt lat="44.50605" lon="2.92455">
        <ele>654</ele>
        <time>2021-08-27T10:43:37Z</time>
      </trkpt>
      <trkpt lat="44.50655" lon="2.92501">
        <ele>658</ele>
        <time>2021-08-27T10:43:57Z</time>
      </trkpt>
      <trkpt lat="44.50666" lon="2.92507">
        <ele>659</ele>
        <time>2021-08-27T10:44:01Z</time>
      </trkpt>
      <trkpt lat="44.50703" lon="2.92489">
        <ele>660</ele>
        <time>2021-08-27T10:44:18Z</time>
      </trkpt>
      <trkpt lat="44.50706" lon="2.92365">
        <ele>671</ele>
        <time>2021-08-27T10:44:50Z</time>
      </trkpt>
      <trkpt lat="44.50711" lon="2.92345">
        <ele>671</ele>
        <time>2021-08-27T10:44:54Z</time>
      </trkpt>
      <trkpt lat="44.50744" lon="2.92282">
        <ele>669</ele>
        <time>2021-08-27T10:45:06Z</time>
      </trkpt>
      <trkpt lat="44.50746" lon="2.92276">
        <ele>669</ele>
        <time>2021-08-27T10:45:07Z</time>
      </trkpt>
      <trkpt lat="44.50744" lon="2.92242">
        <ele>669</ele>
        <time>2021-08-27T10:45:12Z</time>
      </trkpt>
      <trkpt lat="44.50726" lon="2.92161">
        <ele>669</ele>
        <time>2021-08-27T10:45:27Z</time>
      </trkpt>
      <trkpt lat="44.50726" lon="2.92151">
        <ele>669</ele>
        <time>2021-08-27T10:45:29Z</time>
      </trkpt>
      <trkpt lat="44.50729" lon="2.92132">
        <ele>670</ele>
        <time>2021-08-27T10:45:33Z</time>
      </trkpt>
      <trkpt lat="44.50791" lon="2.92031">
        <ele>674</ele>
        <time>2021-08-27T10:46:01Z</time>
      </trkpt>
      <trkpt lat="44.50843" lon="2.91953">
        <ele>671</ele>
        <time>2021-08-27T10:46:21Z</time>
      </trkpt>
      <trkpt lat="44.50908" lon="2.91823">
        <ele>673</ele>
        <time>2021-08-27T10:46:51Z</time>
      </trkpt>
      <trkpt lat="44.5098" lon="2.91692">
        <ele>676</ele>
        <time>2021-08-27T10:47:23Z</time>
      </trkpt>
      <trkpt lat="44.51042" lon="2.91566">
        <ele>676</ele>
        <time>2021-08-27T10:47:53Z</time>
      </trkpt>
      <trkpt lat="44.51112" lon="2.91482">
        <ele>679</ele>
        <time>2021-08-27T10:48:17Z</time>
      </trkpt>
      <trkpt lat="44.51194" lon="2.91428">
        <ele>681</ele>
        <time>2021-08-27T10:48:39Z</time>
      </trkpt>
      <trkpt lat="44.51255" lon="2.91392">
        <ele>684</ele>
        <time>2021-08-27T10:48:55Z</time>
      </trkpt>
      <trkpt lat="44.51283" lon="2.9137">
        <ele>684</ele>
        <time>2021-08-27T10:49:03Z</time>
      </trkpt>
      <trkpt lat="44.51342" lon="2.91286">
        <ele>686</ele>
        <time>2021-08-27T10:49:25Z</time>
      </trkpt>
      <trkpt lat="44.51362" lon="2.9127">
        <ele>687</ele>
        <time>2021-08-27T10:49:31Z</time>
      </trkpt>
      <trkpt lat="44.51473" lon="2.91226">
        <ele>692</ele>
        <time>2021-08-27T10:50:01Z</time>
      </trkpt>
      <trkpt lat="44.51557" lon="2.91224">
        <ele>696</ele>
        <time>2021-08-27T10:50:23Z</time>
      </trkpt>
      <trkpt lat="44.51603" lon="2.91225">
        <ele>699</ele>
        <time>2021-08-27T10:50:35Z</time>
      </trkpt>
      <trkpt lat="44.51684" lon="2.91197">
        <ele>703</ele>
        <time>2021-08-27T10:50:57Z</time>
      </trkpt>
      <trkpt lat="44.51703" lon="2.91187">
        <ele>705</ele>
        <time>2021-08-27T10:51:03Z</time>
      </trkpt>
      <trkpt lat="44.51721" lon="2.9118">
        <ele>706</ele>
        <time>2021-08-27T10:51:09Z</time>
      </trkpt>
      <trkpt lat="44.51745" lon="2.91168">
        <ele>708</ele>
        <time>2021-08-27T10:51:17Z</time>
      </trkpt>
      <trkpt lat="44.5179" lon="2.91135">
        <ele>712</ele>
        <time>2021-08-27T10:51:33Z</time>
      </trkpt>
      <trkpt lat="44.51842" lon="2.91139">
        <ele>716</ele>
        <time>2021-08-27T10:51:51Z</time>
      </trkpt>
      <trkpt lat="44.51886" lon="2.91247">
        <ele>716</ele>
        <time>2021-08-27T10:52:21Z</time>
      </trkpt>
      <trkpt lat="44.51925" lon="2.91358">
        <ele>716</ele>
        <time>2021-08-27T10:52:51Z</time>
      </trkpt>
      <trkpt lat="44.51956" lon="2.91487">
        <ele>722</ele>
        <time>2021-08-27T10:53:23Z</time>
      </trkpt>
      <trkpt lat="44.51996" lon="2.91608">
        <ele>728</ele>
        <time>2021-08-27T10:53:53Z</time>
      </trkpt>
      <trkpt lat="44.52026" lon="2.91728">
        <ele>734</ele>
        <time>2021-08-27T10:54:23Z</time>
      </trkpt>
      <trkpt lat="44.52044" lon="2.91875">
        <ele>740</ele>
        <time>2021-08-27T10:54:53Z</time>
      </trkpt>
      <trkpt lat="44.52026" lon="2.92008">
        <ele>740</ele>
        <time>2021-08-27T10:55:24Z</time>
      </trkpt>
      <trkpt lat="44.52" lon="2.92134">
        <ele>742</ele>
        <time>2021-08-27T10:55:54Z</time>
      </trkpt>
      <trkpt lat="44.51987" lon="2.92251">
        <ele>741</ele>
        <time>2021-08-27T10:56:25Z</time>
      </trkpt>
      <trkpt lat="44.51947" lon="2.92384">
        <ele>744</ele>
        <time>2021-08-27T10:56:56Z</time>
      </trkpt>
      <trkpt lat="44.51901" lon="2.92506">
        <ele>748</ele>
        <time>2021-08-27T10:57:26Z</time>
      </trkpt>
      <trkpt lat="44.51828" lon="2.92601">
        <ele>737</ele>
        <time>2021-08-27T10:57:58Z</time>
      </trkpt>
      <trkpt lat="44.51823" lon="2.92608">
        <ele>735</ele>
        <time>2021-08-27T10:58:01Z</time>
      </trkpt>
      <trkpt lat="44.51812" lon="2.92621">
        <ele>733</ele>
        <time>2021-08-27T10:58:06Z</time>
      </trkpt>
      <trkpt lat="44.51785" lon="2.9266">
        <ele>730</ele>
        <time>2021-08-27T10:58:18Z</time>
      </trkpt>
      <trkpt lat="44.51774" lon="2.92685">
        <ele>732</ele>
        <time>2021-08-27T10:58:24Z</time>
      </trkpt>
      <trkpt lat="44.51766" lon="2.92724">
        <ele>738</ele>
        <time>2021-08-27T10:58:30Z</time>
      </trkpt>
      <trkpt lat="44.51765" lon="2.92731">
        <ele>740</ele>
        <time>2021-08-27T10:58:31Z</time>
      </trkpt>
      <trkpt lat="44.51765" lon="2.92743">
        <ele>744</ele>
        <time>2021-08-27T10:58:33Z</time>
      </trkpt>
      <trkpt lat="44.51766" lon="2.92753">
        <ele>747</ele>
        <time>2021-08-27T10:58:35Z</time>
      </trkpt>
      <trkpt lat="44.51767" lon="2.92762">
        <ele>748</ele>
        <time>2021-08-27T10:58:37Z</time>
      </trkpt>
      <trkpt lat="44.5177" lon="2.92771">
        <ele>751</ele>
        <time>2021-08-27T10:58:39Z</time>
      </trkpt>
      <trkpt lat="44.5179" lon="2.9281">
        <ele>760</ele>
        <time>2021-08-27T10:58:49Z</time>
      </trkpt>
      <trkpt lat="44.51817" lon="2.92842">
        <ele>766</ele>
        <time>2021-08-27T10:59:01Z</time>
      </trkpt>
      <trkpt lat="44.51895" lon="2.9291">
        <ele>776</ele>
        <time>2021-08-27T10:59:31Z</time>
      </trkpt>
      <trkpt lat="44.51943" lon="2.92953">
        <ele>780</ele>
        <time>2021-08-27T10:59:49Z</time>
      </trkpt>
      <trkpt lat="44.51995" lon="2.93037">
        <ele>785</ele>
        <time>2021-08-27T11:00:15Z</time>
      </trkpt>
      <trkpt lat="44.52018" lon="2.93078">
        <ele>787</ele>
        <time>2021-08-27T11:00:27Z</time>
      </trkpt>
      <trkpt lat="44.52038" lon="2.931">
        <ele>788</ele>
        <time>2021-08-27T11:00:35Z</time>
      </trkpt>
      <trkpt lat="44.52066" lon="2.93122">
        <ele>791</ele>
        <time>2021-08-27T11:00:45Z</time>
      </trkpt>
      <trkpt lat="44.52133" lon="2.93143">
        <ele>793</ele>
        <time>2021-08-27T11:01:07Z</time>
      </trkpt>
      <trkpt lat="44.52159" lon="2.93161">
        <ele>795</ele>
        <time>2021-08-27T11:01:17Z</time>
      </trkpt>
      <trkpt lat="44.52173" lon="2.93176">
        <ele>796</ele>
        <time>2021-08-27T11:01:23Z</time>
      </trkpt>
      <trkpt lat="44.5223" lon="2.93274">
        <ele>800</ele>
        <time>2021-08-27T11:01:53Z</time>
      </trkpt>
      <trkpt lat="44.52286" lon="2.93382">
        <ele>804</ele>
        <time>2021-08-27T11:02:23Z</time>
      </trkpt>
      <trkpt lat="44.5233" lon="2.9347">
        <ele>808</ele>
        <time>2021-08-27T11:02:47Z</time>
      </trkpt>
      <trkpt lat="44.52374" lon="2.93522">
        <ele>811</ele>
        <time>2021-08-27T11:03:05Z</time>
      </trkpt>
      <trkpt lat="44.52427" lon="2.93559">
        <ele>814</ele>
        <time>2021-08-27T11:03:23Z</time>
      </trkpt>
      <trkpt lat="44.52515" lon="2.93588">
        <ele>820</ele>
        <time>2021-08-27T11:03:51Z</time>
      </trkpt>
      <trkpt lat="44.52553" lon="2.93616">
        <ele>823</ele>
        <time>2021-08-27T11:04:05Z</time>
      </trkpt>
      <trkpt lat="44.52587" lon="2.93665">
        <ele>825</ele>
        <time>2021-08-27T11:04:21Z</time>
      </trkpt>
      <trkpt lat="44.52612" lon="2.93725">
        <ele>827</ele>
        <time>2021-08-27T11:04:37Z</time>
      </trkpt>
      <trkpt lat="44.52625" lon="2.93783">
        <ele>827</ele>
        <time>2021-08-27T11:04:49Z</time>
      </trkpt>
      <trkpt lat="44.52628" lon="2.93825">
        <ele>827</ele>
        <time>2021-08-27T11:04:57Z</time>
      </trkpt>
      <trkpt lat="44.5262" lon="2.93893">
        <ele>829</ele>
        <time>2021-08-27T11:05:11Z</time>
      </trkpt>
      <trkpt lat="44.52576" lon="2.94031">
        <ele>829</ele>
        <time>2021-08-27T11:05:41Z</time>
      </trkpt>
      <trkpt lat="44.52565" lon="2.94065">
        <ele>829</ele>
        <time>2021-08-27T11:05:49Z</time>
      </trkpt>
      <trkpt lat="44.5255" lon="2.94095">
        <ele>829</ele>
        <time>2021-08-27T11:05:57Z</time>
      </trkpt>
      <trkpt lat="44.52545" lon="2.94102">
        <ele>829</ele>
        <time>2021-08-27T11:05:59Z</time>
      </trkpt>
      <trkpt lat="44.52541" lon="2.9411">
        <ele>830</ele>
        <time>2021-08-27T11:06:01Z</time>
      </trkpt>
      <trkpt lat="44.52526" lon="2.94133">
        <ele>830</ele>
        <time>2021-08-27T11:06:07Z</time>
      </trkpt>
      <trkpt lat="44.52514" lon="2.94157">
        <ele>832</ele>
        <time>2021-08-27T11:06:13Z</time>
      </trkpt>
      <trkpt lat="44.52508" lon="2.94186">
        <ele>833</ele>
        <time>2021-08-27T11:06:19Z</time>
      </trkpt>
      <trkpt lat="44.52509" lon="2.94218">
        <ele>834</ele>
        <time>2021-08-27T11:06:25Z</time>
      </trkpt>
      <trkpt lat="44.52514" lon="2.94238">
        <ele>834</ele>
        <time>2021-08-27T11:06:29Z</time>
      </trkpt>
      <trkpt lat="44.52524" lon="2.94255">
        <ele>835</ele>
        <time>2021-08-27T11:06:33Z</time>
      </trkpt>
      <trkpt lat="44.52631" lon="2.94335">
        <ele>841</ele>
        <time>2021-08-27T11:07:05Z</time>
      </trkpt>
      <trkpt lat="44.52674" lon="2.94359">
        <ele>845</ele>
        <time>2021-08-27T11:07:17Z</time>
      </trkpt>
      <trkpt lat="44.5269" lon="2.94366">
        <ele>846</ele>
        <time>2021-08-27T11:07:21Z</time>
      </trkpt>
      <trkpt lat="44.527" lon="2.94366">
        <ele>847</ele>
        <time>2021-08-27T11:07:23Z</time>
      </trkpt>
      <trkpt lat="44.52742" lon="2.94347">
        <ele>847</ele>
        <time>2021-08-27T11:07:31Z</time>
      </trkpt>
      <trkpt lat="44.52875" lon="2.94349">
        <ele>847</ele>
        <time>2021-08-27T11:07:55Z</time>
      </trkpt>
      <trkpt lat="44.52893" lon="2.94355">
        <ele>847</ele>
        <time>2021-08-27T11:07:59Z</time>
      </trkpt>
      <trkpt lat="44.52959" lon="2.94398">
        <ele>852</ele>
        <time>2021-08-27T11:08:19Z</time>
      </trkpt>
      <trkpt lat="44.52976" lon="2.94414">
        <ele>852</ele>
        <time>2021-08-27T11:08:25Z</time>
      </trkpt>
      <trkpt lat="44.53067" lon="2.94477">
        <ele>850</ele>
        <time>2021-08-27T11:08:55Z</time>
      </trkpt>
      <trkpt lat="44.53142" lon="2.94532">
        <ele>854</ele>
        <time>2021-08-27T11:09:17Z</time>
      </trkpt>
      <trkpt lat="44.53156" lon="2.94539">
        <ele>855</ele>
        <time>2021-08-27T11:09:21Z</time>
      </trkpt>
      <trkpt lat="44.5317" lon="2.94541">
        <ele>855</ele>
        <time>2021-08-27T11:09:25Z</time>
      </trkpt>
      <trkpt lat="44.53243" lon="2.9451">
        <ele>854</ele>
        <time>2021-08-27T11:09:45Z</time>
      </trkpt>
      <trkpt lat="44.5327" lon="2.94487">
        <ele>854</ele>
        <time>2021-08-27T11:09:53Z</time>
      </trkpt>
      <trkpt lat="44.53288" lon="2.94459">
        <ele>854</ele>
        <time>2021-08-27T11:10:00Z</time>
      </trkpt>
      <trkpt lat="44.53342" lon="2.94305">
        <ele>860</ele>
        <time>2021-08-27T11:10:31Z</time>
      </trkpt>
      <trkpt lat="44.53375" lon="2.94186">
        <ele>865</ele>
        <time>2021-08-27T11:10:59Z</time>
      </trkpt>
      <trkpt lat="44.53377" lon="2.94134">
        <ele>867</ele>
        <time>2021-08-27T11:11:11Z</time>
      </trkpt>
      <trkpt lat="44.53359" lon="2.9401">
        <ele>874</ele>
        <time>2021-08-27T11:11:41Z</time>
      </trkpt>
      <trkpt lat="44.53356" lon="2.93986">
        <ele>875</ele>
        <time>2021-08-27T11:11:47Z</time>
      </trkpt>
      <trkpt lat="44.53355" lon="2.93978">
        <ele>875</ele>
        <time>2021-08-27T11:11:49Z</time>
      </trkpt>
      <trkpt lat="44.53343" lon="2.93936">
        <ele>873</ele>
        <time>2021-08-27T11:12:02Z</time>
      </trkpt>
      <trkpt lat="44.53339" lon="2.93935">
        <ele>874</ele>
        <time>2021-08-27T11:12:34Z</time>
      </trkpt>
      <trkpt lat="44.53333" lon="2.9393">
        <ele>873</ele>
        <time>2021-08-27T11:12:37Z</time>
      </trkpt>
      <trkpt lat="44.53325" lon="2.93929">
        <ele>872</ele>
        <time>2021-08-27T11:12:39Z</time>
      </trkpt>
      <trkpt lat="44.53313" lon="2.93925">
        <ele>870</ele>
        <time>2021-08-27T11:12:44Z</time>
      </trkpt>
      <trkpt lat="44.53312" lon="2.93916">
        <ele>869</ele>
        <time>2021-08-27T11:12:46Z</time>
      </trkpt>
      <trkpt lat="44.53311" lon="2.93908">
        <ele>868</ele>
        <time>2021-08-27T11:12:48Z</time>
      </trkpt>
      <trkpt lat="44.53314" lon="2.93907">
        <ele>865</ele>
        <time>2021-08-27T11:12:58Z</time>
      </trkpt>
      <trkpt lat="44.53318" lon="2.93915">
        <ele>865</ele>
        <time>2021-08-27T11:13:01Z</time>
      </trkpt>
      <trkpt lat="44.5333" lon="2.93916">
        <ele>860</ele>
        <time>2021-08-27T11:13:08Z</time>
      </trkpt>
      <trkpt lat="44.53333" lon="2.93924">
        <ele>862</ele>
        <time>2021-08-27T11:13:10Z</time>
      </trkpt>
      <trkpt lat="44.53338" lon="2.9393">
        <ele>865</ele>
        <time>2021-08-27T11:13:13Z</time>
      </trkpt>
      <trkpt lat="44.53343" lon="2.93931">
        <ele>866</ele>
        <time>2021-08-27T11:13:17Z</time>
      </trkpt>
      <trkpt lat="44.53343" lon="2.93914">
        <ele>869</ele>
        <time>2021-08-27T11:13:23Z</time>
      </trkpt>
      <trkpt lat="44.53339" lon="2.93898">
        <ele>869</ele>
        <time>2021-08-27T11:13:29Z</time>
      </trkpt>
      <trkpt lat="44.53336" lon="2.93893">
        <ele>869</ele>
        <time>2021-08-27T11:13:31Z</time>
      </trkpt>
      <trkpt lat="44.53333" lon="2.93886">
        <ele>867</ele>
        <time>2021-08-27T11:13:34Z</time>
      </trkpt>
      <trkpt lat="44.53331" lon="2.93876">
        <ele>868</ele>
        <time>2021-08-27T11:13:37Z</time>
      </trkpt>
      <trkpt lat="44.53332" lon="2.93869">
        <ele>868</ele>
        <time>2021-08-27T11:13:40Z</time>
      </trkpt>
      <trkpt lat="44.53336" lon="2.93878">
        <ele>866</ele>
        <time>2021-08-27T11:13:48Z</time>
      </trkpt>
      <trkpt lat="44.53346" lon="2.93902">
        <ele>863</ele>
        <time>2021-08-27T11:13:55Z</time>
      </trkpt>
      <trkpt lat="44.5335" lon="2.93904">
        <ele>864</ele>
        <time>2021-08-27T11:17:42Z</time>
      </trkpt>
      <trkpt lat="44.53352" lon="2.93911">
        <ele>864</ele>
        <time>2021-08-27T11:17:53Z</time>
      </trkpt>
      <trkpt lat="44.53354" lon="2.93917">
        <ele>864</ele>
        <time>2021-08-27T11:18:06Z</time>
      </trkpt>
      <trkpt lat="44.53349" lon="2.93918">
        <ele>862</ele>
        <time>2021-08-27T11:18:30Z</time>
      </trkpt>
      <trkpt lat="44.53349" lon="2.9391">
        <ele>865</ele>
        <time>2021-08-27T11:19:01Z</time>
      </trkpt>
      <trkpt lat="44.53351" lon="2.93913">
        <ele>867</ele>
        <time>2021-08-27T11:24:08Z</time>
      </trkpt>
      <trkpt lat="44.53343" lon="2.93905">
        <ele>866</ele>
        <time>2021-08-27T11:24:44Z</time>
      </trkpt>
      <trkpt lat="44.53347" lon="2.93899">
        <ele>861</ele>
        <time>2021-08-27T11:25:41Z</time>
      </trkpt>
      <trkpt lat="44.53347" lon="2.93899">
        <ele>859</ele>
        <time>2021-08-27T11:29:11Z</time>
      </trkpt>
      <trkpt lat="44.53352" lon="2.93906">
        <ele>859</ele>
        <time>2021-08-27T11:30:34Z</time>
      </trkpt>
      <trkpt lat="44.53355" lon="2.939">
        <ele>863</ele>
        <time>2021-08-27T11:31:12Z</time>
      </trkpt>
      <trkpt lat="44.53356" lon="2.93881">
        <ele>861</ele>
        <time>2021-08-27T11:32:01Z</time>
      </trkpt>
      <trkpt lat="44.53353" lon="2.93887">
        <ele>845</ele>
        <time>2021-08-27T11:32:29Z</time>
      </trkpt>
      <trkpt lat="44.53354" lon="2.93902">
        <ele>860</ele>
        <time>2021-08-27T11:33:16Z</time>
      </trkpt>
      <trkpt lat="44.53354" lon="2.93906">
        <ele>862</ele>
        <time>2021-08-27T11:34:04Z</time>
      </trkpt>
      <trkpt lat="44.5336" lon="2.93905">
        <ele>869</ele>
        <time>2021-08-27T11:34:34Z</time>
      </trkpt>
      <trkpt lat="44.5336" lon="2.93915">
        <ele>875</ele>
        <time>2021-08-27T11:36:35Z</time>
      </trkpt>
      <trkpt lat="44.53357" lon="2.93922">
        <ele>876</ele>
        <time>2021-08-27T11:36:37Z</time>
      </trkpt>
      <trkpt lat="44.53358" lon="2.93947">
        <ele>876</ele>
        <time>2021-08-27T11:36:43Z</time>
      </trkpt>
      <trkpt lat="44.53361" lon="2.93963">
        <ele>877</ele>
        <time>2021-08-27T11:36:47Z</time>
      </trkpt>
      <trkpt lat="44.53362" lon="2.9397">
        <ele>876</ele>
        <time>2021-08-27T11:36:49Z</time>
      </trkpt>
      <trkpt lat="44.53361" lon="2.9397">
        <ele>878</ele>
        <time>2021-08-27T11:38:13Z</time>
      </trkpt>
      <trkpt lat="44.53358" lon="2.93973">
        <ele>880</ele>
        <time>2021-08-27T11:40:28Z</time>
      </trkpt>
      <trkpt lat="44.53356" lon="2.93972">
        <ele>880</ele>
        <time>2021-08-27T11:48:59Z</time>
      </trkpt>
      <trkpt lat="44.53352" lon="2.93977">
        <ele>881</ele>
        <time>2021-08-27T11:49:48Z</time>
      </trkpt>
      <trkpt lat="44.5335" lon="2.93973">
        <ele>879</ele>
        <time>2021-08-27T11:55:03Z</time>
      </trkpt>
      <trkpt lat="44.53345" lon="2.93958">
        <ele>880</ele>
        <time>2021-08-27T11:55:07Z</time>
      </trkpt>
      <trkpt lat="44.53343" lon="2.93945">
        <ele>882</ele>
        <time>2021-08-27T11:55:11Z</time>
      </trkpt>
      <trkpt lat="44.53341" lon="2.93929">
        <ele>883</ele>
        <time>2021-08-27T11:55:16Z</time>
      </trkpt>
      <trkpt lat="44.53339" lon="2.93922">
        <ele>883</ele>
        <time>2021-08-27T11:55:19Z</time>
      </trkpt>
      <trkpt lat="44.53339" lon="2.93908">
        <ele>882</ele>
        <time>2021-08-27T11:55:25Z</time>
      </trkpt>
      <trkpt lat="44.53338" lon="2.939">
        <ele>882</ele>
        <time>2021-08-27T11:55:28Z</time>
      </trkpt>
      <trkpt lat="44.53327" lon="2.93835">
        <ele>881</ele>
        <time>2021-08-27T11:55:54Z</time>
      </trkpt>
      <trkpt lat="44.53308" lon="2.93771">
        <ele>883</ele>
        <time>2021-08-27T11:56:15Z</time>
      </trkpt>
      <trkpt lat="44.53286" lon="2.93688">
        <ele>881</ele>
        <time>2021-08-27T11:56:43Z</time>
      </trkpt>
      <trkpt lat="44.53286" lon="2.93674">
        <ele>882</ele>
        <time>2021-08-27T11:56:47Z</time>
      </trkpt>
      <trkpt lat="44.53294" lon="2.93655">
        <ele>883</ele>
        <time>2021-08-27T11:56:53Z</time>
      </trkpt>
      <trkpt lat="44.53304" lon="2.93649">
        <ele>884</ele>
        <time>2021-08-27T11:56:57Z</time>
      </trkpt>
      <trkpt lat="44.53318" lon="2.93647">
        <ele>885</ele>
        <time>2021-08-27T11:57:03Z</time>
      </trkpt>
      <trkpt lat="44.53364" lon="2.93749">
        <ele>894</ele>
        <time>2021-08-27T11:57:35Z</time>
      </trkpt>
      <trkpt lat="44.53425" lon="2.93829">
        <ele>898</ele>
        <time>2021-08-27T11:58:06Z</time>
      </trkpt>
      <trkpt lat="44.53479" lon="2.93893">
        <ele>903</ele>
        <time>2021-08-27T11:58:39Z</time>
      </trkpt>
      <trkpt lat="44.53529" lon="2.93961">
        <ele>904</ele>
        <time>2021-08-27T11:59:12Z</time>
      </trkpt>
      <trkpt lat="44.53574" lon="2.94025">
        <ele>907</ele>
        <time>2021-08-27T11:59:42Z</time>
      </trkpt>
      <trkpt lat="44.53584" lon="2.9404">
        <ele>908</ele>
        <time>2021-08-27T11:59:48Z</time>
      </trkpt>
      <trkpt lat="44.53602" lon="2.94074">
        <ele>909</ele>
        <time>2021-08-27T12:00:02Z</time>
      </trkpt>
      <trkpt lat="44.53631" lon="2.94157">
        <ele>912</ele>
        <time>2021-08-27T12:00:33Z</time>
      </trkpt>
      <trkpt lat="44.53633" lon="2.94166">
        <ele>913</ele>
        <time>2021-08-27T12:00:36Z</time>
      </trkpt>
      <trkpt lat="44.53636" lon="2.94173">
        <ele>913</ele>
        <time>2021-08-27T12:00:39Z</time>
      </trkpt>
      <trkpt lat="44.53639" lon="2.94181">
        <ele>914</ele>
        <time>2021-08-27T12:00:42Z</time>
      </trkpt>
      <trkpt lat="44.53641" lon="2.94189">
        <ele>914</ele>
        <time>2021-08-27T12:00:45Z</time>
      </trkpt>
      <trkpt lat="44.53653" lon="2.94228">
        <ele>916</ele>
        <time>2021-08-27T12:00:59Z</time>
      </trkpt>
      <trkpt lat="44.53656" lon="2.94245">
        <ele>917</ele>
        <time>2021-08-27T12:01:05Z</time>
      </trkpt>
      <trkpt lat="44.5368" lon="2.94326">
        <ele>923</ele>
        <time>2021-08-27T12:01:35Z</time>
      </trkpt>
      <trkpt lat="44.53683" lon="2.94335">
        <ele>923</ele>
        <time>2021-08-27T12:01:38Z</time>
      </trkpt>
      <trkpt lat="44.53714" lon="2.94412">
        <ele>927</ele>
        <time>2021-08-27T12:02:07Z</time>
      </trkpt>
      <trkpt lat="44.53733" lon="2.94468">
        <ele>931</ele>
        <time>2021-08-27T12:02:25Z</time>
      </trkpt>
      <trkpt lat="44.53741" lon="2.94566">
        <ele>932</ele>
        <time>2021-08-27T12:02:49Z</time>
      </trkpt>
      <trkpt lat="44.53726" lon="2.94702">
        <ele>930</ele>
        <time>2021-08-27T12:03:21Z</time>
      </trkpt>
      <trkpt lat="44.53723" lon="2.94774">
        <ele>930</ele>
        <time>2021-08-27T12:03:37Z</time>
      </trkpt>
      <trkpt lat="44.53733" lon="2.94873">
        <ele>934</ele>
        <time>2021-08-27T12:03:59Z</time>
      </trkpt>
      <trkpt lat="44.5377" lon="2.94996">
        <ele>940</ele>
        <time>2021-08-27T12:04:29Z</time>
      </trkpt>
      <trkpt lat="44.53814" lon="2.95108">
        <ele>944</ele>
        <time>2021-08-27T12:04:59Z</time>
      </trkpt>
      <trkpt lat="44.53835" lon="2.95153">
        <ele>947</ele>
        <time>2021-08-27T12:05:11Z</time>
      </trkpt>
      <trkpt lat="44.53861" lon="2.95196">
        <ele>948</ele>
        <time>2021-08-27T12:05:23Z</time>
      </trkpt>
      <trkpt lat="44.53911" lon="2.95247">
        <ele>951</ele>
        <time>2021-08-27T12:05:43Z</time>
      </trkpt>
      <trkpt lat="44.5401" lon="2.95299">
        <ele>955</ele>
        <time>2021-08-27T12:06:15Z</time>
      </trkpt>
      <trkpt lat="44.54058" lon="2.95309">
        <ele>957</ele>
        <time>2021-08-27T12:06:29Z</time>
      </trkpt>
      <trkpt lat="44.54087" lon="2.95307">
        <ele>958</ele>
        <time>2021-08-27T12:06:37Z</time>
      </trkpt>
      <trkpt lat="44.54195" lon="2.95262">
        <ele>960</ele>
        <time>2021-08-27T12:07:09Z</time>
      </trkpt>
      <trkpt lat="44.54223" lon="2.95255">
        <ele>960</ele>
        <time>2021-08-27T12:07:17Z</time>
      </trkpt>
      <trkpt lat="44.5432" lon="2.95282">
        <ele>964</ele>
        <time>2021-08-27T12:07:47Z</time>
      </trkpt>
      <trkpt lat="44.54398" lon="2.9533">
        <ele>968</ele>
        <time>2021-08-27T12:08:17Z</time>
      </trkpt>
      <trkpt lat="44.54475" lon="2.95423">
        <ele>971</ele>
        <time>2021-08-27T12:08:49Z</time>
      </trkpt>
      <trkpt lat="44.54501" lon="2.95453">
        <ele>972</ele>
        <time>2021-08-27T12:08:59Z</time>
      </trkpt>
      <trkpt lat="44.54599" lon="2.95536">
        <ele>974</ele>
        <time>2021-08-27T12:09:31Z</time>
      </trkpt>
      <trkpt lat="44.54614" lon="2.95553">
        <ele>975</ele>
        <time>2021-08-27T12:09:37Z</time>
      </trkpt>
      <trkpt lat="44.54654" lon="2.95637">
        <ele>978</ele>
        <time>2021-08-27T12:09:59Z</time>
      </trkpt>
      <trkpt lat="44.54656" lon="2.95644">
        <ele>978</ele>
        <time>2021-08-27T12:10:01Z</time>
      </trkpt>
      <trkpt lat="44.54675" lon="2.95678">
        <ele>981</ele>
        <time>2021-08-27T12:10:14Z</time>
      </trkpt>
      <trkpt lat="44.54721" lon="2.95734">
        <ele>984</ele>
        <time>2021-08-27T12:10:37Z</time>
      </trkpt>
      <trkpt lat="44.54755" lon="2.95797">
        <ele>988</ele>
        <time>2021-08-27T12:10:57Z</time>
      </trkpt>
      <trkpt lat="44.54775" lon="2.95813">
        <ele>989</ele>
        <time>2021-08-27T12:11:05Z</time>
      </trkpt>
      <trkpt lat="44.54848" lon="2.9585">
        <ele>992</ele>
        <time>2021-08-27T12:11:31Z</time>
      </trkpt>
      <trkpt lat="44.54885" lon="2.95884">
        <ele>992</ele>
        <time>2021-08-27T12:11:45Z</time>
      </trkpt>
      <trkpt lat="44.549" lon="2.95902">
        <ele>992</ele>
        <time>2021-08-27T12:11:51Z</time>
      </trkpt>
      <trkpt lat="44.54909" lon="2.95918">
        <ele>992</ele>
        <time>2021-08-27T12:11:55Z</time>
      </trkpt>
      <trkpt lat="44.54911" lon="2.95926">
        <ele>992</ele>
        <time>2021-08-27T12:11:57Z</time>
      </trkpt>
      <trkpt lat="44.5491" lon="2.95962">
        <ele>993</ele>
        <time>2021-08-27T12:12:05Z</time>
      </trkpt>
      <trkpt lat="44.54905" lon="2.95998">
        <ele>994</ele>
        <time>2021-08-27T12:12:15Z</time>
      </trkpt>
      <trkpt lat="44.54916" lon="2.96119">
        <ele>999</ele>
        <time>2021-08-27T12:12:45Z</time>
      </trkpt>
      <trkpt lat="44.54921" lon="2.9616">
        <ele>999</ele>
        <time>2021-08-27T12:12:55Z</time>
      </trkpt>
      <trkpt lat="44.54927" lon="2.96179">
        <ele>999</ele>
        <time>2021-08-27T12:12:59Z</time>
      </trkpt>
      <trkpt lat="44.55028" lon="2.96363">
        <ele>991</ele>
        <time>2021-08-27T12:13:23Z</time>
      </trkpt>
      <trkpt lat="44.55069" lon="2.96408">
        <ele>989</ele>
        <time>2021-08-27T12:13:29Z</time>
      </trkpt>
      <trkpt lat="44.55187" lon="2.96485">
        <ele>991</ele>
        <time>2021-08-27T12:13:52Z</time>
      </trkpt>
      <trkpt lat="44.55208" lon="2.96496">
        <ele>993</ele>
        <time>2021-08-27T12:14:00Z</time>
      </trkpt>
      <trkpt lat="44.55232" lon="2.96512">
        <ele>996</ele>
        <time>2021-08-27T12:14:10Z</time>
      </trkpt>
      <trkpt lat="44.55237" lon="2.96514">
        <ele>996</ele>
        <time>2021-08-27T12:14:12Z</time>
      </trkpt>
      <trkpt lat="44.5527" lon="2.96536">
        <ele>998</ele>
        <time>2021-08-27T12:14:26Z</time>
      </trkpt>
      <trkpt lat="44.55276" lon="2.96546">
        <ele>999</ele>
        <time>2021-08-27T12:14:30Z</time>
      </trkpt>
      <trkpt lat="44.55282" lon="2.96564">
        <ele>1000</ele>
        <time>2021-08-27T12:14:36Z</time>
      </trkpt>
      <trkpt lat="44.55289" lon="2.96659">
        <ele>1006</ele>
        <time>2021-08-27T12:15:09Z</time>
      </trkpt>
      <trkpt lat="44.55294" lon="2.96692">
        <ele>1008</ele>
        <time>2021-08-27T12:15:19Z</time>
      </trkpt>
      <trkpt lat="44.55305" lon="2.96726">
        <ele>1009</ele>
        <time>2021-08-27T12:15:29Z</time>
      </trkpt>
      <trkpt lat="44.55366" lon="2.96858">
        <ele>1008</ele>
        <time>2021-08-27T12:16:01Z</time>
      </trkpt>
      <trkpt lat="44.55437" lon="2.96982">
        <ele>1010</ele>
        <time>2021-08-27T12:16:31Z</time>
      </trkpt>
      <trkpt lat="44.55443" lon="2.96998">
        <ele>1011</ele>
        <time>2021-08-27T12:16:35Z</time>
      </trkpt>
      <trkpt lat="44.55461" lon="2.97114">
        <ele>1017</ele>
        <time>2021-08-27T12:17:07Z</time>
      </trkpt>
      <trkpt lat="44.55478" lon="2.97218">
        <ele>1023</ele>
        <time>2021-08-27T12:17:37Z</time>
      </trkpt>
      <trkpt lat="44.55492" lon="2.97302">
        <ele>1026</ele>
        <time>2021-08-27T12:18:01Z</time>
      </trkpt>
      <trkpt lat="44.55493" lon="2.97309">
        <ele>1025</ele>
        <time>2021-08-27T12:18:03Z</time>
      </trkpt>
      <trkpt lat="44.55493" lon="2.97315">
        <ele>1026</ele>
        <time>2021-08-27T12:18:06Z</time>
      </trkpt>
      <trkpt lat="44.55496" lon="2.97322">
        <ele>1027</ele>
        <time>2021-08-27T12:19:44Z</time>
      </trkpt>
      <trkpt lat="44.555" lon="2.97377">
        <ele>1028</ele>
        <time>2021-08-27T12:20:02Z</time>
      </trkpt>
      <trkpt lat="44.55505" lon="2.97411">
        <ele>1029</ele>
        <time>2021-08-27T12:20:13Z</time>
      </trkpt>
      <trkpt lat="44.55506" lon="2.9742">
        <ele>1030</ele>
        <time>2021-08-27T12:20:16Z</time>
      </trkpt>
      <trkpt lat="44.55506" lon="2.97426">
        <ele>1030</ele>
        <time>2021-08-27T12:20:18Z</time>
      </trkpt>
      <trkpt lat="44.55507" lon="2.97434">
        <ele>1031</ele>
        <time>2021-08-27T12:20:21Z</time>
      </trkpt>
      <trkpt lat="44.55508" lon="2.97442">
        <ele>1032</ele>
        <time>2021-08-27T12:20:24Z</time>
      </trkpt>
      <trkpt lat="44.55509" lon="2.9745">
        <ele>1032</ele>
        <time>2021-08-27T12:20:27Z</time>
      </trkpt>
      <trkpt lat="44.55515" lon="2.9747">
        <ele>1034</ele>
        <time>2021-08-27T12:20:36Z</time>
      </trkpt>
      <trkpt lat="44.55562" lon="2.97527">
        <ele>1044</ele>
        <time>2021-08-27T12:21:06Z</time>
      </trkpt>
      <trkpt lat="44.55567" lon="2.97532">
        <ele>1044</ele>
        <time>2021-08-27T12:21:09Z</time>
      </trkpt>
      <trkpt lat="44.55572" lon="2.97537">
        <ele>1045</ele>
        <time>2021-08-27T12:21:12Z</time>
      </trkpt>
      <trkpt lat="44.55591" lon="2.97554">
        <ele>1047</ele>
        <time>2021-08-27T12:21:24Z</time>
      </trkpt>
      <trkpt lat="44.55617" lon="2.97564">
        <ele>1050</ele>
        <time>2021-08-27T12:21:43Z</time>
      </trkpt>
      <trkpt lat="44.55628" lon="2.97568">
        <ele>1052</ele>
        <time>2021-08-27T12:21:49Z</time>
      </trkpt>
      <trkpt lat="44.55632" lon="2.97572">
        <ele>1053</ele>
        <time>2021-08-27T12:21:52Z</time>
      </trkpt>
      <trkpt lat="44.55637" lon="2.97575">
        <ele>1053</ele>
        <time>2021-08-27T12:21:55Z</time>
      </trkpt>
      <trkpt lat="44.55648" lon="2.97579">
        <ele>1055</ele>
        <time>2021-08-27T12:22:01Z</time>
      </trkpt>
      <trkpt lat="44.55659" lon="2.97583">
        <ele>1057</ele>
        <time>2021-08-27T12:22:07Z</time>
      </trkpt>
      <trkpt lat="44.55665" lon="2.97586">
        <ele>1057</ele>
        <time>2021-08-27T12:22:10Z</time>
      </trkpt>
      <trkpt lat="44.55675" lon="2.97593">
        <ele>1057</ele>
        <time>2021-08-27T12:22:16Z</time>
      </trkpt>
      <trkpt lat="44.55685" lon="2.97596">
        <ele>1058</ele>
        <time>2021-08-27T12:22:21Z</time>
      </trkpt>
      <trkpt lat="44.55702" lon="2.97605">
        <ele>1062</ele>
        <time>2021-08-27T12:22:30Z</time>
      </trkpt>
      <trkpt lat="44.55717" lon="2.97618">
        <ele>1061</ele>
        <time>2021-08-27T12:22:39Z</time>
      </trkpt>
      <trkpt lat="44.55729" lon="2.97636">
        <ele>1063</ele>
        <time>2021-08-27T12:22:47Z</time>
      </trkpt>
      <trkpt lat="44.55732" lon="2.97649">
        <ele>1064</ele>
        <time>2021-08-27T12:22:51Z</time>
      </trkpt>
      <trkpt lat="44.55736" lon="2.9769">
        <ele>1067</ele>
        <time>2021-08-27T12:23:05Z</time>
      </trkpt>
      <trkpt lat="44.55736" lon="2.97698">
        <ele>1067</ele>
        <time>2021-08-27T12:23:08Z</time>
      </trkpt>
      <trkpt lat="44.55741" lon="2.9775">
        <ele>1070</ele>
        <time>2021-08-27T12:23:26Z</time>
      </trkpt>
      <trkpt lat="44.55743" lon="2.97776">
        <ele>1071</ele>
        <time>2021-08-27T12:23:35Z</time>
      </trkpt>
      <trkpt lat="44.55743" lon="2.97792">
        <ele>1072</ele>
        <time>2021-08-27T12:23:41Z</time>
      </trkpt>
      <trkpt lat="44.55742" lon="2.97807">
        <ele>1075</ele>
        <time>2021-08-27T12:23:47Z</time>
      </trkpt>
      <trkpt lat="44.55742" lon="2.97817">
        <ele>1076</ele>
        <time>2021-08-27T12:23:50Z</time>
      </trkpt>
      <trkpt lat="44.55741" lon="2.97824">
        <ele>1076</ele>
        <time>2021-08-27T12:23:53Z</time>
      </trkpt>
      <trkpt lat="44.55748" lon="2.97914">
        <ele>1080</ele>
        <time>2021-08-27T12:24:22Z</time>
      </trkpt>
      <trkpt lat="44.55756" lon="2.97963">
        <ele>1085</ele>
        <time>2021-08-27T12:24:40Z</time>
      </trkpt>
      <trkpt lat="44.55761" lon="2.9801">
        <ele>1086</ele>
        <time>2021-08-27T12:24:55Z</time>
      </trkpt>
      <trkpt lat="44.55764" lon="2.98051">
        <ele>1088</ele>
        <time>2021-08-27T12:25:08Z</time>
      </trkpt>
      <trkpt lat="44.55773" lon="2.98138">
        <ele>1093</ele>
        <time>2021-08-27T12:25:38Z</time>
      </trkpt>
      <trkpt lat="44.55774" lon="2.98145">
        <ele>1094</ele>
        <time>2021-08-27T12:25:41Z</time>
      </trkpt>
      <trkpt lat="44.55802" lon="2.98204">
        <ele>1098</ele>
        <time>2021-08-27T12:26:05Z</time>
      </trkpt>
      <trkpt lat="44.55805" lon="2.98211">
        <ele>1099</ele>
        <time>2021-08-27T12:26:08Z</time>
      </trkpt>
      <trkpt lat="44.55835" lon="2.98271">
        <ele>1104</ele>
        <time>2021-08-27T12:26:38Z</time>
      </trkpt>
      <trkpt lat="44.55858" lon="2.98318">
        <ele>1105</ele>
        <time>2021-08-27T12:26:56Z</time>
      </trkpt>
      <trkpt lat="44.55866" lon="2.98332">
        <ele>1106</ele>
        <time>2021-08-27T12:27:02Z</time>
      </trkpt>
      <trkpt lat="44.55883" lon="2.98349">
        <ele>1107</ele>
        <time>2021-08-27T12:27:11Z</time>
      </trkpt>
      <trkpt lat="44.55893" lon="2.98357">
        <ele>1107</ele>
        <time>2021-08-27T12:27:15Z</time>
      </trkpt>
      <trkpt lat="44.55903" lon="2.98365">
        <ele>1105</ele>
        <time>2021-08-27T12:27:21Z</time>
      </trkpt>
      <trkpt lat="44.55939" lon="2.98394">
        <ele>1109</ele>
        <time>2021-08-27T12:27:43Z</time>
      </trkpt>
      <trkpt lat="44.55944" lon="2.98398">
        <ele>1109</ele>
        <time>2021-08-27T12:27:46Z</time>
      </trkpt>
      <trkpt lat="44.55959" lon="2.9841">
        <ele>1110</ele>
        <time>2021-08-27T12:27:56Z</time>
      </trkpt>
      <trkpt lat="44.55967" lon="2.98418">
        <ele>1110</ele>
        <time>2021-08-27T12:28:02Z</time>
      </trkpt>
      <trkpt lat="44.55972" lon="2.98422">
        <ele>1111</ele>
        <time>2021-08-27T12:28:05Z</time>
      </trkpt>
      <trkpt lat="44.55981" lon="2.98429">
        <ele>1112</ele>
        <time>2021-08-27T12:28:11Z</time>
      </trkpt>
      <trkpt lat="44.55991" lon="2.98436">
        <ele>1114</ele>
        <time>2021-08-27T12:28:17Z</time>
      </trkpt>
      <trkpt lat="44.55995" lon="2.98441">
        <ele>1114</ele>
        <time>2021-08-27T12:28:20Z</time>
      </trkpt>
      <trkpt lat="44.56013" lon="2.98456">
        <ele>1115</ele>
        <time>2021-08-27T12:28:31Z</time>
      </trkpt>
      <trkpt lat="44.56018" lon="2.9846">
        <ele>1115</ele>
        <time>2021-08-27T12:28:34Z</time>
      </trkpt>
      <trkpt lat="44.56022" lon="2.98463">
        <ele>1116</ele>
        <time>2021-08-27T12:28:37Z</time>
      </trkpt>
      <trkpt lat="44.56027" lon="2.98468">
        <ele>1116</ele>
        <time>2021-08-27T12:28:40Z</time>
      </trkpt>
      <trkpt lat="44.56052" lon="2.98487">
        <ele>1118</ele>
        <time>2021-08-27T12:28:55Z</time>
      </trkpt>
      <trkpt lat="44.56062" lon="2.98495">
        <ele>1120</ele>
        <time>2021-08-27T12:29:01Z</time>
      </trkpt>
      <trkpt lat="44.56067" lon="2.98499">
        <ele>1120</ele>
        <time>2021-08-27T12:29:04Z</time>
      </trkpt>
      <trkpt lat="44.56094" lon="2.98519">
        <ele>1122</ele>
        <time>2021-08-27T12:29:19Z</time>
      </trkpt>
      <trkpt lat="44.561" lon="2.98523">
        <ele>1122</ele>
        <time>2021-08-27T12:29:22Z</time>
      </trkpt>
      <trkpt lat="44.56106" lon="2.98525">
        <ele>1123</ele>
        <time>2021-08-27T12:29:25Z</time>
      </trkpt>
      <trkpt lat="44.56141" lon="2.98555">
        <ele>1127</ele>
        <time>2021-08-27T12:29:46Z</time>
      </trkpt>
      <trkpt lat="44.56145" lon="2.9856">
        <ele>1127</ele>
        <time>2021-08-27T12:29:49Z</time>
      </trkpt>
      <trkpt lat="44.56146" lon="2.98568">
        <ele>1128</ele>
        <time>2021-08-27T12:29:52Z</time>
      </trkpt>
      <trkpt lat="44.56146" lon="2.98577">
        <ele>1128</ele>
        <time>2021-08-27T12:29:55Z</time>
      </trkpt>
      <trkpt lat="44.56142" lon="2.98582">
        <ele>1128</ele>
        <time>2021-08-27T12:29:58Z</time>
      </trkpt>
      <trkpt lat="44.56137" lon="2.98584">
        <ele>1128</ele>
        <time>2021-08-27T12:30:00Z</time>
      </trkpt>
      <trkpt lat="44.56133" lon="2.98586">
        <ele>1129</ele>
        <time>2021-08-27T12:30:02Z</time>
      </trkpt>
      <trkpt lat="44.56122" lon="2.98593">
        <ele>1128</ele>
        <time>2021-08-27T12:30:08Z</time>
      </trkpt>
      <trkpt lat="44.561" lon="2.98601">
        <ele>1128</ele>
        <time>2021-08-27T12:30:18Z</time>
      </trkpt>
      <trkpt lat="44.56096" lon="2.98604">
        <ele>1128</ele>
        <time>2021-08-27T12:30:20Z</time>
      </trkpt>
      <trkpt lat="44.56087" lon="2.98612">
        <ele>1128</ele>
        <time>2021-08-27T12:30:25Z</time>
      </trkpt>
      <trkpt lat="44.56082" lon="2.98618">
        <ele>1129</ele>
        <time>2021-08-27T12:30:28Z</time>
      </trkpt>
      <trkpt lat="44.56077" lon="2.98622">
        <ele>1129</ele>
        <time>2021-08-27T12:30:31Z</time>
      </trkpt>
      <trkpt lat="44.56065" lon="2.98641">
        <ele>1131</ele>
        <time>2021-08-27T12:30:40Z</time>
      </trkpt>
      <trkpt lat="44.5606" lon="2.98656">
        <ele>1132</ele>
        <time>2021-08-27T12:30:46Z</time>
      </trkpt>
      <trkpt lat="44.56059" lon="2.98665">
        <ele>1133</ele>
        <time>2021-08-27T12:30:49Z</time>
      </trkpt>
      <trkpt lat="44.56059" lon="2.98674">
        <ele>1134</ele>
        <time>2021-08-27T12:30:52Z</time>
      </trkpt>
      <trkpt lat="44.56069" lon="2.98704">
        <ele>1136</ele>
        <time>2021-08-27T12:31:04Z</time>
      </trkpt>
      <trkpt lat="44.56074" lon="2.98718">
        <ele>1137</ele>
        <time>2021-08-27T12:31:10Z</time>
      </trkpt>
      <trkpt lat="44.56076" lon="2.98725">
        <ele>1138</ele>
        <time>2021-08-27T12:31:13Z</time>
      </trkpt>
      <trkpt lat="44.5608" lon="2.98742">
        <ele>1140</ele>
        <time>2021-08-27T12:31:19Z</time>
      </trkpt>
      <trkpt lat="44.56083" lon="2.9875">
        <ele>1140</ele>
        <time>2021-08-27T12:31:22Z</time>
      </trkpt>
      <trkpt lat="44.56095" lon="2.98778">
        <ele>1142</ele>
        <time>2021-08-27T12:31:33Z</time>
      </trkpt>
      <trkpt lat="44.56126" lon="2.98797">
        <ele>1146</ele>
        <time>2021-08-27T12:31:51Z</time>
      </trkpt>
      <trkpt lat="44.56132" lon="2.98799">
        <ele>1146</ele>
        <time>2021-08-27T12:31:54Z</time>
      </trkpt>
      <trkpt lat="44.56139" lon="2.98802">
        <ele>1147</ele>
        <time>2021-08-27T12:31:57Z</time>
      </trkpt>
      <trkpt lat="44.5615" lon="2.98808">
        <ele>1148</ele>
        <time>2021-08-27T12:32:03Z</time>
      </trkpt>
      <trkpt lat="44.56193" lon="2.98828">
        <ele>1151</ele>
        <time>2021-08-27T12:32:23Z</time>
      </trkpt>
      <trkpt lat="44.56199" lon="2.98832">
        <ele>1152</ele>
        <time>2021-08-27T12:32:26Z</time>
      </trkpt>
      <trkpt lat="44.56216" lon="2.98839">
        <ele>1153</ele>
        <time>2021-08-27T12:32:34Z</time>
      </trkpt>
      <trkpt lat="44.56222" lon="2.98843">
        <ele>1154</ele>
        <time>2021-08-27T12:32:37Z</time>
      </trkpt>
      <trkpt lat="44.56239" lon="2.98852">
        <ele>1154</ele>
        <time>2021-08-27T12:32:45Z</time>
      </trkpt>
      <trkpt lat="44.56244" lon="2.98854">
        <ele>1155</ele>
        <time>2021-08-27T12:32:47Z</time>
      </trkpt>
      <trkpt lat="44.56257" lon="2.98859">
        <ele>1155</ele>
        <time>2021-08-27T12:32:53Z</time>
      </trkpt>
      <trkpt lat="44.56262" lon="2.98862">
        <ele>1156</ele>
        <time>2021-08-27T12:32:55Z</time>
      </trkpt>
      <trkpt lat="44.56271" lon="2.98866">
        <ele>1156</ele>
        <time>2021-08-27T12:32:59Z</time>
      </trkpt>
      <trkpt lat="44.56285" lon="2.98876">
        <ele>1157</ele>
        <time>2021-08-27T12:33:06Z</time>
      </trkpt>
      <trkpt lat="44.56299" lon="2.98889">
        <ele>1160</ele>
        <time>2021-08-27T12:33:14Z</time>
      </trkpt>
      <trkpt lat="44.56336" lon="2.98965">
        <ele>1166</ele>
        <time>2021-08-27T12:34:13Z</time>
      </trkpt>
      <trkpt lat="44.56383" lon="2.99088">
        <ele>1172</ele>
        <time>2021-08-27T12:34:44Z</time>
      </trkpt>
      <trkpt lat="44.56437" lon="2.99236">
        <ele>1178</ele>
        <time>2021-08-27T12:35:16Z</time>
      </trkpt>
      <trkpt lat="44.56453" lon="2.99261">
        <ele>1179</ele>
        <time>2021-08-27T12:35:22Z</time>
      </trkpt>
      <trkpt lat="44.56485" lon="2.99293">
        <ele>1180</ele>
        <time>2021-08-27T12:35:32Z</time>
      </trkpt>
      <trkpt lat="44.56596" lon="2.99364">
        <ele>1191</ele>
        <time>2021-08-27T12:36:04Z</time>
      </trkpt>
      <trkpt lat="44.567" lon="2.99432">
        <ele>1195</ele>
        <time>2021-08-27T12:36:34Z</time>
      </trkpt>
      <trkpt lat="44.56719" lon="2.99448">
        <ele>1196</ele>
        <time>2021-08-27T12:36:40Z</time>
      </trkpt>
      <trkpt lat="44.568" lon="2.99538">
        <ele>1200</ele>
        <time>2021-08-27T12:37:12Z</time>
      </trkpt>
      <trkpt lat="44.56843" lon="2.99587">
        <ele>1199</ele>
        <time>2021-08-27T12:37:34Z</time>
      </trkpt>
      <trkpt lat="44.56864" lon="2.99601">
        <ele>1197</ele>
        <time>2021-08-27T12:37:44Z</time>
      </trkpt>
      <trkpt lat="44.56869" lon="2.99603">
        <ele>1196</ele>
        <time>2021-08-27T12:37:46Z</time>
      </trkpt>
      <trkpt lat="44.56875" lon="2.99606">
        <ele>1196</ele>
        <time>2021-08-27T12:37:49Z</time>
      </trkpt>
      <trkpt lat="44.569" lon="2.99608">
        <ele>1195</ele>
        <time>2021-08-27T12:37:59Z</time>
      </trkpt>
      <trkpt lat="44.56904" lon="2.99609">
        <ele>1195</ele>
        <time>2021-08-27T12:38:01Z</time>
      </trkpt>
      <trkpt lat="44.5692" lon="2.99614">
        <ele>1195</ele>
        <time>2021-08-27T12:38:09Z</time>
      </trkpt>
      <trkpt lat="44.56957" lon="2.99634">
        <ele>1194</ele>
        <time>2021-08-27T12:38:26Z</time>
      </trkpt>
      <trkpt lat="44.56963" lon="2.99637">
        <ele>1194</ele>
        <time>2021-08-27T12:38:29Z</time>
      </trkpt>
      <trkpt lat="44.56969" lon="2.99639">
        <ele>1194</ele>
        <time>2021-08-27T12:38:32Z</time>
      </trkpt>
      <trkpt lat="44.5702" lon="2.9966">
        <ele>1195</ele>
        <time>2021-08-27T12:38:56Z</time>
      </trkpt>
      <trkpt lat="44.57024" lon="2.99662">
        <ele>1195</ele>
        <time>2021-08-27T12:38:58Z</time>
      </trkpt>
      <trkpt lat="44.57041" lon="2.99669">
        <ele>1196</ele>
        <time>2021-08-27T12:39:06Z</time>
      </trkpt>
      <trkpt lat="44.57053" lon="2.99669">
        <ele>1197</ele>
        <time>2021-08-27T12:39:12Z</time>
      </trkpt>
      <trkpt lat="44.57062" lon="2.99656">
        <ele>1198</ele>
        <time>2021-08-27T12:39:18Z</time>
      </trkpt>
      <trkpt lat="44.5708" lon="2.99622">
        <ele>1200</ele>
        <time>2021-08-27T12:39:31Z</time>
      </trkpt>
      <trkpt lat="44.57088" lon="2.99613">
        <ele>1201</ele>
        <time>2021-08-27T12:39:35Z</time>
      </trkpt>
      <trkpt lat="44.57098" lon="2.99612">
        <ele>1201</ele>
        <time>2021-08-27T12:39:39Z</time>
      </trkpt>
      <trkpt lat="44.57103" lon="2.99613">
        <ele>1201</ele>
        <time>2021-08-27T12:39:41Z</time>
      </trkpt>
      <trkpt lat="44.57108" lon="2.99614">
        <ele>1202</ele>
        <time>2021-08-27T12:39:43Z</time>
      </trkpt>
      <trkpt lat="44.57112" lon="2.99618">
        <ele>1202</ele>
        <time>2021-08-27T12:39:45Z</time>
      </trkpt>
      <trkpt lat="44.57117" lon="2.99622">
        <ele>1202</ele>
        <time>2021-08-27T12:39:47Z</time>
      </trkpt>
      <trkpt lat="44.5713" lon="2.99633">
        <ele>1204</ele>
        <time>2021-08-27T12:39:55Z</time>
      </trkpt>
      <trkpt lat="44.57174" lon="2.9967">
        <ele>1210</ele>
        <time>2021-08-27T12:40:19Z</time>
      </trkpt>
      <trkpt lat="44.57178" lon="2.99674">
        <ele>1210</ele>
        <time>2021-08-27T12:40:22Z</time>
      </trkpt>
      <trkpt lat="44.57215" lon="2.99704">
        <ele>1210</ele>
        <time>2021-08-27T12:40:39Z</time>
      </trkpt>
      <trkpt lat="44.57224" lon="2.99713">
        <ele>1210</ele>
        <time>2021-08-27T12:40:45Z</time>
      </trkpt>
      <trkpt lat="44.57227" lon="2.99719">
        <ele>1212</ele>
        <time>2021-08-27T12:40:48Z</time>
      </trkpt>
      <trkpt lat="44.57232" lon="2.99724">
        <ele>1214</ele>
        <time>2021-08-27T12:40:51Z</time>
      </trkpt>
      <trkpt lat="44.57285" lon="2.99772">
        <ele>1224</ele>
        <time>2021-08-27T12:41:18Z</time>
      </trkpt>
      <trkpt lat="44.57289" lon="2.99779">
        <ele>1225</ele>
        <time>2021-08-27T12:41:21Z</time>
      </trkpt>
      <trkpt lat="44.57293" lon="2.998">
        <ele>1227</ele>
        <time>2021-08-27T12:41:30Z</time>
      </trkpt>
      <trkpt lat="44.57298" lon="2.9985">
        <ele>1231</ele>
        <time>2021-08-27T12:41:48Z</time>
      </trkpt>
      <trkpt lat="44.57299" lon="2.99859">
        <ele>1232</ele>
        <time>2021-08-27T12:41:51Z</time>
      </trkpt>
      <trkpt lat="44.57298" lon="2.99867">
        <ele>1232</ele>
        <time>2021-08-27T12:41:55Z</time>
      </trkpt>
      <trkpt lat="44.57298" lon="2.99905">
        <ele>1237</ele>
        <time>2021-08-27T12:42:06Z</time>
      </trkpt>
      <trkpt lat="44.57307" lon="2.99974">
        <ele>1238</ele>
        <time>2021-08-27T12:42:28Z</time>
      </trkpt>
      <trkpt lat="44.57314" lon="2.99998">
        <ele>1240</ele>
        <time>2021-08-27T12:42:37Z</time>
      </trkpt>
      <trkpt lat="44.57317" lon="3.00004">
        <ele>1240</ele>
        <time>2021-08-27T12:42:39Z</time>
      </trkpt>
      <trkpt lat="44.57319" lon="3.0001">
        <ele>1241</ele>
        <time>2021-08-27T12:42:41Z</time>
      </trkpt>
      <trkpt lat="44.5733" lon="3.00034">
        <ele>1241</ele>
        <time>2021-08-27T12:42:49Z</time>
      </trkpt>
      <trkpt lat="44.57337" lon="3.00046">
        <ele>1242</ele>
        <time>2021-08-27T12:42:54Z</time>
      </trkpt>
      <trkpt lat="44.57342" lon="3.00052">
        <ele>1244</ele>
        <time>2021-08-27T12:42:57Z</time>
      </trkpt>
      <trkpt lat="44.57366" lon="3.00093">
        <ele>1248</ele>
        <time>2021-08-27T12:43:15Z</time>
      </trkpt>
      <trkpt lat="44.57371" lon="3.00098">
        <ele>1248</ele>
        <time>2021-08-27T12:43:18Z</time>
      </trkpt>
      <trkpt lat="44.57379" lon="3.00107">
        <ele>1248</ele>
        <time>2021-08-27T12:43:23Z</time>
      </trkpt>
      <trkpt lat="44.57417" lon="3.00153">
        <ele>1247</ele>
        <time>2021-08-27T12:43:49Z</time>
      </trkpt>
      <trkpt lat="44.57421" lon="3.00157">
        <ele>1248</ele>
        <time>2021-08-27T12:43:51Z</time>
      </trkpt>
      <trkpt lat="44.57435" lon="3.00174">
        <ele>1248</ele>
        <time>2021-08-27T12:43:59Z</time>
      </trkpt>
      <trkpt lat="44.57439" lon="3.00178">
        <ele>1248</ele>
        <time>2021-08-27T12:44:02Z</time>
      </trkpt>
      <trkpt lat="44.57443" lon="3.00182">
        <ele>1248</ele>
        <time>2021-08-27T12:44:04Z</time>
      </trkpt>
      <trkpt lat="44.57448" lon="3.00187">
        <ele>1248</ele>
        <time>2021-08-27T12:44:07Z</time>
      </trkpt>
      <trkpt lat="44.57467" lon="3.00206">
        <ele>1248</ele>
        <time>2021-08-27T12:44:17Z</time>
      </trkpt>
      <trkpt lat="44.5747" lon="3.0021">
        <ele>1250</ele>
        <time>2021-08-27T12:44:19Z</time>
      </trkpt>
      <trkpt lat="44.57496" lon="3.00244">
        <ele>1252</ele>
        <time>2021-08-27T12:44:35Z</time>
      </trkpt>
      <trkpt lat="44.57499" lon="3.00249">
        <ele>1253</ele>
        <time>2021-08-27T12:44:37Z</time>
      </trkpt>
      <trkpt lat="44.57548" lon="3.00319">
        <ele>1263</ele>
        <time>2021-08-27T12:45:07Z</time>
      </trkpt>
      <trkpt lat="44.57605" lon="3.00373">
        <ele>1261</ele>
        <time>2021-08-27T12:45:38Z</time>
      </trkpt>
      <trkpt lat="44.57648" lon="3.00413">
        <ele>1259</ele>
        <time>2021-08-27T12:46:02Z</time>
      </trkpt>
      <trkpt lat="44.57713" lon="3.00447">
        <ele>1259</ele>
        <time>2021-08-27T12:46:33Z</time>
      </trkpt>
      <trkpt lat="44.57728" lon="3.00459">
        <ele>1259</ele>
        <time>2021-08-27T12:46:40Z</time>
      </trkpt>
      <trkpt lat="44.57762" lon="3.00494">
        <ele>1262</ele>
        <time>2021-08-27T12:46:59Z</time>
      </trkpt>
      <trkpt lat="44.57769" lon="3.00504">
        <ele>1263</ele>
        <time>2021-08-27T12:47:03Z</time>
      </trkpt>
      <trkpt lat="44.57773" lon="3.00508">
        <ele>1263</ele>
        <time>2021-08-27T12:47:05Z</time>
      </trkpt>
      <trkpt lat="44.57785" lon="3.00523">
        <ele>1264</ele>
        <time>2021-08-27T12:47:12Z</time>
      </trkpt>
      <trkpt lat="44.57797" lon="3.00535">
        <ele>1264</ele>
        <time>2021-08-27T12:47:18Z</time>
      </trkpt>
      <trkpt lat="44.5781" lon="3.00548">
        <ele>1265</ele>
        <time>2021-08-27T12:47:25Z</time>
      </trkpt>
      <trkpt lat="44.57872" lon="3.00598">
        <ele>1275</ele>
        <time>2021-08-27T12:47:58Z</time>
      </trkpt>
      <trkpt lat="44.57886" lon="3.00607">
        <ele>1277</ele>
        <time>2021-08-27T12:48:04Z</time>
      </trkpt>
      <trkpt lat="44.579" lon="3.00634">
        <ele>1282</ele>
        <time>2021-08-27T12:48:14Z</time>
      </trkpt>
      <trkpt lat="44.57906" lon="3.0067">
        <ele>1285</ele>
        <time>2021-08-27T12:48:25Z</time>
      </trkpt>
      <trkpt lat="44.579" lon="3.00777">
        <ele>1287</ele>
        <time>2021-08-27T12:48:55Z</time>
      </trkpt>
      <trkpt lat="44.57891" lon="3.00869">
        <ele>1288</ele>
        <time>2021-08-27T12:49:19Z</time>
      </trkpt>
      <trkpt lat="44.57858" lon="3.00987">
        <ele>1299</ele>
        <time>2021-08-27T12:49:49Z</time>
      </trkpt>
      <trkpt lat="44.57856" lon="3.01004">
        <ele>1301</ele>
        <time>2021-08-27T12:49:53Z</time>
      </trkpt>
      <trkpt lat="44.57871" lon="3.01176">
        <ele>1306</ele>
        <time>2021-08-27T12:50:23Z</time>
      </trkpt>
      <trkpt lat="44.57879" lon="3.01217">
        <ele>1305</ele>
        <time>2021-08-27T12:50:29Z</time>
      </trkpt>
      <trkpt lat="44.57932" lon="3.01381">
        <ele>1308</ele>
        <time>2021-08-27T12:50:59Z</time>
      </trkpt>
      <trkpt lat="44.57943" lon="3.01439">
        <ele>1306</ele>
        <time>2021-08-27T12:51:09Z</time>
      </trkpt>
      <trkpt lat="44.57968" lon="3.0153">
        <ele>1305</ele>
        <time>2021-08-27T12:51:23Z</time>
      </trkpt>
      <trkpt lat="44.57979" lon="3.0155">
        <ele>1304</ele>
        <time>2021-08-27T12:51:27Z</time>
      </trkpt>
      <trkpt lat="44.58017" lon="3.01592">
        <ele>1305</ele>
        <time>2021-08-27T12:51:38Z</time>
      </trkpt>
      <trkpt lat="44.58032" lon="3.01617">
        <ele>1304</ele>
        <time>2021-08-27T12:51:43Z</time>
      </trkpt>
      <trkpt lat="44.58102" lon="3.01786">
        <ele>1299</ele>
        <time>2021-08-27T12:52:13Z</time>
      </trkpt>
      <trkpt lat="44.58134" lon="3.01912">
        <ele>1297</ele>
        <time>2021-08-27T12:52:34Z</time>
      </trkpt>
      <trkpt lat="44.5816" lon="3.01982">
        <ele>1296</ele>
        <time>2021-08-27T12:52:48Z</time>
      </trkpt>
      <trkpt lat="44.58193" lon="3.02079">
        <ele>1298</ele>
        <time>2021-08-27T12:53:10Z</time>
      </trkpt>
      <trkpt lat="44.58216" lon="3.02131">
        <ele>1302</ele>
        <time>2021-08-27T12:53:22Z</time>
      </trkpt>
      <trkpt lat="44.58245" lon="3.02163">
        <ele>1304</ele>
        <time>2021-08-27T12:53:32Z</time>
      </trkpt>
      <trkpt lat="44.58337" lon="3.02253">
        <ele>1313</ele>
        <time>2021-08-27T12:54:02Z</time>
      </trkpt>
      <trkpt lat="44.5839" lon="3.02285">
        <ele>1316</ele>
        <time>2021-08-27T12:54:18Z</time>
      </trkpt>
      <trkpt lat="44.58427" lon="3.02296">
        <ele>1318</ele>
        <time>2021-08-27T12:54:30Z</time>
      </trkpt>
      <trkpt lat="44.58507" lon="3.02246">
        <ele>1320</ele>
        <time>2021-08-27T12:55:00Z</time>
      </trkpt>
      <trkpt lat="44.5857" lon="3.02189">
        <ele>1320</ele>
        <time>2021-08-27T12:55:32Z</time>
      </trkpt>
      <trkpt lat="44.58573" lon="3.02185">
        <ele>1320</ele>
        <time>2021-08-27T12:59:24Z</time>
      </trkpt>
      <trkpt lat="44.58577" lon="3.0218">
        <ele>1320</ele>
        <time>2021-08-27T12:59:34Z</time>
      </trkpt>
      <trkpt lat="44.58625" lon="3.02167">
        <ele>1318</ele>
        <time>2021-08-27T12:59:49Z</time>
      </trkpt>
      <trkpt lat="44.58685" lon="3.02123">
        <ele>1317</ele>
        <time>2021-08-27T12:59:59Z</time>
      </trkpt>
      <trkpt lat="44.5869" lon="3.02115">
        <ele>1317</ele>
        <time>2021-08-27T13:00:00Z</time>
      </trkpt>
      <trkpt lat="44.58697" lon="3.02096">
        <ele>1316</ele>
        <time>2021-08-27T13:00:02Z</time>
      </trkpt>
      <trkpt lat="44.58699" lon="3.02074">
        <ele>1317</ele>
        <time>2021-08-27T13:00:04Z</time>
      </trkpt>
      <trkpt lat="44.58697" lon="3.02051">
        <ele>1317</ele>
        <time>2021-08-27T13:00:06Z</time>
      </trkpt>
      <trkpt lat="44.5869" lon="3.02017">
        <ele>1315</ele>
        <time>2021-08-27T13:00:09Z</time>
      </trkpt>
      <trkpt lat="44.58689" lon="3.01991">
        <ele>1314</ele>
        <time>2021-08-27T13:00:11Z</time>
      </trkpt>
      <trkpt lat="44.58707" lon="3.0189">
        <ele>1309</ele>
        <time>2021-08-27T13:00:19Z</time>
      </trkpt>
      <trkpt lat="44.58705" lon="3.01865">
        <ele>1308</ele>
        <time>2021-08-27T13:00:21Z</time>
      </trkpt>
      <trkpt lat="44.58673" lon="3.01725">
        <ele>1306</ele>
        <time>2021-08-27T13:00:32Z</time>
      </trkpt>
      <trkpt lat="44.58667" lon="3.01666">
        <ele>1300</ele>
        <time>2021-08-27T13:00:37Z</time>
      </trkpt>
      <trkpt lat="44.58649" lon="3.01632">
        <ele>1301</ele>
        <time>2021-08-27T13:00:41Z</time>
      </trkpt>
      <trkpt lat="44.58639" lon="3.01615">
        <ele>1301</ele>
        <time>2021-08-27T13:00:43Z</time>
      </trkpt>
      <trkpt lat="44.58634" lon="3.01608">
        <ele>1301</ele>
        <time>2021-08-27T13:00:44Z</time>
      </trkpt>
      <trkpt lat="44.58607" lon="3.01593">
        <ele>1298</ele>
        <time>2021-08-27T13:00:48Z</time>
      </trkpt>
      <trkpt lat="44.58525" lon="3.01549">
        <ele>1284</ele>
        <time>2021-08-27T13:00:59Z</time>
      </trkpt>
      <trkpt lat="44.58514" lon="3.01538">
        <ele>1282</ele>
        <time>2021-08-27T13:01:01Z</time>
      </trkpt>
      <trkpt lat="44.58509" lon="3.01535">
        <ele>1282</ele>
        <time>2021-08-27T13:01:02Z</time>
      </trkpt>
      <trkpt lat="44.58504" lon="3.01533">
        <ele>1281</ele>
        <time>2021-08-27T13:01:03Z</time>
      </trkpt>
      <trkpt lat="44.58499" lon="3.01533">
        <ele>1280</ele>
        <time>2021-08-27T13:01:04Z</time>
      </trkpt>
      <trkpt lat="44.58488" lon="3.01542">
        <ele>1281</ele>
        <time>2021-08-27T13:01:06Z</time>
      </trkpt>
      <trkpt lat="44.5844" lon="3.01686">
        <ele>1283</ele>
        <time>2021-08-27T13:01:24Z</time>
      </trkpt>
      <trkpt lat="44.58436" lon="3.01691">
        <ele>1282</ele>
        <time>2021-08-27T13:01:25Z</time>
      </trkpt>
      <trkpt lat="44.58429" lon="3.01703">
        <ele>1276</ele>
        <time>2021-08-27T13:01:29Z</time>
      </trkpt>
      <trkpt lat="44.58424" lon="3.01702">
        <ele>1274</ele>
        <time>2021-08-27T13:01:31Z</time>
      </trkpt>
      <trkpt lat="44.58418" lon="3.01698">
        <ele>1272</ele>
        <time>2021-08-27T13:01:33Z</time>
      </trkpt>
      <trkpt lat="44.58409" lon="3.01688">
        <ele>1269</ele>
        <time>2021-08-27T13:01:37Z</time>
      </trkpt>
      <trkpt lat="44.58405" lon="3.01682">
        <ele>1269</ele>
        <time>2021-08-27T13:01:39Z</time>
      </trkpt>
      <trkpt lat="44.58407" lon="3.01674">
        <ele>1261</ele>
        <time>2021-08-27T13:03:14Z</time>
      </trkpt>
      <trkpt lat="44.58406" lon="3.01668">
        <ele>1260</ele>
        <time>2021-08-27T13:03:16Z</time>
      </trkpt>
      <trkpt lat="44.584" lon="3.01628">
        <ele>1256</ele>
        <time>2021-08-27T13:03:24Z</time>
      </trkpt>
      <trkpt lat="44.58399" lon="3.01612">
        <ele>1256</ele>
        <time>2021-08-27T13:03:26Z</time>
      </trkpt>
      <trkpt lat="44.58404" lon="3.01588">
        <ele>1254</ele>
        <time>2021-08-27T13:03:29Z</time>
      </trkpt>
      <trkpt lat="44.58474" lon="3.01364">
        <ele>1242</ele>
        <time>2021-08-27T13:03:51Z</time>
      </trkpt>
      <trkpt lat="44.58493" lon="3.0124">
        <ele>1236</ele>
        <time>2021-08-27T13:04:01Z</time>
      </trkpt>
      <trkpt lat="44.58535" lon="3.01151">
        <ele>1229</ele>
        <time>2021-08-27T13:04:09Z</time>
      </trkpt>
      <trkpt lat="44.5856" lon="3.01117">
        <ele>1225</ele>
        <time>2021-08-27T13:04:13Z</time>
      </trkpt>
      <trkpt lat="44.58569" lon="3.01097">
        <ele>1223</ele>
        <time>2021-08-27T13:04:15Z</time>
      </trkpt>
      <trkpt lat="44.58574" lon="3.01073">
        <ele>1222</ele>
        <time>2021-08-27T13:04:17Z</time>
      </trkpt>
      <trkpt lat="44.58577" lon="3.01035">
        <ele>1222</ele>
        <time>2021-08-27T13:04:20Z</time>
      </trkpt>
      <trkpt lat="44.58592" lon="3.00937">
        <ele>1218</ele>
        <time>2021-08-27T13:04:28Z</time>
      </trkpt>
      <trkpt lat="44.58625" lon="3.00837">
        <ele>1212</ele>
        <time>2021-08-27T13:04:37Z</time>
      </trkpt>
      <trkpt lat="44.58639" lon="3.00716">
        <ele>1205</ele>
        <time>2021-08-27T13:04:47Z</time>
      </trkpt>
      <trkpt lat="44.58642" lon="3.00664">
        <ele>1202</ele>
        <time>2021-08-27T13:04:51Z</time>
      </trkpt>
      <trkpt lat="44.58644" lon="3.00641">
        <ele>1200</ele>
        <time>2021-08-27T13:04:53Z</time>
      </trkpt>
      <trkpt lat="44.58646" lon="3.00551">
        <ele>1195</ele>
        <time>2021-08-27T13:05:00Z</time>
      </trkpt>
      <trkpt lat="44.5865" lon="3.00526">
        <ele>1194</ele>
        <time>2021-08-27T13:05:02Z</time>
      </trkpt>
      <trkpt lat="44.58666" lon="3.00476">
        <ele>1190</ele>
        <time>2021-08-27T13:05:06Z</time>
      </trkpt>
      <trkpt lat="44.58669" lon="3.00439">
        <ele>1189</ele>
        <time>2021-08-27T13:05:09Z</time>
      </trkpt>
      <trkpt lat="44.58656" lon="3.0027">
        <ele>1188</ele>
        <time>2021-08-27T13:05:23Z</time>
      </trkpt>
      <trkpt lat="44.58633" lon="3.0015">
        <ele>1184</ele>
        <time>2021-08-27T13:05:33Z</time>
      </trkpt>
      <trkpt lat="44.58634" lon="3.00106">
        <ele>1182</ele>
        <time>2021-08-27T13:05:37Z</time>
      </trkpt>
      <trkpt lat="44.58643" lon="3.00069">
        <ele>1181</ele>
        <time>2021-08-27T13:05:40Z</time>
      </trkpt>
      <trkpt lat="44.58677" lon="2.99982">
        <ele>1178</ele>
        <time>2021-08-27T13:05:49Z</time>
      </trkpt>
      <trkpt lat="44.5868" lon="2.99964">
        <ele>1178</ele>
        <time>2021-08-27T13:05:51Z</time>
      </trkpt>
      <trkpt lat="44.58679" lon="2.99947">
        <ele>1177</ele>
        <time>2021-08-27T13:05:53Z</time>
      </trkpt>
      <trkpt lat="44.58666" lon="2.99913">
        <ele>1180</ele>
        <time>2021-08-27T13:05:58Z</time>
      </trkpt>
      <trkpt lat="44.5854" lon="2.99711">
        <ele>1183</ele>
        <time>2021-08-27T13:06:24Z</time>
      </trkpt>
      <trkpt lat="44.58534" lon="2.99684">
        <ele>1182</ele>
        <time>2021-08-27T13:06:26Z</time>
      </trkpt>
      <trkpt lat="44.58533" lon="2.9967">
        <ele>1181</ele>
        <time>2021-08-27T13:06:27Z</time>
      </trkpt>
      <trkpt lat="44.58534" lon="2.99655">
        <ele>1177</ele>
        <time>2021-08-27T13:06:28Z</time>
      </trkpt>
      <trkpt lat="44.58541" lon="2.99627">
        <ele>1173</ele>
        <time>2021-08-27T13:06:30Z</time>
      </trkpt>
      <trkpt lat="44.58567" lon="2.99544">
        <ele>1167</ele>
        <time>2021-08-27T13:06:37Z</time>
      </trkpt>
      <trkpt lat="44.58569" lon="2.99533">
        <ele>1166</ele>
        <time>2021-08-27T13:06:38Z</time>
      </trkpt>
      <trkpt lat="44.58569" lon="2.99521">
        <ele>1166</ele>
        <time>2021-08-27T13:06:39Z</time>
      </trkpt>
      <trkpt lat="44.58562" lon="2.99497">
        <ele>1163</ele>
        <time>2021-08-27T13:06:41Z</time>
      </trkpt>
      <trkpt lat="44.58551" lon="2.99478">
        <ele>1161</ele>
        <time>2021-08-27T13:06:43Z</time>
      </trkpt>
      <trkpt lat="44.585" lon="2.99439">
        <ele>1155</ele>
        <time>2021-08-27T13:06:49Z</time>
      </trkpt>
      <trkpt lat="44.58483" lon="2.99431">
        <ele>1153</ele>
        <time>2021-08-27T13:06:51Z</time>
      </trkpt>
      <trkpt lat="44.58396" lon="2.99435">
        <ele>1144</ele>
        <time>2021-08-27T13:07:00Z</time>
      </trkpt>
      <trkpt lat="44.58387" lon="2.99433">
        <ele>1142</ele>
        <time>2021-08-27T13:07:01Z</time>
      </trkpt>
      <trkpt lat="44.58342" lon="2.99418">
        <ele>1135</ele>
        <time>2021-08-27T13:07:06Z</time>
      </trkpt>
      <trkpt lat="44.58317" lon="2.9942">
        <ele>1131</ele>
        <time>2021-08-27T13:07:09Z</time>
      </trkpt>
      <trkpt lat="44.5829" lon="2.99428">
        <ele>1128</ele>
        <time>2021-08-27T13:07:12Z</time>
      </trkpt>
      <trkpt lat="44.58281" lon="2.99429">
        <ele>1127</ele>
        <time>2021-08-27T13:07:13Z</time>
      </trkpt>
      <trkpt lat="44.58145" lon="2.99396">
        <ele>1102</ele>
        <time>2021-08-27T13:07:28Z</time>
      </trkpt>
      <trkpt lat="44.58031" lon="2.99383">
        <ele>1080</ele>
        <time>2021-08-27T13:07:40Z</time>
      </trkpt>
      <trkpt lat="44.57947" lon="2.99352">
        <ele>1074</ele>
        <time>2021-08-27T13:07:50Z</time>
      </trkpt>
      <trkpt lat="44.57921" lon="2.9933">
        <ele>1067</ele>
        <time>2021-08-27T13:07:56Z</time>
      </trkpt>
      <trkpt lat="44.57885" lon="2.99286">
        <ele>1062</ele>
        <time>2021-08-27T13:08:03Z</time>
      </trkpt>
      <trkpt lat="44.57871" lon="2.99279">
        <ele>1060</ele>
        <time>2021-08-27T13:08:05Z</time>
      </trkpt>
      <trkpt lat="44.57827" lon="2.99276">
        <ele>1056</ele>
        <time>2021-08-27T13:08:13Z</time>
      </trkpt>
      <trkpt lat="44.57748" lon="2.99222">
        <ele>1053</ele>
        <time>2021-08-27T13:08:23Z</time>
      </trkpt>
      <trkpt lat="44.57614" lon="2.99081">
        <ele>1047</ele>
        <time>2021-08-27T13:08:42Z</time>
      </trkpt>
      <trkpt lat="44.57608" lon="2.99079">
        <ele>1047</ele>
        <time>2021-08-27T13:08:45Z</time>
      </trkpt>
      <trkpt lat="44.57603" lon="2.99076">
        <ele>1050</ele>
        <time>2021-08-27T13:08:47Z</time>
      </trkpt>
      <trkpt lat="44.57601" lon="2.99071">
        <ele>1050</ele>
        <time>2021-08-27T13:08:49Z</time>
      </trkpt>
      <trkpt lat="44.57597" lon="2.99066">
        <ele>1050</ele>
        <time>2021-08-27T13:09:41Z</time>
      </trkpt>
      <trkpt lat="44.57591" lon="2.99054">
        <ele>1050</ele>
        <time>2021-08-27T13:09:47Z</time>
      </trkpt>
      <trkpt lat="44.57582" lon="2.98973">
        <ele>1051</ele>
        <time>2021-08-27T13:10:05Z</time>
      </trkpt>
      <trkpt lat="44.57588" lon="2.98876">
        <ele>1049</ele>
        <time>2021-08-27T13:10:21Z</time>
      </trkpt>
      <trkpt lat="44.57596" lon="2.98844">
        <ele>1048</ele>
        <time>2021-08-27T13:10:25Z</time>
      </trkpt>
      <trkpt lat="44.57598" lon="2.98827">
        <ele>1047</ele>
        <time>2021-08-27T13:10:27Z</time>
      </trkpt>
      <trkpt lat="44.57593" lon="2.98793">
        <ele>1047</ele>
        <time>2021-08-27T13:10:31Z</time>
      </trkpt>
      <trkpt lat="44.57579" lon="2.98745">
        <ele>1049</ele>
        <time>2021-08-27T13:10:36Z</time>
      </trkpt>
      <trkpt lat="44.57545" lon="2.98662">
        <ele>1053</ele>
        <time>2021-08-27T13:10:44Z</time>
      </trkpt>
      <trkpt lat="44.57542" lon="2.98642">
        <ele>1053</ele>
        <time>2021-08-27T13:10:46Z</time>
      </trkpt>
      <trkpt lat="44.57542" lon="2.98621">
        <ele>1051</ele>
        <time>2021-08-27T13:10:48Z</time>
      </trkpt>
      <trkpt lat="44.57552" lon="2.98559">
        <ele>1049</ele>
        <time>2021-08-27T13:10:54Z</time>
      </trkpt>
      <trkpt lat="44.5755" lon="2.9853">
        <ele>1051</ele>
        <time>2021-08-27T13:10:57Z</time>
      </trkpt>
      <trkpt lat="44.57521" lon="2.98444">
        <ele>1055</ele>
        <time>2021-08-27T13:11:11Z</time>
      </trkpt>
      <trkpt lat="44.57512" lon="2.9842">
        <ele>1056</ele>
        <time>2021-08-27T13:11:15Z</time>
      </trkpt>
      <trkpt lat="44.57495" lon="2.98331">
        <ele>1060</ele>
        <time>2021-08-27T13:11:28Z</time>
      </trkpt>
      <trkpt lat="44.57495" lon="2.98256">
        <ele>1060</ele>
        <time>2021-08-27T13:11:40Z</time>
      </trkpt>
      <trkpt lat="44.57512" lon="2.98109">
        <ele>1057</ele>
        <time>2021-08-27T13:12:01Z</time>
      </trkpt>
      <trkpt lat="44.5751" lon="2.98083">
        <ele>1057</ele>
        <time>2021-08-27T13:12:04Z</time>
      </trkpt>
      <trkpt lat="44.57503" lon="2.9806">
        <ele>1058</ele>
        <time>2021-08-27T13:12:07Z</time>
      </trkpt>
      <trkpt lat="44.57464" lon="2.97995">
        <ele>1059</ele>
        <time>2021-08-27T13:12:17Z</time>
      </trkpt>
      <trkpt lat="44.57458" lon="2.97975">
        <ele>1059</ele>
        <time>2021-08-27T13:12:20Z</time>
      </trkpt>
      <trkpt lat="44.57451" lon="2.97919">
        <ele>1059</ele>
        <time>2021-08-27T13:12:27Z</time>
      </trkpt>
      <trkpt lat="44.57447" lon="2.97897">
        <ele>1059</ele>
        <time>2021-08-27T13:12:30Z</time>
      </trkpt>
      <trkpt lat="44.57442" lon="2.97886">
        <ele>1060</ele>
        <time>2021-08-27T13:12:32Z</time>
      </trkpt>
      <trkpt lat="44.57389" lon="2.97825">
        <ele>1057</ele>
        <time>2021-08-27T13:12:45Z</time>
      </trkpt>
      <trkpt lat="44.57311" lon="2.97759">
        <ele>1046</ele>
        <time>2021-08-27T13:13:05Z</time>
      </trkpt>
      <trkpt lat="44.57305" lon="2.97751">
        <ele>1045</ele>
        <time>2021-08-27T13:13:07Z</time>
      </trkpt>
      <trkpt lat="44.57297" lon="2.97721">
        <ele>1044</ele>
        <time>2021-08-27T13:13:15Z</time>
      </trkpt>
      <trkpt lat="44.57284" lon="2.97648">
        <ele>1043</ele>
        <time>2021-08-27T13:13:27Z</time>
      </trkpt>
      <trkpt lat="44.57288" lon="2.97621">
        <ele>1042</ele>
        <time>2021-08-27T13:13:30Z</time>
      </trkpt>
      <trkpt lat="44.57307" lon="2.97566">
        <ele>1039</ele>
        <time>2021-08-27T13:13:36Z</time>
      </trkpt>
      <trkpt lat="44.57309" lon="2.97548">
        <ele>1039</ele>
        <time>2021-08-27T13:13:38Z</time>
      </trkpt>
      <trkpt lat="44.57308" lon="2.97539">
        <ele>1039</ele>
        <time>2021-08-27T13:13:39Z</time>
      </trkpt>
      <trkpt lat="44.57301" lon="2.97512">
        <ele>1041</ele>
        <time>2021-08-27T13:13:42Z</time>
      </trkpt>
      <trkpt lat="44.57291" lon="2.97491">
        <ele>1042</ele>
        <time>2021-08-27T13:13:45Z</time>
      </trkpt>
      <trkpt lat="44.57272" lon="2.97474">
        <ele>1042</ele>
        <time>2021-08-27T13:13:49Z</time>
      </trkpt>
      <trkpt lat="44.57256" lon="2.97464">
        <ele>1042</ele>
        <time>2021-08-27T13:13:53Z</time>
      </trkpt>
      <trkpt lat="44.57063" lon="2.97408">
        <ele>1025</ele>
        <time>2021-08-27T13:14:24Z</time>
      </trkpt>
      <trkpt lat="44.57006" lon="2.97395">
        <ele>1019</ele>
        <time>2021-08-27T13:14:30Z</time>
      </trkpt>
      <trkpt lat="44.56926" lon="2.97413">
        <ele>1012</ele>
        <time>2021-08-27T13:14:38Z</time>
      </trkpt>
      <trkpt lat="44.56812" lon="2.97394">
        <ele>1001</ele>
        <time>2021-08-27T13:14:48Z</time>
      </trkpt>
      <trkpt lat="44.56663" lon="2.97339">
        <ele>984</ele>
        <time>2021-08-27T13:15:03Z</time>
      </trkpt>
      <trkpt lat="44.56643" lon="2.97324">
        <ele>986</ele>
        <time>2021-08-27T13:15:05Z</time>
      </trkpt>
      <trkpt lat="44.56609" lon="2.97285">
        <ele>992</ele>
        <time>2021-08-27T13:15:10Z</time>
      </trkpt>
      <trkpt lat="44.56545" lon="2.97201">
        <ele>997</ele>
        <time>2021-08-27T13:15:36Z</time>
      </trkpt>
      <trkpt lat="44.56473" lon="2.97124">
        <ele>999</ele>
        <time>2021-08-27T13:16:08Z</time>
      </trkpt>
      <trkpt lat="44.56401" lon="2.97044">
        <ele>1004</ele>
        <time>2021-08-27T13:16:38Z</time>
      </trkpt>
      <trkpt lat="44.56389" lon="2.9702">
        <ele>1007</ele>
        <time>2021-08-27T13:16:44Z</time>
      </trkpt>
      <trkpt lat="44.56386" lon="2.97002">
        <ele>1008</ele>
        <time>2021-08-27T13:16:48Z</time>
      </trkpt>
      <trkpt lat="44.56392" lon="2.96956">
        <ele>1011</ele>
        <time>2021-08-27T13:16:58Z</time>
      </trkpt>
      <trkpt lat="44.56405" lon="2.96901">
        <ele>1014</ele>
        <time>2021-08-27T13:17:10Z</time>
      </trkpt>
      <trkpt lat="44.56407" lon="2.96862">
        <ele>1016</ele>
        <time>2021-08-27T13:17:18Z</time>
      </trkpt>
      <trkpt lat="44.56401" lon="2.96826">
        <ele>1017</ele>
        <time>2021-08-27T13:17:26Z</time>
      </trkpt>
      <trkpt lat="44.5639" lon="2.96806">
        <ele>1019</ele>
        <time>2021-08-27T13:17:32Z</time>
      </trkpt>
      <trkpt lat="44.56369" lon="2.96774">
        <ele>1021</ele>
        <time>2021-08-27T13:17:42Z</time>
      </trkpt>
      <trkpt lat="44.56357" lon="2.96753">
        <ele>1022</ele>
        <time>2021-08-27T13:17:48Z</time>
      </trkpt>
      <trkpt lat="44.56352" lon="2.96738">
        <ele>1023</ele>
        <time>2021-08-27T13:17:52Z</time>
      </trkpt>
      <trkpt lat="44.5635" lon="2.96719">
        <ele>1025</ele>
        <time>2021-08-27T13:17:56Z</time>
      </trkpt>
      <trkpt lat="44.56352" lon="2.96701">
        <ele>1026</ele>
        <time>2021-08-27T13:18:00Z</time>
      </trkpt>
      <trkpt lat="44.56366" lon="2.96651">
        <ele>1028</ele>
        <time>2021-08-27T13:18:12Z</time>
      </trkpt>
      <trkpt lat="44.56368" lon="2.96622">
        <ele>1031</ele>
        <time>2021-08-27T13:18:18Z</time>
      </trkpt>
      <trkpt lat="44.56349" lon="2.96426">
        <ele>1026</ele>
        <time>2021-08-27T13:18:50Z</time>
      </trkpt>
      <trkpt lat="44.56331" lon="2.96355">
        <ele>1027</ele>
        <time>2021-08-27T13:19:01Z</time>
      </trkpt>
      <trkpt lat="44.5633" lon="2.96333">
        <ele>1028</ele>
        <time>2021-08-27T13:19:04Z</time>
      </trkpt>
      <trkpt lat="44.56334" lon="2.96312">
        <ele>1028</ele>
        <time>2021-08-27T13:19:07Z</time>
      </trkpt>
      <trkpt lat="44.56337" lon="2.963">
        <ele>1028</ele>
        <time>2021-08-27T13:19:09Z</time>
      </trkpt>
      <trkpt lat="44.56356" lon="2.96271">
        <ele>1029</ele>
        <time>2021-08-27T13:19:15Z</time>
      </trkpt>
      <trkpt lat="44.56371" lon="2.96256">
        <ele>1029</ele>
        <time>2021-08-27T13:19:19Z</time>
      </trkpt>
      <trkpt lat="44.56384" lon="2.96248">
        <ele>1029</ele>
        <time>2021-08-27T13:19:22Z</time>
      </trkpt>
      <trkpt lat="44.56409" lon="2.96244">
        <ele>1029</ele>
        <time>2021-08-27T13:19:28Z</time>
      </trkpt>
      <trkpt lat="44.56519" lon="2.96251">
        <ele>1028</ele>
        <time>2021-08-27T13:19:58Z</time>
      </trkpt>
      <trkpt lat="44.56604" lon="2.96254">
        <ele>1029</ele>
        <time>2021-08-27T13:20:22Z</time>
      </trkpt>
      <trkpt lat="44.56648" lon="2.96236">
        <ele>1029</ele>
        <time>2021-08-27T13:20:34Z</time>
      </trkpt>
      <trkpt lat="44.56739" lon="2.9616">
        <ele>1030</ele>
        <time>2021-08-27T13:21:02Z</time>
      </trkpt>
      <trkpt lat="44.56815" lon="2.96084">
        <ele>1034</ele>
        <time>2021-08-27T13:21:32Z</time>
      </trkpt>
      <trkpt lat="44.56882" lon="2.96023">
        <ele>1036</ele>
        <time>2021-08-27T13:21:58Z</time>
      </trkpt>
      <trkpt lat="44.56887" lon="2.96016">
        <ele>1036</ele>
        <time>2021-08-27T13:22:00Z</time>
      </trkpt>
      <trkpt lat="44.57001" lon="2.95908">
        <ele>1032</ele>
        <time>2021-08-27T13:22:30Z</time>
      </trkpt>
      <trkpt lat="44.57054" lon="2.9586">
        <ele>1028</ele>
        <time>2021-08-27T13:22:39Z</time>
      </trkpt>
      <trkpt lat="44.57069" lon="2.95852">
        <ele>1027</ele>
        <time>2021-08-27T13:22:41Z</time>
      </trkpt>
      <trkpt lat="44.57106" lon="2.95847">
        <ele>1024</ele>
        <time>2021-08-27T13:22:45Z</time>
      </trkpt>
      <trkpt lat="44.57184" lon="2.95865">
        <ele>1018</ele>
        <time>2021-08-27T13:22:53Z</time>
      </trkpt>
      <trkpt lat="44.57213" lon="2.9586">
        <ele>1015</ele>
        <time>2021-08-27T13:22:56Z</time>
      </trkpt>
      <trkpt lat="44.57242" lon="2.95847">
        <ele>1013</ele>
        <time>2021-08-27T13:22:59Z</time>
      </trkpt>
      <trkpt lat="44.57276" lon="2.95814">
        <ele>1009</ele>
        <time>2021-08-27T13:23:03Z</time>
      </trkpt>
      <trkpt lat="44.57298" lon="2.9578">
        <ele>1006</ele>
        <time>2021-08-27T13:23:06Z</time>
      </trkpt>
      <trkpt lat="44.5731" lon="2.95752">
        <ele>1004</ele>
        <time>2021-08-27T13:23:08Z</time>
      </trkpt>
      <trkpt lat="44.57323" lon="2.9569">
        <ele>1001</ele>
        <time>2021-08-27T13:23:12Z</time>
      </trkpt>
      <trkpt lat="44.57319" lon="2.95622">
        <ele>999</ele>
        <time>2021-08-27T13:23:17Z</time>
      </trkpt>
      <trkpt lat="44.57283" lon="2.9546">
        <ele>1014</ele>
        <time>2021-08-27T13:23:48Z</time>
      </trkpt>
      <trkpt lat="44.57264" lon="2.95363">
        <ele>1022</ele>
        <time>2021-08-27T13:24:19Z</time>
      </trkpt>
      <trkpt lat="44.57249" lon="2.95299">
        <ele>1026</ele>
        <time>2021-08-27T13:24:39Z</time>
      </trkpt>
      <trkpt lat="44.57238" lon="2.95191">
        <ele>1030</ele>
        <time>2021-08-27T13:25:09Z</time>
      </trkpt>
      <trkpt lat="44.57228" lon="2.95047">
        <ele>1032</ele>
        <time>2021-08-27T13:25:41Z</time>
      </trkpt>
      <trkpt lat="44.57215" lon="2.94866">
        <ele>1032</ele>
        <time>2021-08-27T13:26:12Z</time>
      </trkpt>
      <trkpt lat="44.57206" lon="2.94709">
        <ele>1035</ele>
        <time>2021-08-27T13:26:42Z</time>
      </trkpt>
      <trkpt lat="44.57197" lon="2.94628">
        <ele>1038</ele>
        <time>2021-08-27T13:27:00Z</time>
      </trkpt>
      <trkpt lat="44.57157" lon="2.94501">
        <ele>1045</ele>
        <time>2021-08-27T13:27:32Z</time>
      </trkpt>
      <trkpt lat="44.57084" lon="2.94377">
        <ele>1047</ele>
        <time>2021-08-27T13:28:02Z</time>
      </trkpt>
      <trkpt lat="44.57062" lon="2.94321">
        <ele>1046</ele>
        <time>2021-08-27T13:28:12Z</time>
      </trkpt>
      <trkpt lat="44.57058" lon="2.94307">
        <ele>1046</ele>
        <time>2021-08-27T13:28:14Z</time>
      </trkpt>
      <trkpt lat="44.57037" lon="2.94267">
        <ele>1045</ele>
        <time>2021-08-27T13:28:20Z</time>
      </trkpt>
      <trkpt lat="44.56983" lon="2.94209">
        <ele>1043</ele>
        <time>2021-08-27T13:28:30Z</time>
      </trkpt>
      <trkpt lat="44.56933" lon="2.94167">
        <ele>1037</ele>
        <time>2021-08-27T13:28:39Z</time>
      </trkpt>
      <trkpt lat="44.56917" lon="2.9415">
        <ele>1036</ele>
        <time>2021-08-27T13:28:45Z</time>
      </trkpt>
      <trkpt lat="44.56914" lon="2.94142">
        <ele>1035</ele>
        <time>2021-08-27T13:28:47Z</time>
      </trkpt>
      <trkpt lat="44.56913" lon="2.94136">
        <ele>1034</ele>
        <time>2021-08-27T13:28:49Z</time>
      </trkpt>
      <trkpt lat="44.56913" lon="2.94114">
        <ele>1033</ele>
        <time>2021-08-27T13:29:17Z</time>
      </trkpt>
      <trkpt lat="44.56915" lon="2.94109">
        <ele>1032</ele>
        <time>2021-08-27T13:29:21Z</time>
      </trkpt>
      <trkpt lat="44.56918" lon="2.94101">
        <ele>1032</ele>
        <time>2021-08-27T13:29:24Z</time>
      </trkpt>
      <trkpt lat="44.5692" lon="2.94094">
        <ele>1032</ele>
        <time>2021-08-27T13:29:27Z</time>
      </trkpt>
      <trkpt lat="44.56918" lon="2.94086">
        <ele>1032</ele>
        <time>2021-08-27T13:29:30Z</time>
      </trkpt>
      <trkpt lat="44.56913" lon="2.94085">
        <ele>1032</ele>
        <time>2021-08-27T13:29:36Z</time>
      </trkpt>
      <trkpt lat="44.56907" lon="2.94085">
        <ele>1031</ele>
        <time>2021-08-27T13:30:10Z</time>
      </trkpt>
      <trkpt lat="44.56904" lon="2.94077">
        <ele>1031</ele>
        <time>2021-08-27T13:30:13Z</time>
      </trkpt>
      <trkpt lat="44.56903" lon="2.94069">
        <ele>1031</ele>
        <time>2021-08-27T13:30:15Z</time>
      </trkpt>
      <trkpt lat="44.56905" lon="2.94052">
        <ele>1030</ele>
        <time>2021-08-27T13:30:19Z</time>
      </trkpt>
      <trkpt lat="44.56907" lon="2.94043">
        <ele>1030</ele>
        <time>2021-08-27T13:30:21Z</time>
      </trkpt>
      <trkpt lat="44.56919" lon="2.94023">
        <ele>1030</ele>
        <time>2021-08-27T13:30:27Z</time>
      </trkpt>
      <trkpt lat="44.56929" lon="2.94016">
        <ele>1029</ele>
        <time>2021-08-27T13:30:33Z</time>
      </trkpt>
      <trkpt lat="44.56934" lon="2.94013">
        <ele>1029</ele>
        <time>2021-08-27T13:30:35Z</time>
      </trkpt>
      <trkpt lat="44.5699" lon="2.93984">
        <ele>1024</ele>
        <time>2021-08-27T13:30:55Z</time>
      </trkpt>
      <trkpt lat="44.5702" lon="2.93946">
        <ele>1022</ele>
        <time>2021-08-27T13:31:05Z</time>
      </trkpt>
      <trkpt lat="44.57053" lon="2.93878">
        <ele>1020</ele>
        <time>2021-08-27T13:31:17Z</time>
      </trkpt>
      <trkpt lat="44.57079" lon="2.93847">
        <ele>1018</ele>
        <time>2021-08-27T13:31:24Z</time>
      </trkpt>
      <trkpt lat="44.57109" lon="2.93823">
        <ele>1019</ele>
        <time>2021-08-27T13:31:31Z</time>
      </trkpt>
      <trkpt lat="44.57123" lon="2.93804">
        <ele>1020</ele>
        <time>2021-08-27T13:31:35Z</time>
      </trkpt>
      <trkpt lat="44.57132" lon="2.93788">
        <ele>1020</ele>
        <time>2021-08-27T13:31:38Z</time>
      </trkpt>
      <trkpt lat="44.57139" lon="2.93761">
        <ele>1019</ele>
        <time>2021-08-27T13:31:42Z</time>
      </trkpt>
      <trkpt lat="44.57141" lon="2.93731">
        <ele>1018</ele>
        <time>2021-08-27T13:31:46Z</time>
      </trkpt>
      <trkpt lat="44.57138" lon="2.93685">
        <ele>1019</ele>
        <time>2021-08-27T13:31:52Z</time>
      </trkpt>
      <trkpt lat="44.57126" lon="2.93641">
        <ele>1019</ele>
        <time>2021-08-27T13:31:58Z</time>
      </trkpt>
      <trkpt lat="44.5705" lon="2.93455">
        <ele>1021</ele>
        <time>2021-08-27T13:32:23Z</time>
      </trkpt>
      <trkpt lat="44.57045" lon="2.93427">
        <ele>1020</ele>
        <time>2021-08-27T13:32:26Z</time>
      </trkpt>
      <trkpt lat="44.57043" lon="2.93408">
        <ele>1020</ele>
        <time>2021-08-27T13:32:28Z</time>
      </trkpt>
      <trkpt lat="44.57049" lon="2.93371">
        <ele>1020</ele>
        <time>2021-08-27T13:32:32Z</time>
      </trkpt>
      <trkpt lat="44.57055" lon="2.93355">
        <ele>1019</ele>
        <time>2021-08-27T13:32:34Z</time>
      </trkpt>
      <trkpt lat="44.57064" lon="2.9334">
        <ele>1019</ele>
        <time>2021-08-27T13:32:36Z</time>
      </trkpt>
      <trkpt lat="44.57081" lon="2.93322">
        <ele>1018</ele>
        <time>2021-08-27T13:32:39Z</time>
      </trkpt>
      <trkpt lat="44.57094" lon="2.93314">
        <ele>1017</ele>
        <time>2021-08-27T13:32:41Z</time>
      </trkpt>
      <trkpt lat="44.57116" lon="2.93308">
        <ele>1016</ele>
        <time>2021-08-27T13:32:44Z</time>
      </trkpt>
      <trkpt lat="44.57136" lon="2.9331">
        <ele>1016</ele>
        <time>2021-08-27T13:32:47Z</time>
      </trkpt>
      <trkpt lat="44.5725" lon="2.93372">
        <ele>1013</ele>
        <time>2021-08-27T13:33:06Z</time>
      </trkpt>
      <trkpt lat="44.57291" lon="2.9337">
        <ele>1011</ele>
        <time>2021-08-27T13:33:12Z</time>
      </trkpt>
      <trkpt lat="44.57345" lon="2.93342">
        <ele>1008</ele>
        <time>2021-08-27T13:33:20Z</time>
      </trkpt>
      <trkpt lat="44.57506" lon="2.93237">
        <ele>997</ele>
        <time>2021-08-27T13:33:41Z</time>
      </trkpt>
      <trkpt lat="44.5752" lon="2.93219">
        <ele>996</ele>
        <time>2021-08-27T13:33:43Z</time>
      </trkpt>
      <trkpt lat="44.57531" lon="2.93195">
        <ele>995</ele>
        <time>2021-08-27T13:33:45Z</time>
      </trkpt>
      <trkpt lat="44.57538" lon="2.93168">
        <ele>994</ele>
        <time>2021-08-27T13:33:47Z</time>
      </trkpt>
      <trkpt lat="44.57538" lon="2.9314">
        <ele>994</ele>
        <time>2021-08-27T13:33:49Z</time>
      </trkpt>
      <trkpt lat="44.57532" lon="2.93115">
        <ele>993</ele>
        <time>2021-08-27T13:33:51Z</time>
      </trkpt>
      <trkpt lat="44.57523" lon="2.93089">
        <ele>993</ele>
        <time>2021-08-27T13:33:53Z</time>
      </trkpt>
      <trkpt lat="44.57503" lon="2.9306">
        <ele>993</ele>
        <time>2021-08-27T13:33:56Z</time>
      </trkpt>
      <trkpt lat="44.57481" lon="2.93037">
        <ele>993</ele>
        <time>2021-08-27T13:33:59Z</time>
      </trkpt>
      <trkpt lat="44.57458" lon="2.92999">
        <ele>992</ele>
        <time>2021-08-27T13:34:03Z</time>
      </trkpt>
      <trkpt lat="44.57447" lon="2.92968">
        <ele>992</ele>
        <time>2021-08-27T13:34:06Z</time>
      </trkpt>
      <trkpt lat="44.57437" lon="2.92912">
        <ele>991</ele>
        <time>2021-08-27T13:34:11Z</time>
      </trkpt>
      <trkpt lat="44.57437" lon="2.92848">
        <ele>990</ele>
        <time>2021-08-27T13:34:17Z</time>
      </trkpt>
      <trkpt lat="44.57462" lon="2.92701">
        <ele>985</ele>
        <time>2021-08-27T13:34:32Z</time>
      </trkpt>
      <trkpt lat="44.57483" lon="2.9266">
        <ele>983</ele>
        <time>2021-08-27T13:34:37Z</time>
      </trkpt>
      <trkpt lat="44.57505" lon="2.92629">
        <ele>980</ele>
        <time>2021-08-27T13:34:41Z</time>
      </trkpt>
      <trkpt lat="44.57535" lon="2.92601">
        <ele>976</ele>
        <time>2021-08-27T13:34:45Z</time>
      </trkpt>
      <trkpt lat="44.57602" lon="2.92576">
        <ele>970</ele>
        <time>2021-08-27T13:34:52Z</time>
      </trkpt>
      <trkpt lat="44.57827" lon="2.92531">
        <ele>947</ele>
        <time>2021-08-27T13:35:15Z</time>
      </trkpt>
      <trkpt lat="44.57845" lon="2.9252">
        <ele>945</ele>
        <time>2021-08-27T13:35:17Z</time>
      </trkpt>
      <trkpt lat="44.57875" lon="2.92486">
        <ele>942</ele>
        <time>2021-08-27T13:35:21Z</time>
      </trkpt>
      <trkpt lat="44.57892" lon="2.92454">
        <ele>941</ele>
        <time>2021-08-27T13:35:24Z</time>
      </trkpt>
      <trkpt lat="44.57902" lon="2.92419">
        <ele>939</ele>
        <time>2021-08-27T13:35:27Z</time>
      </trkpt>
      <trkpt lat="44.57906" lon="2.92376">
        <ele>937</ele>
        <time>2021-08-27T13:35:31Z</time>
      </trkpt>
      <trkpt lat="44.57902" lon="2.92335">
        <ele>935</ele>
        <time>2021-08-27T13:35:35Z</time>
      </trkpt>
      <trkpt lat="44.57879" lon="2.92237">
        <ele>928</ele>
        <time>2021-08-27T13:35:43Z</time>
      </trkpt>
      <trkpt lat="44.57877" lon="2.92132">
        <ele>923</ele>
        <time>2021-08-27T13:35:51Z</time>
      </trkpt>
      <trkpt lat="44.57888" lon="2.92067">
        <ele>920</ele>
        <time>2021-08-27T13:35:57Z</time>
      </trkpt>
      <trkpt lat="44.57904" lon="2.92021">
        <ele>917</ele>
        <time>2021-08-27T13:36:02Z</time>
      </trkpt>
      <trkpt lat="44.57959" lon="2.91927">
        <ele>913</ele>
        <time>2021-08-27T13:36:13Z</time>
      </trkpt>
      <trkpt lat="44.57992" lon="2.91892">
        <ele>910</ele>
        <time>2021-08-27T13:36:18Z</time>
      </trkpt>
      <trkpt lat="44.58088" lon="2.91838">
        <ele>903</ele>
        <time>2021-08-27T13:36:30Z</time>
      </trkpt>
      <trkpt lat="44.58129" lon="2.91826">
        <ele>899</ele>
        <time>2021-08-27T13:36:35Z</time>
      </trkpt>
      <trkpt lat="44.58199" lon="2.91828">
        <ele>894</ele>
        <time>2021-08-27T13:36:43Z</time>
      </trkpt>
      <trkpt lat="44.58251" lon="2.91844">
        <ele>890</ele>
        <time>2021-08-27T13:36:51Z</time>
      </trkpt>
      <trkpt lat="44.58408" lon="2.91932">
        <ele>885</ele>
        <time>2021-08-27T13:37:13Z</time>
      </trkpt>
      <trkpt lat="44.58568" lon="2.91972">
        <ele>878</ele>
        <time>2021-08-27T13:37:30Z</time>
      </trkpt>
      <trkpt lat="44.58575" lon="2.91976">
        <ele>878</ele>
        <time>2021-08-27T13:37:31Z</time>
      </trkpt>
      <trkpt lat="44.58601" lon="2.92005">
        <ele>876</ele>
        <time>2021-08-27T13:37:36Z</time>
      </trkpt>
      <trkpt lat="44.58606" lon="2.92013">
        <ele>875</ele>
        <time>2021-08-27T13:37:37Z</time>
      </trkpt>
      <trkpt lat="44.58614" lon="2.92028">
        <ele>872</ele>
        <time>2021-08-27T13:37:39Z</time>
      </trkpt>
      <trkpt lat="44.58646" lon="2.92064">
        <ele>868</ele>
        <time>2021-08-27T13:37:45Z</time>
      </trkpt>
      <trkpt lat="44.58698" lon="2.92105">
        <ele>865</ele>
        <time>2021-08-27T13:37:53Z</time>
      </trkpt>
      <trkpt lat="44.58708" lon="2.92119">
        <ele>863</ele>
        <time>2021-08-27T13:37:55Z</time>
      </trkpt>
      <trkpt lat="44.58747" lon="2.92179">
        <ele>855</ele>
        <time>2021-08-27T13:38:03Z</time>
      </trkpt>
      <trkpt lat="44.58859" lon="2.92307">
        <ele>849</ele>
        <time>2021-08-27T13:38:18Z</time>
      </trkpt>
      <trkpt lat="44.5895" lon="2.92509">
        <ele>846</ele>
        <time>2021-08-27T13:38:41Z</time>
      </trkpt>
      <trkpt lat="44.5903" lon="2.92679">
        <ele>825</ele>
        <time>2021-08-27T13:39:00Z</time>
      </trkpt>
      <trkpt lat="44.59048" lon="2.92707">
        <ele>823</ele>
        <time>2021-08-27T13:39:04Z</time>
      </trkpt>
      <trkpt lat="44.59064" lon="2.92721">
        <ele>822</ele>
        <time>2021-08-27T13:39:08Z</time>
      </trkpt>
      <trkpt lat="44.59081" lon="2.92727">
        <ele>822</ele>
        <time>2021-08-27T13:39:16Z</time>
      </trkpt>
      <trkpt lat="44.59092" lon="2.92725">
        <ele>821</ele>
        <time>2021-08-27T13:39:20Z</time>
      </trkpt>
      <trkpt lat="44.59142" lon="2.92712">
        <ele>821</ele>
        <time>2021-08-27T13:39:34Z</time>
      </trkpt>
      <trkpt lat="44.59148" lon="2.92709">
        <ele>821</ele>
        <time>2021-08-27T13:39:36Z</time>
      </trkpt>
      <trkpt lat="44.59162" lon="2.92691">
        <ele>821</ele>
        <time>2021-08-27T13:39:42Z</time>
      </trkpt>
      <trkpt lat="44.59166" lon="2.92684">
        <ele>821</ele>
        <time>2021-08-27T13:39:44Z</time>
      </trkpt>
      <trkpt lat="44.5917" lon="2.92653">
        <ele>820</ele>
        <time>2021-08-27T13:39:52Z</time>
      </trkpt>
      <trkpt lat="44.5917" lon="2.92645">
        <ele>820</ele>
        <time>2021-08-27T13:39:54Z</time>
      </trkpt>
      <trkpt lat="44.5917" lon="2.92637">
        <ele>819</ele>
        <time>2021-08-27T13:39:56Z</time>
      </trkpt>
      <trkpt lat="44.5917" lon="2.92628">
        <ele>819</ele>
        <time>2021-08-27T13:39:59Z</time>
      </trkpt>
      <trkpt lat="44.59166" lon="2.92615">
        <ele>819</ele>
        <time>2021-08-27T13:40:05Z</time>
      </trkpt>
      <trkpt lat="44.59155" lon="2.92554">
        <ele>819</ele>
        <time>2021-08-27T13:40:24Z</time>
      </trkpt>
      <trkpt lat="44.59156" lon="2.92515">
        <ele>819</ele>
        <time>2021-08-27T13:40:34Z</time>
      </trkpt>
      <trkpt lat="44.59161" lon="2.92475">
        <ele>821</ele>
        <time>2021-08-27T13:40:44Z</time>
      </trkpt>
      <trkpt lat="44.59159" lon="2.92445">
        <ele>821</ele>
        <time>2021-08-27T13:40:52Z</time>
      </trkpt>
      <trkpt lat="44.59141" lon="2.92409">
        <ele>825</ele>
        <time>2021-08-27T13:41:04Z</time>
      </trkpt>
      <trkpt lat="44.59139" lon="2.92404">
        <ele>825</ele>
        <time>2021-08-27T13:41:06Z</time>
      </trkpt>
      <trkpt lat="44.59137" lon="2.92395">
        <ele>825</ele>
        <time>2021-08-27T13:41:09Z</time>
      </trkpt>
      <trkpt lat="44.59115" lon="2.92353">
        <ele>828</ele>
        <time>2021-08-27T13:41:25Z</time>
      </trkpt>
      <trkpt lat="44.59112" lon="2.92347">
        <ele>829</ele>
        <time>2021-08-27T13:41:28Z</time>
      </trkpt>
      <trkpt lat="44.5911" lon="2.92341">
        <ele>829</ele>
        <time>2021-08-27T13:41:31Z</time>
      </trkpt>
      <trkpt lat="44.59107" lon="2.9232">
        <ele>830</ele>
        <time>2021-08-27T13:41:45Z</time>
      </trkpt>
      <trkpt lat="44.59106" lon="2.92343">
        <ele>828</ele>
        <time>2021-08-27T13:42:10Z</time>
      </trkpt>
      <trkpt lat="44.59111" lon="2.92345">
        <ele>827</ele>
        <time>2021-08-27T13:46:38Z</time>
      </trkpt>
      <trkpt lat="44.59153" lon="2.92427">
        <ele>824</ele>
        <time>2021-08-27T13:47:10Z</time>
      </trkpt>
      <trkpt lat="44.59157" lon="2.92439">
        <ele>824</ele>
        <time>2021-08-27T13:47:12Z</time>
      </trkpt>
      <trkpt lat="44.59159" lon="2.92453">
        <ele>823</ele>
        <time>2021-08-27T13:47:14Z</time>
      </trkpt>
      <trkpt lat="44.59159" lon="2.92475">
        <ele>823</ele>
        <time>2021-08-27T13:47:17Z</time>
      </trkpt>
      <trkpt lat="44.59153" lon="2.92522">
        <ele>823</ele>
        <time>2021-08-27T13:47:23Z</time>
      </trkpt>
      <trkpt lat="44.59153" lon="2.92543">
        <ele>822</ele>
        <time>2021-08-27T13:47:26Z</time>
      </trkpt>
      <trkpt lat="44.59163" lon="2.92589">
        <ele>823</ele>
        <time>2021-08-27T13:47:34Z</time>
      </trkpt>
      <trkpt lat="44.59165" lon="2.92598">
        <ele>823</ele>
        <time>2021-08-27T13:47:36Z</time>
      </trkpt>
      <trkpt lat="44.59168" lon="2.92622">
        <ele>824</ele>
        <time>2021-08-27T13:47:44Z</time>
      </trkpt>
      <trkpt lat="44.59167" lon="2.9263">
        <ele>824</ele>
        <time>2021-08-27T13:47:46Z</time>
      </trkpt>
      <trkpt lat="44.59165" lon="2.92638">
        <ele>824</ele>
        <time>2021-08-27T13:47:48Z</time>
      </trkpt>
      <trkpt lat="44.59168" lon="2.92655">
        <ele>825</ele>
        <time>2021-08-27T13:48:19Z</time>
      </trkpt>
      <trkpt lat="44.59168" lon="2.92663">
        <ele>825</ele>
        <time>2021-08-27T13:48:21Z</time>
      </trkpt>
      <trkpt lat="44.59165" lon="2.92672">
        <ele>825</ele>
        <time>2021-08-27T13:48:23Z</time>
      </trkpt>
      <trkpt lat="44.59148" lon="2.92703">
        <ele>824</ele>
        <time>2021-08-27T13:48:30Z</time>
      </trkpt>
      <trkpt lat="44.59133" lon="2.92713">
        <ele>823</ele>
        <time>2021-08-27T13:48:34Z</time>
      </trkpt>
      <trkpt lat="44.59088" lon="2.92722">
        <ele>822</ele>
        <time>2021-08-27T13:48:46Z</time>
      </trkpt>
      <trkpt lat="44.59081" lon="2.92723">
        <ele>822</ele>
        <time>2021-08-27T13:48:48Z</time>
      </trkpt>
      <trkpt lat="44.59077" lon="2.92723">
        <ele>822</ele>
        <time>2021-08-27T13:48:50Z</time>
      </trkpt>
      <trkpt lat="44.59073" lon="2.92717">
        <ele>822</ele>
        <time>2021-08-27T13:48:53Z</time>
      </trkpt>
      <trkpt lat="44.59072" lon="2.92702">
        <ele>821</ele>
        <time>2021-08-27T13:48:57Z</time>
      </trkpt>
      <trkpt lat="44.59076" lon="2.92673">
        <ele>820</ele>
        <time>2021-08-27T13:49:03Z</time>
      </trkpt>
      <trkpt lat="44.59075" lon="2.92644">
        <ele>817</ele>
        <time>2021-08-27T13:49:09Z</time>
      </trkpt>
      <trkpt lat="44.59064" lon="2.92602">
        <ele>815</ele>
        <time>2021-08-27T13:49:21Z</time>
      </trkpt>
      <trkpt lat="44.59063" lon="2.92595">
        <ele>815</ele>
        <time>2021-08-27T13:49:30Z</time>
      </trkpt>
      <trkpt lat="44.59063" lon="2.92588">
        <ele>815</ele>
        <time>2021-08-27T13:49:46Z</time>
      </trkpt>
      <trkpt lat="44.59069" lon="2.92575">
        <ele>815</ele>
        <time>2021-08-27T13:49:57Z</time>
      </trkpt>
      <trkpt lat="44.59073" lon="2.92573">
        <ele>815</ele>
        <time>2021-08-27T13:50:00Z</time>
      </trkpt>
      <trkpt lat="44.59077" lon="2.92578">
        <ele>816</ele>
        <time>2021-08-27T13:50:26Z</time>
      </trkpt>
      <trkpt lat="44.59073" lon="2.92582">
        <ele>816</ele>
        <time>2021-08-27T14:00:34Z</time>
      </trkpt>
      <trkpt lat="44.59065" lon="2.92568">
        <ele>816</ele>
        <time>2021-08-27T14:01:03Z</time>
      </trkpt>
      <trkpt lat="44.59062" lon="2.92573">
        <ele>816</ele>
        <time>2021-08-27T14:03:28Z</time>
      </trkpt>
      <trkpt lat="44.59063" lon="2.92573">
        <ele>814</ele>
        <time>2021-08-27T14:05:06Z</time>
      </trkpt>
      <trkpt lat="44.59055" lon="2.9258">
        <ele>809</ele>
        <time>2021-08-27T14:06:52Z</time>
      </trkpt>
      <trkpt lat="44.59059" lon="2.92578">
        <ele>809</ele>
        <time>2021-08-27T14:06:56Z</time>
      </trkpt>
      <trkpt lat="44.59067" lon="2.92565">
        <ele>809</ele>
        <time>2021-08-27T14:07:27Z</time>
      </trkpt>
      <trkpt lat="44.59065" lon="2.92565">
        <ele>817</ele>
        <time>2021-08-27T14:08:29Z</time>
      </trkpt>
      <trkpt lat="44.59061" lon="2.92577">
        <ele>816</ele>
        <time>2021-08-27T14:08:47Z</time>
      </trkpt>
      <trkpt lat="44.59059" lon="2.92577">
        <ele>809</ele>
        <time>2021-08-27T14:09:05Z</time>
      </trkpt>
      <trkpt lat="44.59053" lon="2.9258">
        <ele>808</ele>
        <time>2021-08-27T14:09:08Z</time>
      </trkpt>
      <trkpt lat="44.59049" lon="2.92585">
        <ele>807</ele>
        <time>2021-08-27T14:09:12Z</time>
      </trkpt>
      <trkpt lat="44.59055" lon="2.92588">
        <ele>806</ele>
        <time>2021-08-27T14:09:27Z</time>
      </trkpt>
      <trkpt lat="44.59058" lon="2.9258">
        <ele>800</ele>
        <time>2021-08-27T14:09:54Z</time>
      </trkpt>
      <trkpt lat="44.59064" lon="2.92584">
        <ele>798</ele>
        <time>2021-08-27T14:09:58Z</time>
      </trkpt>
      <trkpt lat="44.59059" lon="2.92592">
        <ele>794</ele>
        <time>2021-08-27T14:10:14Z</time>
      </trkpt>
    </trkseg>
  </trk>
</gpx>